[[{"header":{"parameterUnit":"m.s-1","parameterCategory":1,"la1":30.6,"la2":28.766,"lo1":-90.7593,"lo2":-88.6598,"dy":0.0162,"dx":0.0183,"nx":116,"ny":114,"refTime":"2024-04-09T06:00:00:Z","depth":0,"parameterNumber":2,"parameterNumberName":"U-component_of_WINDS"},"data":[0.0,0.0,0.0,0.0,0.0,0.0,0.0,0.0,0.0,0.0,0.0,0.0,0.0,0.0,0.0,0.0,0.0,0.0,0.0,0.0,0.0,0.0,0.0,0.0,0.0,0.0,0.0,0.0,0.0,0.0,0.0,0.0,0.0,0.0,0.0,0.0,0.0,0.0,0.0,0.0,0.0,0.0,0.0,0.0,0.0,0.0,0.0,0.0,0.0,0.0,0.0,0.0,0.0,0.0,0.0,0.0,0.0,0.0,0.0,0.0,0.0,0.0,0.0,0.0,0.0,0.0,0.0,0.0,0.0,0.0,0.0,0.0,0.0,0.0,0.0,0.0,0.0,0.0,0.0,0.0,0.0,0.0,0.0,0.0,0.0,0.0,0.0,0.0,0.0,0.0,0.0,0.0,0.0,0.0,0.0,0.0,0.0,0.0,0.0,0.0,0.0,0.0,0.0,0.0,0.0,0.0,0.0,0.0,0.0,0.0,0.0,0.0,0.0,0.0,0.0,0.0,0.0,0.0,0.0,0.0,0.0,0.0,0.0,0.0,0.0,0.0,0.0,0.0,0.0,0.0,0.0,0.0,0.0,0.0,0.0,0.0,0.0,0.0,0.0,0.0,0.0,0.0,0.0,0.0,0.0,0.0,0.0,0.0,0.0,0.0,0.0,0.0,0.0,0.0,0.0,0.0,0.0,0.0,0.0,0.0,0.0,0.0,0.0,0.0,0.0,0.0,0.0,0.0,0.0,0.0,0.0,0.0,0.0,0.0,0.0,0.0,0.0,0.0,0.0,0.0,0.0,0.0,0.0,0.0,0.0,0.0,0.0,0.0,0.0,0.0,0.0,0.0,0.0,0.0,0.0,0.0,0.0,0.0,0.0,0.0,0.0,0.0,0.0,0.0,0.0,0.0,0.0,0.0,0.0,0.0,0.0,0.0,0.0,0.0,0.0,0.0,0.0,0.0,0.0,0.0,0.0,0.0,0.0,0.0,0.0,0.0,0.0,0.0,0.0,0.0,0.0,0.0,0.0,0.0,0.0,0.0,0.0,0.0,0.0,0.0,0.0,0.0,0.0,0.0,0.0,0.0,0.0,0.0,0.0,0.0,0.0,0.0,0.0,0.0,0.0,0.0,0.0,0.0,0.0,0.0,0.0,0.0,0.0,0.0,0.0,0.0,0.0,0.0,0.0,0.0,0.0,0.0,0.0,0.0,0.0,0.0,0.0,0.0,0.0,0.0,0.0,0.0,0.0,0.0,0.0,0.0,0.0,0.0,0.0,0.0,0.0,0.0,0.0,0.0,0.0,0.0,0.0,0.0,0.0,0.0,0.0,0.0,0.0,0.0,0.0,0.0,0.0,0.0,0.0,0.0,0.0,0.0,0.0,0.0,0.0,0.0,0.0,0.0,0.0,0.0,0.0,0.0,0.0,0.0,0.0,0.0,0.0,0.0,0.0,0.0,0.0,0.0,0.0,0.0,0.0,0.0,0.0,0.0,0.0,0.0,0.0,0.0,0.0,0.0,0.0,0.0,0.0,0.0,0.0,0.0,0.0,0.0,0.0,0.0,0.0,0.0,0.0,0.0,0.0,0.0,0.0,0.0,0.0,0.0,0.0,0.0,0.0,0.0,0.0,0.0,0.0,0.0,0.0,0.0,0.0,0.0,0.0,0.0,0.0,0.0,0.0,0.0,0.0,0.0,0.0,0.0,0.0,0.0,0.0,0.0,0.0,0.0,0.0,0.0,0.0,0.0,0.0,0.0,0.0,0.0,0.0,0.0,0.0,0.0,0.0,0.0,0.0,0.0,0.0,0.0,0.0,0.0,0.0,0.0,0.0,0.0,0.0,0.0,0.0,0.0,0.0,0.0,0.0,0.0,0.0,0.0,0.0,0.0,0.0,0.0,0.0,0.0,0.0,0.0,0.0,0.0,0.0,0.0,0.0,0.0,0.0,0.0,0.0,0.0,0.0,0.0,0.0,0.0,0.0,0.0,0.0,0.0,0.0,0.0,0.0,0.0,0.0,0.0,0.0,0.0,0.0,0.0,0.0,0.0,0.0,0.0,0.0,0.0,0.0,0.0,0.0,0.0,0.0,0.0,0.0,0.0,0.0,0.0,0.0,0.0,0.0,0.0,0.0,0.0,0.0,0.0,0.0,0.0,0.0,0.0,0.0,0.0,0.0,0.0,0.0,0.0,0.0,0.0,0.0,0.0,0.0,0.0,0.0,0.0,0.0,0.0,0.0,0.0,0.0,0.0,0.0,0.0,0.0,0.0,0.0,0.0,0.0,0.0,0.0,0.0,0.0,0.0,0.0,0.0,0.0,0.0,0.0,0.0,0.0,0.0,0.0,0.0,0.0,0.0,0.0,0.0,0.0,0.0,0.0,0.0,0.0,0.0,0.0,0.0,0.0,0.0,0.0,0.0,0.0,0.0,0.0,0.0,0.0,0.0,0.0,0.0,0.0,0.0,0.0,0.0,0.0,0.0,0.0,0.0,0.0,0.0,0.0,0.0,0.0,0.0,0.0,0.0,0.0,0.0,0.0,0.0,0.0,0.0,0.0,0.0,0.0,0.0,0.0,0.0,0.0,0.0,0.0,0.0,0.0,0.0,0.0,0.0,0.0,0.0,0.0,0.0,0.0,0.0,0.0,0.0,0.0,0.0,0.0,0.0,0.0,0.0,0.0,0.0,0.0,0.0,0.0,0.0,0.0,0.0,0.0,0.0,0.0,0.0,0.0,0.0,0.0,0.0,0.0,0.0,0.0,0.0,0.0,0.0,0.0,0.0,0.0,0.0,0.0,0.0,0.0,0.0,0.0,0.0,0.0,0.0,0.0,0.0,0.0,0.0,0.0,0.0,0.0,0.0,0.0,0.0,0.0,0.0,0.0,0.0,0.0,0.0,0.0,0.0,0.0,0.0,0.0,0.0,0.0,0.0,0.0,0.0,0.0,0.0,0.0,0.0,0.0,0.0,0.0,0.0,0.0,0.0,0.0,0.0,0.0,0.0,0.0,0.0,0.0,0.0,0.0,0.0,0.0,0.0,0.0,0.0,0.0,0.0,0.0,0.0,0.0,0.0,0.0,0.0,0.0,0.0,0.0,0.0,0.0,0.0,0.0,0.0,0.0,0.0,0.0,0.0,0.0,0.0,0.0,0.0,0.0,0.0,0.0,0.0,0.0,0.0,0.0,0.0,0.0,0.0,0.0,0.0,0.0,0.0,0.0,0.0,0.0,0.0,0.0,0.0,0.0,0.0,0.0,0.0,0.0,0.0,0.0,0.0,0.0,0.0,0.0,0.0,0.0,0.0,0.0,0.0,0.0,0.0,0.0,0.0,0.0,0.0,0.0,0.0,0.0,0.0,0.0,0.0,0.0,0.0,0.0,0.0,0.0,0.0,0.0,0.0,0.0,0.0,0.0,0.0,0.0,0.0,0.0,0.0,0.0,0.0,0.0,0.0,0.0,0.0,0.0,0.0,0.0,0.0,0.0,0.0,0.0,0.0,0.0,0.0,0.0,0.0,0.0,0.0,0.0,0.0,0.0,0.0,0.0,0.0,0.0,0.0,0.0,0.0,0.0,0.0,0.0,0.0,0.0,0.0,0.0,0.0,0.0,0.0,0.0,0.0,0.0,0.0,0.0,0.0,0.0,0.0,0.0,0.0,0.0,0.0,0.0,0.0,0.0,0.0,0.0,0.0,0.0,0.0,0.0,0.0,0.0,0.0,0.0,0.0,0.0,0.0,0.0,0.0,0.0,0.0,0.0,0.0,0.0,0.0,0.0,0.0,0.0,0.0,0.0,0.0,0.0,0.0,0.0,0.0,0.0,0.0,0.0,0.0,0.0,0.0,0.0,0.0,0.0,0.0,0.0,0.0,0.0,0.0,0.0,0.0,0.0,0.0,0.0,0.0,0.0,0.0,0.0,0.0,0.0,0.0,0.0,0.0,0.0,0.0,0.0,0.0,0.0,0.0,0.0,0.0,0.0,0.0,0.0,0.0,0.0,0.0,0.0,0.0,0.0,0.0,0.0,0.0,0.0,0.0,0.0,0.0,0.0,0.0,0.0,0.0,0.0,0.0,0.0,0.0,0.0,0.0,0.0,0.0,0.0,0.0,0.0,0.0,0.0,0.0,0.0,0.0,0.0,0.0,0.0,0.0,0.0,0.0,0.0,0.0,0.0,0.0,0.0,0.0,0.0,0.0,0.0,0.0,0.0,0.0,0.0,0.0,0.0,0.0,0.0,0.0,0.0,0.0,0.0,0.0,0.0,0.0,0.0,0.0,0.0,0.0,0.0,0.0,0.0,0.0,0.0,0.0,0.0,0.0,0.0,0.0,0.0,0.0,0.0,0.0,0.0,0.0,0.0,0.0,0.0,0.0,0.0,0.0,0.0,0.0,0.0,0.0,0.0,0.0,0.0,0.0,0.0,0.0,0.0,0.0,0.0,0.0,0.0,0.0,0.0,0.0,0.0,0.0,0.0,0.0,0.0,0.0,0.0,0.0,0.0,0.0,0.0,0.0,0.0,0.0,0.0,0.0,0.0,0.0,0.0,0.0,0.0,0.0,0.0,0.0,0.0,0.0,0.0,0.0,0.0,0.0,0.0,0.0,0.0,0.0,0.0,0.0,0.0,0.0,0.0,0.0,0.0,0.0,0.0,0.0,0.0,0.0,0.0,0.0,0.0,0.0,0.0,0.0,0.0,0.0,0.0,0.0,0.0,0.0,0.0,0.0,0.0,0.0,0.0,0.0,0.0,0.0,0.0,0.0,0.0,0.0,0.0,0.0,0.0,0.0,0.0,0.0,0.0,0.0,0.0,0.0,0.0,0.0,0.0,0.0,0.0,0.0,0.0,0.0,0.0,0.0,0.0,0.0,0.0,0.0,0.0,0.0,0.0,0.0,0.0,0.0,0.0,0.0,0.0,0.0,0.0,0.0,0.0,0.0,0.0,0.0,0.0,0.0,0.0,0.0,0.0,0.0,0.0,0.0,0.0,0.0,0.0,0.0,0.0,0.0,0.0,0.0,0.0,0.0,0.0,0.0,0.0,0.0,0.0,0.0,0.0,0.0,0.0,0.0,0.0,0.0,0.0,0.0,0.0,0.0,0.0,0.0,0.0,0.0,0.0,0.0,0.0,0.0,0.0,0.0,0.0,0.0,0.0,0.0,0.0,0.0,0.0,0.0,0.0,0.0,0.0,0.0,0.0,0.0,0.0,0.0,0.0,0.0,0.0,0.0,0.0,0.0,0.0,0.0,0.0,0.0,0.0,0.0,0.0,0.0,0.0,0.0,0.0,0.0,0.0,0.0,0.0,0.0,0.0,0.0,0.0,0.0,0.0,0.0,0.0,0.0,0.0,0.0,0.0,0.0,0.0,0.0,0.0,0.0,0.0,0.0,0.0,0.0,0.0,0.0,0.0,0.0,0.0,0.0,0.0,0.0,0.0,0.0,0.0,0.0,0.0,0.0,0.0,0.0,0.0,0.0,0.0,0.0,0.0,0.0,0.0,0.0,0.0,0.0,0.0,0.0,0.0,0.0,0.0,0.0,0.0,0.0,0.0,0.0,0.0,0.0,0.0,0.0,0.0,0.0,0.0,0.0,0.0,0.0,0.0,0.0,0.0,0.0,0.0,0.0,0.0,0.0,0.0,0.0,0.0,0.0,0.0,0.0,0.0,0.0,0.0,0.0,0.0,0.0,0.0,0.0,0.0,0.0,0.0,0.0,0.0,0.0,0.0,0.0,0.0,0.0,0.0,0.0,0.0,0.0,0.0,0.0,0.0,0.0,0.0,0.0,0.0,0.0,0.0,0.0,0.0,0.0,0.0,0.0,0.0,0.0,0.0,0.0,0.0,0.0,0.0,0.0,0.0,0.0,0.0,0.0,0.0,0.0,0.0,0.0,0.0,0.0,0.0,0.0,0.0,0.0,0.0,0.0,0.0,0.0,0.0,0.0,0.0,0.0,0.0,0.0,0.0,0.0,0.0,0.0,0.0,0.0,0.0,0.0,0.0,0.0,0.0,0.0,0.0,0.0,0.0,0.0,0.0,0.0,0.0,0.0,0.0,0.0,0.0,0.0,0.0,0.0,0.0,0.0,0.0,0.0,-5.2306,-5.2903,0.0,0.0,0.0,0.0,0.0,0.0,0.0,0.0,0.0,0.0,0.0,0.0,0.0,0.0,0.0,0.0,0.0,0.0,0.0,0.0,0.0,0.0,0.0,-5.2427,-5.303,-5.3281,-5.3306,-5.3306,-5.3306,-5.3306,0.0,0.0,0.0,0.0,-5.4164,-5.5075,-5.5538,-5.5538,-5.5049,-5.4308,-5.3472,-5.4107,-5.598,-5.8984,0.0,0.0,0.0,0.0,0.0,0.0,0.0,0.0,0.0,0.0,0.0,0.0,0.0,0.0,0.0,0.0,0.0,0.0,0.0,0.0,0.0,0.0,0.0,0.0,0.0,0.0,0.0,0.0,0.0,0.0,0.0,0.0,0.0,0.0,0.0,0.0,0.0,0.0,0.0,0.0,0.0,0.0,0.0,0.0,0.0,0.0,0.0,0.0,0.0,0.0,0.0,0.0,0.0,0.0,0.0,0.0,0.0,0.0,0.0,0.0,0.0,0.0,0.0,0.0,0.0,0.0,0.0,0.0,0.0,0.0,-5.3678,-5.296,0.0,0.0,0.0,0.0,0.0,0.0,0.0,0.0,0.0,0.0,0.0,0.0,0.0,0.0,0.0,0.0,0.0,0.0,0.0,0.0,0.0,-5.1825,-5.1473,-5.2402,-5.3231,-5.3658,-5.3708,-5.3708,-5.3708,-5.3607,-5.3381,-5.2955,-5.2929,-5.2929,-5.2929,-5.2929,-5.2829,-5.2628,-5.1724,-5.1147,-5.087,-5.1147,-5.3268,-5.7022,-5.9865,0.0,0.0,0.0,0.0,0.0,0.0,0.0,0.0,0.0,0.0,0.0,0.0,0.0,0.0,0.0,0.0,0.0,0.0,0.0,0.0,0.0,0.0,0.0,0.0,0.0,0.0,0.0,0.0,0.0,0.0,0.0,0.0,0.0,0.0,0.0,0.0,0.0,0.0,0.0,0.0,0.0,0.0,0.0,0.0,0.0,0.0,0.0,0.0,0.0,0.0,0.0,0.0,0.0,0.0,0.0,0.0,0.0,0.0,0.0,0.0,0.0,0.0,0.0,-5.5742,-5.6746,-5.8152,-5.7675,-5.7223,-5.6744,-5.6346,-5.3942,-5.0524,-5.3322,0.0,0.0,0.0,0.0,0.0,0.0,0.0,0.0,0.0,0.0,0.0,0.0,0.0,0.0,0.0,0.0,0.0,0.0,0.0,-5.1548,-5.195,-5.2955,-5.3632,-5.3683,-5.3708,-5.3708,-5.3708,-5.3281,-5.3005,-5.2929,-5.2929,-5.2929,-5.2929,-5.2929,-5.2452,-5.1498,-5.1348,-5.1724,-5.2628,-5.4059,-5.5072,-5.5618,-5.6264,-5.8069,-6.0744,0.0,0.0,0.0,0.0,0.0,0.0,0.0,0.0,0.0,0.0,0.0,0.0,0.0,0.0,0.0,0.0,0.0,0.0,0.0,0.0,0.0,0.0,0.0,0.0,0.0,0.0,0.0,0.0,0.0,0.0,0.0,0.0,0.0,0.0,0.0,0.0,0.0,0.0,0.0,0.0,0.0,-6.2032,-6.263,0.0,0.0,0.0,0.0,0.0,0.0,0.0,0.0,0.0,0.0,0.0,0.0,0.0,-5.8471,-5.9613,-5.8379,-5.7824,-5.8127,-5.8227,-5.8629,-5.9282,-5.9207,-5.9131,-5.9081,-5.9462,0.0,-5.3268,-5.4634,0.0,0.0,0.0,0.0,0.0,0.0,0.0,0.0,0.0,0.0,0.0,0.0,0.0,0.0,0.0,0.0,0.0,0.0,0.0,0.0,0.0,-5.2804,-5.3381,-5.3683,-5.4561,-5.4712,-5.3758,-5.4361,-5.4235,-5.298,-5.2929,-5.2929,-5.2929,-5.2628,-5.2076,-5.1272,-5.19,-5.2603,-5.3381,-5.4436,-5.5415,-5.6269,-5.6351,-5.7608,-5.9627,-6.0043,0.0,0.0,0.0,0.0,0.0,0.0,0.0,0.0,0.0,0.0,0.0,0.0,0.0,0.0,0.0,0.0,0.0,0.0,0.0,0.0,0.0,0.0,0.0,0.0,0.0,0.0,0.0,0.0,0.0,0.0,0.0,0.0,0.0,0.0,0.0,0.0,0.0,0.0,0.0,-6.3139,-6.4545,-6.3707,-6.4934,-6.5263,0.0,0.0,0.0,0.0,0.0,0.0,0.0,0.0,0.0,-6.0039,-5.8935,-5.8686,-5.943,-5.9287,-5.9859,-6.1014,-6.1341,-6.2119,-6.3199,-6.2898,-6.2747,-6.2747,-6.2672,-6.0839,-5.7825,-5.6713,-5.5934,-5.5499,0.0,0.0,0.0,0.0,-5.6796,-5.7594,0.0,0.0,0.0,0.0,0.0,0.0,0.0,0.0,0.0,0.0,0.0,0.0,-5.2277,-5.2929,-5.3557,-5.4084,-5.5415,-5.5616,-5.4235,-5.5039,-5.4787,-5.3005,-5.3055,-5.3055,-5.2929,-5.2251,-5.19,-5.19,-5.303,-5.4034,-5.5013,-5.5867,-5.6922,-5.8102,-5.8102,-5.8394,-5.885,-5.9307,-5.9304,-5.9002,0.0,0.0,0.0,0.0,0.0,0.0,0.0,0.0,0.0,0.0,0.0,0.0,0.0,0.0,0.0,0.0,0.0,0.0,0.0,0.0,0.0,0.0,0.0,0.0,0.0,0.0,0.0,0.0,0.0,0.0,0.0,0.0,0.0,0.0,0.0,0.0,0.0,-6.4874,-6.5919,-6.3802,-6.5789,-6.6376,0.0,0.0,0.0,0.0,0.0,0.0,-6.062,-5.9581,-5.9596,-6.0999,-6.0023,-5.9859,-6.0563,-6.124,-6.237,-6.3902,-6.4329,-6.5157,-6.6312,-6.5911,-6.5559,-6.5258,-6.4705,-6.3375,-6.1416,-5.9056,-5.7553,-5.6669,-5.6226,-5.6833,-5.7944,-5.7689,-5.8575,-5.9884,0.0,0.0,0.0,0.0,0.0,0.0,0.0,0.0,0.0,0.0,0.0,-5.1122,-5.2703,-5.3833,-5.4712,-5.5265,-5.5867,-5.5968,-5.534,-5.4386,-5.3557,-5.2955,-5.3406,-5.3432,-5.2929,-5.1875,-5.2076,-5.3582,-5.4712,-5.6369,-5.8504,-6.0111,-6.0889,-6.0964,-6.0964,-6.0164,-5.863,-5.7068,-5.7369,-5.8718,-5.7694,0.0,0.0,0.0,0.0,0.0,0.0,0.0,0.0,0.0,0.0,0.0,0.0,0.0,0.0,0.0,0.0,0.0,0.0,0.0,0.0,0.0,0.0,0.0,0.0,0.0,0.0,0.0,0.0,0.0,0.0,0.0,0.0,0.0,0.0,0.0,0.0,0.0,0.0,-6.2563,-6.4208,0.0,0.0,0.0,0.0,-6.0452,-6.0414,-6.0553,-6.1158,-6.0097,-6.0468,-6.2577,-6.2094,-6.3099,-6.571,-6.5283,-6.5609,-6.6764,-6.6789,-6.6865,-6.694,-6.6915,-6.6312,-6.5258,-6.4705,-6.3802,-6.2647,-6.1466,-5.9761,-5.7825,-5.78,-5.7849,-5.7848,-5.7244,-5.8667,-6.0686,0.0,0.0,0.0,0.0,0.0,-4.959,-4.959,-5.0368,-5.1046,-5.1247,-5.1724,-5.2678,-5.4336,-5.4863,-5.5616,-5.6897,-5.7173,-5.6897,-5.5993,-5.5214,-5.4386,-5.3457,-5.234,-5.1436,-5.0928,-4.9322,-5.0387,-5.426,-5.4402,-5.6219,-5.9759,-6.0738,-6.1567,-6.2245,-6.2245,-6.1517,-6.0186,-5.8152,-5.7013,-5.6565,-5.617,-5.6489,0.0,0.0,0.0,0.0,0.0,0.0,0.0,0.0,0.0,0.0,0.0,0.0,0.0,0.0,0.0,0.0,0.0,0.0,0.0,0.0,0.0,0.0,0.0,0.0,0.0,0.0,0.0,0.0,0.0,0.0,0.0,0.0,0.0,0.0,0.0,0.0,0.0,-6.6988,-6.9182,0.0,-6.5479,-6.3082,-6.187,-6.2012,-6.2677,-6.3593,-6.4839,-6.6645,-6.7773,-6.8117,-6.9394,-6.9316,-6.7719,-6.8288,-6.8211,-6.7493,-6.7141,-6.7166,-6.7493,-6.7141,-6.6764,-6.6312,-6.5409,-6.458,-6.3827,-6.3099,-6.1266,-5.8855,-5.8177,-5.8674,-5.9877,-6.0007,-6.1661,-6.387,0.0,0.0,0.0,0.0,0.0,-4.959,-4.959,-5.0544,-5.1071,-5.0519,-5.19,-5.3406,-5.4687,-5.5666,-5.6897,-5.8579,-5.8202,-5.7499,-5.6545,-5.544,-5.4102,-5.2499,-5.0461,-4.9122,-4.861,-4.7704,-4.9414,-5.3856,-5.4259,-5.6605,-6.0638,-6.1391,-6.2119,-6.2822,-6.2822,-6.2421,-6.1617,-5.9784,-5.7926,-5.6239,-5.5846,-5.6128,-5.6715,0.0,0.0,0.0,0.0,0.0,0.0,0.0,0.0,0.0,0.0,0.0,0.0,0.0,0.0,0.0,0.0,0.0,0.0,0.0,0.0,0.0,0.0,0.0,0.0,0.0,0.0,0.0,0.0,0.0,0.0,0.0,0.0,0.0,0.0,-6.8457,-7.038,-6.9518,-7.1269,-7.1097,-6.7585,-6.5893,-6.4895,-6.4844,-6.6805,-6.8587,-7.0071,-7.2326,-7.3102,-7.2058,-7.312,-7.2111,-6.8622,-6.9367,-6.9593,-6.9199,-6.802,-6.8031,-6.8831,-6.754,-6.6764,-6.6363,-6.5409,-6.4705,-6.4236,-6.4398,-6.3265,-6.1555,-6.084,-6.1793,-6.3619,-6.3995,-6.5591,-6.7749,0.0,0.0,0.0,0.0,0.0,-4.959,-4.959,-5.0544,-5.0695,-4.9012,-5.1247,-5.3206,-5.3733,-5.6294,-5.8629,-6.0236,-5.883,-5.765,-5.7097,-5.4913,-5.2544,-5.0009,-4.7976,-4.6636,-4.614,-4.7076,-4.9107,-5.2437,-5.4509,-5.7376,-6.1111,-6.2214,-6.2822,-6.2822,-6.2822,-6.2822,-6.2747,-6.1692,-5.9985,-5.7926,-5.6696,-5.7538,-5.9271,0.0,0.0,0.0,0.0,0.0,0.0,0.0,0.0,0.0,0.0,0.0,0.0,0.0,0.0,0.0,0.0,0.0,0.0,0.0,0.0,0.0,0.0,0.0,0.0,0.0,0.0,0.0,0.0,0.0,0.0,0.0,0.0,0.0,-6.6041,-6.869,-7.0372,-6.975,-7.018,-6.9213,-6.6069,-6.7737,-6.9077,-6.9077,-7.2747,-7.5479,-7.6511,-7.6676,-7.587,-7.4145,-7.303,-7.133,-6.8787,-6.889,-6.9823,-7.1775,-6.9622,-6.9403,-7.082,-6.8157,-6.6363,-6.5283,-6.479,-6.4345,-6.3899,-6.5343,-6.5922,-6.6,-6.5922,-6.7138,-6.8963,-6.8963,-7.0227,-7.2011,0.0,0.0,0.0,-4.9464,-4.959,-4.959,-4.959,-5.0544,-5.082,-4.954,-5.2477,-5.4913,-5.5465,-5.8001,-6.0161,-6.1441,-5.893,-5.7374,-5.765,-5.4436,-5.13,-4.8452,-4.5537,-4.4304,-4.5105,-4.3993,-4.5807,-5.0734,-5.2513,-5.5251,-5.8895,-6.1117,-6.2446,-6.2822,-6.2822,-6.2822,-6.2822,-6.2496,-6.1793,-6.0613,-5.7474,-5.6334,-5.6499,0.0,0.0,0.0,0.0,0.0,0.0,0.0,0.0,0.0,0.0,0.0,0.0,0.0,0.0,0.0,0.0,0.0,0.0,0.0,0.0,0.0,0.0,0.0,0.0,0.0,0.0,0.0,0.0,0.0,0.0,0.0,-6.6185,-6.7995,-6.8276,-7.1816,-7.4938,-7.6379,-7.7642,-7.7647,-7.549,-7.5124,-7.5185,-7.5624,-7.7717,-7.9277,-7.9996,-8.1971,-8.2158,-7.9941,-8.0794,-7.8592,-7.3019,-7.444,-7.2989,-6.8911,-6.905,-6.8558,-6.746,-6.6646,-6.6187,-6.5921,-6.645,-6.6562,-6.6571,-6.7646,-6.8888,-7.0051,-6.8662,-6.9262,-7.1032,-7.1032,-7.2024,-7.3152,0.0,0.0,0.0,-4.9113,-4.9238,-4.9339,-4.9565,-5.0343,-5.0343,-4.8761,-5.2553,-5.534,-5.5164,-5.7851,-6.001,-6.0889,-5.8127,-5.6394,-5.6495,-5.3205,-4.9886,-4.6973,-4.4599,-4.3655,-4.4453,-4.2839,-4.4215,-4.8733,-5.1505,-5.4544,-5.7949,-6.0947,-6.2647,-6.3199,-6.3199,-6.3299,-6.35,-6.3274,-6.2998,-6.2446,-5.9483,-5.8252,-5.8077,-5.6867,-5.6829,-5.7487,-5.8533,-5.8961,-5.9216,-6.0369,0.0,0.0,0.0,0.0,0.0,0.0,0.0,0.0,0.0,0.0,0.0,0.0,0.0,0.0,0.0,0.0,0.0,0.0,0.0,0.0,0.0,0.0,0.0,0.0,-6.7094,-7.0001,-7.1019,-7.4473,-7.7863,-8.0553,-8.1511,-8.1632,-8.0585,-8.0837,-8.0955,-8.0702,-8.2494,-8.3621,-8.3628,-8.5189,-8.4812,-8.196,-8.2773,-8.0574,-7.4923,-7.6284,-7.5286,-7.1941,-7.1576,-7.0627,-6.9171,-6.7983,-6.7356,-6.7183,-6.77,-6.812,-6.8535,-6.9976,-7.1069,-7.1784,0.0,0.0,0.0,0.0,-7.3468,-7.3656,0.0,0.0,0.0,-4.8485,-4.8686,-4.8837,-4.9339,-4.9916,-4.954,-4.733,-5.185,-5.4787,-5.3482,-5.6394,-5.8654,-5.9182,-5.6646,-5.4787,-5.4235,-5.1382,-4.8639,-4.6297,-4.498,-4.4431,-4.4537,-4.3372,-4.418,-4.7069,-5.1249,-5.4737,-5.762,-6.1187,-6.3149,-6.3701,-6.3701,-6.3977,-6.4429,-6.3977,-6.3776,-6.3651,-6.2144,-6.1692,-6.1642,-5.9056,-5.9257,-6.0713,-5.9257,-5.8202,-5.7698,-5.9206,0.0,0.0,0.0,0.0,0.0,0.0,0.0,0.0,0.0,0.0,0.0,0.0,0.0,0.0,0.0,0.0,0.0,0.0,0.0,0.0,0.0,0.0,0.0,0.0,-6.7832,-7.2183,-7.4591,-7.737,-8.0332,-8.325,-8.3445,-8.3344,-8.3344,-8.5075,-8.5877,-8.492,-8.6565,-8.7347,-8.6808,-8.6718,0.0,0.0,0.0,-7.9873,-7.5898,-7.6396,-7.6844,-7.7218,-7.5367,-7.4045,-7.3279,-7.0798,-6.942,-6.8969,-6.9132,-6.9631,-7.0386,-7.2368,-7.2821,-7.2243,-7.2243,-7.3363,-7.4869,-7.4869,-7.445,-7.3791,0.0,0.0,-4.733,-4.7958,-4.8083,-4.8109,-4.8209,-4.9113,-4.8962,-4.6753,-5.1297,-5.3783,-5.1322,-5.4436,-5.6922,-5.7474,-5.4587,-5.2503,-5.195,-4.9077,-4.7946,-4.9086,-4.7065,-4.6315,-4.7113,-4.5595,-4.5678,-4.7412,-5.1322,-5.3995,-5.5328,-6.0398,-6.3149,-6.3701,-6.3701,-6.3977,-6.4454,-6.4354,-6.4329,-6.4279,-6.3952,-6.2822,-6.119,-5.9734,-5.9182,-5.9156,-5.883,-5.9433,-6.0314,-5.9768,-6.02,-6.0733,-5.8746,-5.7563,0.0,0.0,0.0,0.0,0.0,0.0,0.0,0.0,0.0,0.0,0.0,0.0,0.0,0.0,0.0,0.0,0.0,0.0,0.0,-7.0415,-7.3478,-7.6877,-8.0563,-8.337,-8.5486,-8.6674,-8.7712,-8.832,-8.832,-8.8209,-8.8278,-8.8628,-8.7524,-8.7048,-8.7496,-8.6988,-8.6141,-8.4912,-8.4298,-8.2585,-7.9415,-7.9773,-7.8205,-7.4947,-7.5201,0.0,-7.2672,-7.2137,-7.1788,-7.181,-7.2981,-7.3274,-7.3083,-7.4668,-7.4882,-7.4327,-7.4327,-7.4564,-7.4869,-7.4869,-7.445,-7.3791,0.0,-4.5723,-4.6476,-4.7029,-4.733,-4.7606,-4.7857,-4.8385,-4.836,-4.7255,-5.0745,-5.2703,-5.1021,-5.308,-5.4461,-5.4185,-5.1875,-5.009,-4.9247,-4.9334,-4.9538,-4.9744,-4.927,-4.9202,-4.9711,-4.8485,-4.8366,-4.9561,-5.3378,-5.5705,-5.6726,-6.0874,-6.3274,-6.4078,-6.4078,-6.453,-6.5283,-6.4982,-6.4881,-6.4856,-6.458,-6.3977,-6.3149,-6.2295,-6.1818,-6.1592,-6.1592,-6.1416,-6.109,-6.0537,-6.0337,-6.006,-5.8428,-5.7323,-5.6591,0.0,0.0,0.0,0.0,0.0,0.0,0.0,0.0,0.0,0.0,0.0,0.0,0.0,0.0,-6.5126,-6.7951,0.0,-7.0951,-7.2551,-7.5259,-7.8238,-8.1253,-8.3869,-8.6217,-8.8014,-8.9352,-9.016,-9.016,-8.986,-8.9531,-8.9202,-8.8245,-8.7526,-8.7197,-8.6868,-8.6359,-8.5731,-8.5043,-8.3889,-8.2056,-8.1522,-8.0061,-7.7529,-7.7624,-7.6428,-7.4042,-7.4042,-7.4042,-7.4091,-7.4515,-7.4908,-7.5243,-7.5349,-7.5198,-7.4869,-7.4869,-7.4869,-7.4869,-7.4869,-7.424,-7.3402,0.0,0.0,-4.5372,-4.6024,-4.6527,-4.7004,-4.7531,-4.7682,-4.7732,-4.7606,-4.9941,-5.1322,-5.0569,-5.1448,-5.1674,-5.0569,-4.9314,-4.8377,-4.7696,-5.0337,-5.1489,-5.0519,-5.1705,-5.2452,-5.2669,-5.139,-5.1331,-5.2514,-5.5644,-5.7686,-5.8736,-6.1516,-6.3425,-6.4454,-6.4454,-6.5082,-6.6086,-6.5634,-6.5459,-6.5409,-6.4957,-6.5057,-6.5409,-6.4957,-6.4781,-6.4756,-6.453,-6.3048,-6.119,-6.1316,-6.0311,-5.8956,-5.8504,-5.8127,-5.7675,-5.6796,-5.6068,0.0,0.0,0.0,0.0,0.0,0.0,0.0,0.0,-6.0103,-6.212,-6.5336,-6.5906,-6.7218,-7.1523,-7.3373,-7.4298,-7.43,-7.6648,-7.922,-8.1295,-8.3593,-8.5861,-8.8262,-8.9771,-9.0579,-9.0459,-9.0459,-8.995,-8.8783,-8.8574,-8.8005,-8.6928,-8.6748,-8.6359,-8.5731,-8.5043,-8.4384,-8.3756,-8.2439,-8.1512,-8.0973,-8.0315,-7.8849,-7.6637,-7.6491,-7.6433,-7.6404,-7.5459,-7.5771,-7.6724,-7.5407,-7.4869,-7.4869,-7.4869,-7.4869,-7.4869,-7.4869,-7.421,-7.3343,0.0,0.0,0.0,-4.5397,-4.5623,-4.5849,-4.6401,-4.6903,-4.7054,-4.6552,-4.846,-4.9289,-4.7757,-4.8586,-4.8786,-4.7682,-4.7832,-4.8598,-4.9931,-5.0905,-5.2184,-5.3973,-5.4627,-5.5451,-5.6351,-5.4045,-5.3743,-5.5729,-5.6667,-5.7686,-5.8736,-6.1516,-6.3425,-6.4454,-6.4454,-6.5082,-6.6112,-6.6036,-6.6011,-6.6011,-6.5961,-6.5961,-6.6011,-6.5936,-6.5936,-6.581,-6.4831,-6.3048,-6.1266,-6.1743,-6.1115,-6.0136,-6.006,-6.0362,-6.0311,-5.8303,-5.6947,-5.594,-5.5047,-5.4012,-5.3323,-5.3452,-5.4003,-5.4715,0.0,-5.7888,-6.0766,-6.3943,-6.6138,-6.8808,-7.2917,-7.4779,-7.6594,-7.9424,-8.1213,-8.2882,-8.485,-8.64,-8.7465,-8.7796,-8.9501,-9.0399,-8.983,-8.9771,-8.9471,-8.8753,-8.8155,-8.7736,-8.7616,-8.7018,-8.6359,-8.5731,-8.5043,-8.4384,-8.3756,-8.2439,-8.1751,-8.1661,-8.1003,-8.0496,-8.0229,-7.9559,-7.9321,-7.9201,-7.7355,-7.6662,-7.6724,-7.5407,-7.4869,-7.4869,-7.4869,-7.4869,-7.4869,-7.4869,-7.4779,-7.4569,0.0,0.0,0.0,-4.4367,-4.5045,-4.5573,-4.5799,-4.6301,-4.6702,-4.6778,-4.7857,-4.836,-4.7657,-4.7431,-4.7029,-4.625,-4.6677,-4.8109,-5.0745,-5.1749,-5.3356,-5.5892,-5.6545,-5.7072,-5.7524,-5.7044,-5.7425,-5.8575,-5.9515,-6.0326,-6.1088,-6.2288,-6.3425,-6.4454,-6.4454,-6.5258,-6.6589,-6.6262,-6.6488,-6.7066,-6.6739,-6.6614,-6.6736,-6.7502,-6.6681,-6.5077,-6.5003,-6.4003,0.0,-6.1762,-6.1633,-6.1583,-6.0221,-5.9583,-5.9156,-5.8554,-5.6897,-5.5089,-5.4285,-5.3507,-5.3155,-5.411,-5.5013,-5.6018,-5.7449,-5.8932,-6.1256,-6.5673,-6.7652,-7.0435,-7.629,-7.81,-7.9567,-8.211,-8.3277,-8.4325,-8.5521,-8.6509,-8.6689,-8.5521,-8.6808,-8.8125,-8.9023,-8.9082,-8.8813,-8.8155,-8.7856,-8.7526,-8.7137,-8.6838,-8.6359,-8.5731,-8.5043,-8.4384,-8.3756,-8.2439,-8.1781,-8.1781,-8.1123,-8.0614,-8.0225,-7.9956,-7.9387,-7.8579,-7.7352,-7.6634,-7.6215,-7.5258,-7.4869,-7.4869,-7.4869,-7.4869,-7.4869,-7.4869,-7.4629,-7.427,0.0,0.0,0.0,-4.3714,-4.4618,-4.5296,-4.5472,-4.5949,-4.6502,-4.7054,-4.7456,-4.7631,-4.7481,-4.6502,-4.5748,-4.5522,-4.5849,-4.7431,-5.0594,-5.2151,-5.416,-5.6922,-5.7725,-5.8353,-5.8805,-5.9408,-6.006,-6.0788,-6.1768,-6.2521,-6.3073,-6.3224,-6.3877,-6.4931,-6.4931,-6.576,-6.7166,-6.6764,-6.6965,-6.7543,-6.7141,-6.701,-6.7137,-6.7581,-6.6424,-6.4595,-6.5491,-6.427,-6.2153,-6.1661,-6.1324,-6.1032,-6.0046,-5.8959,-5.8152,-5.8227,-5.6394,-5.4235,-5.3808,-5.3658,-5.3934,-5.529,-5.657,-5.8027,-5.996,-6.116,-6.3389,-6.8579,-7.0481,-7.3111,-7.9219,-8.0883,-8.1991,-8.3965,-8.4833,-8.5492,-8.615,-8.6329,-8.5611,-8.3457,-8.3547,-8.4354,-8.5821,-8.7287,-8.7856,-8.7197,-8.7496,-8.7407,-8.6718,-8.6689,-8.6359,-8.5731,-8.5222,-8.4594,-8.3756,-8.2798,-8.223,-8.205,-8.1572,-8.1003,-8.0345,-7.9986,-7.9178,-7.8041,-7.7382,-7.6754,-7.6125,-7.5437,-7.5048,-7.4869,-7.4869,-7.4869,-7.4869,-7.4869,-7.4569,-7.4151,0.0,0.0,0.0,0.0,-4.4267,-4.4844,-4.5397,-4.5949,-4.6502,-4.7054,-4.7093,-4.6954,-4.6426,-4.5347,-4.4895,-4.5447,-4.5497,-4.6677,-4.9464,-5.1699,-5.416,-5.6922,-5.8102,-5.9458,-6.104,-6.0563,-6.0839,-6.1943,-6.2521,-6.3099,-6.3676,-6.4178,-6.5007,-6.6061,-6.6061,-6.6689,-6.7769,-6.7769,-6.7467,-6.699,-6.699,-6.7103,-6.7077,-6.5241,-6.4679,-6.4988,-6.624,-6.3179,-5.8975,-6.1315,-5.9842,-5.7466,-5.9699,-5.9602,-5.8478,-5.7399,-5.5491,-5.3733,-5.3708,-5.4486,-5.544,-5.6043,-5.7449,-5.9382,-6.2119,-6.4314,-6.7266,-7.2299,-7.4988,-7.7449,-8.1048,-8.226,-8.3337,-8.5312,-8.618,-8.6868,-8.7556,-8.6539,-8.4773,-8.214,-8.0165,-7.9028,-7.9088,-8.3726,-8.6449,-8.5791,-8.6958,-8.7407,-8.6718,-8.6689,-8.6359,-8.5731,-8.5671,-8.5043,-8.3756,-8.3696,-8.3367,-8.2739,-8.2709,-8.235,-8.1691,-8.0405,-7.9417,-7.8729,-7.8071,-7.7412,-7.6754,-7.6125,-7.5497,-7.4869,-7.4869,-7.4869,-7.4869,-7.4869,-7.4869,-7.4749,0.0,0.0,0.0,0.0,0.0,-4.5121,-4.4945,-4.5698,-4.6376,-4.6577,-4.6602,0.0,0.0,0.0,0.0,0.0,-4.6693,-4.8223,-5.0006,-5.247,-5.4484,-5.5915,-5.7374,-5.8604,-5.9533,-6.0437,-6.1266,-6.1994,-6.2546,-6.2923,-6.3124,-6.3701,-6.4329,-6.5057,-6.5785,-6.6739,-6.7769,-6.7417,-6.7367,-6.748,-6.7195,-6.7477,-6.7956,-6.7886,-6.6594,-6.4894,0.0,-6.36,-6.0159,-6.0347,-5.932,-5.8076,-5.8159,-5.7152,-5.5742,-5.4637,-5.4285,-5.4361,-5.4712,-5.5641,-5.6972,-5.9006,-6.0487,-6.2345,-6.5792,-6.7415,-6.9321,-7.3493,-7.4468,-7.5475,-7.801,-7.9028,-8.0405,-8.3277,-8.4654,-8.5761,-8.6868,-8.6629,-8.4384,-7.9118,-7.9477,-7.8908,-7.5856,-7.9118,-8.208,-8.3636,-8.4983,-8.5821,-8.6,-8.6449,-8.618,-8.5073,-8.5043,-8.4205,-8.2469,-8.2439,-8.211,-8.1452,-8.1003,-8.0704,-8.0434,-7.9537,-7.8998,-7.8729,-7.7622,-7.7023,-7.6754,-7.5677,-7.5078,-7.4869,-7.4869,-7.4869,-7.4869,-7.4869,-7.4599,-7.4121,0.0,0.0,0.0,0.0,0.0,0.0,0.0,0.0,0.0,0.0,0.0,0.0,0.0,0.0,0.0,0.0,0.0,-4.8257,-5.0205,-5.21,-5.404,-5.6029,-5.761,-5.888,-5.9865,-6.0556,-6.112,-6.14,-6.1382,-6.1366,-6.1366,-6.1943,-6.2697,-6.3708,-6.5028,-6.6405,-6.7605,-6.7777,-6.7847,-6.793,-6.7217,-6.7121,-6.7386,-6.7214,-6.5923,0.0,-6.3921,-6.2115,-5.987,-6.0033,-5.9371,-5.8383,-5.7347,-5.5637,-5.3884,-5.3356,-5.3984,-5.5013,-5.5767,-5.7223,-5.9031,-6.1215,-6.3499,-6.5909,-6.8445,-7.0368,-7.2072,-7.3907,-7.4241,-7.4408,-7.522,-7.5976,-7.7412,-8.0494,-8.211,-8.3666,-8.5701,-8.4953,-8.2559,-7.8071,-7.7801,-7.6904,-7.4151,-7.5796,-7.843,-8.1811,-8.3487,-8.4654,-8.5312,-8.597,-8.5821,-8.4743,-8.4714,-8.3786,-8.1811,-8.202,-8.1691,-8.0794,-8.0135,-7.9806,-7.9806,-7.9118,-7.8789,-7.8729,-7.7891,-7.7263,-7.6754,-7.5916,-7.5288,-7.4869,-7.4869,-7.4869,-7.4869,-7.4869,-7.43,-7.3492,0.0,0.0,0.0,0.0,0.0,0.0,0.0,0.0,0.0,0.0,0.0,0.0,0.0,0.0,0.0,0.0,0.0,0.0,-4.9996,-5.0748,-5.2925,-5.7132,-5.8509,-6.0015,-6.1767,-6.0936,-6.0395,-6.0349,-5.9306,-5.8807,-5.868,-5.9336,-6.0445,-6.2038,-6.3961,-6.5633,-6.7136,-6.8411,-6.8606,-6.8024,-6.6715,-6.6018,-6.5564,-6.3579,-6.301,-6.2929,-6.0954,-5.9141,-5.806,-6.0215,-5.9767,-5.8104,-5.7003,-5.4944,-5.3005,-5.3607,-5.4587,-5.5742,-5.6922,-5.9257,-6.1697,-6.2834,-6.6387,-6.9704,-7.021,-7.2992,-7.511,-7.374,-7.405,-7.4121,-7.2864,-7.3163,-7.454,-7.7322,-7.8938,-8.1033,-8.4354,-8.214,-7.9836,-7.8938,-7.5647,-7.3582,-7.4001,-7.4121,-7.6006,-8.0464,-8.2559,-8.3936,-8.4684,-8.5342,-8.5402,-8.4743,-8.4684,-8.3726,-8.1751,-8.229,-8.1931,-8.0704,-8.0075,-7.9776,-7.9746,-7.9088,-7.8789,-7.8789,-7.8729,-7.7981,-7.6814,-7.6754,-7.6006,-7.4869,-7.4869,-7.4869,-7.4869,-7.4839,-7.4001,-7.2924,0.0,0.0,0.0,0.0,0.0,0.0,0.0,0.0,0.0,0.0,0.0,0.0,0.0,0.0,0.0,0.0,0.0,0.0,-4.9475,-5.112,-5.2943,-5.4974,-5.7001,-5.8502,-5.9342,-6.0416,-6.0307,-5.9068,-5.9977,-5.9775,-5.8641,-6.0358,-6.1434,-6.1916,-6.3234,-6.4073,-6.4405,-6.4782,-6.4563,-6.4067,-6.3823,-6.4349,-6.5101,-6.408,-6.407,-6.4336,-6.2839,-6.0347,-5.7801,-5.8348,-5.6999,-5.4638,-5.271,-5.2205,-5.2653,-5.4436,-5.5742,-5.7123,-5.9483,-6.1843,-6.419,-6.6447,-6.8835,-7.1109,-7.3097,-7.3378,-7.3255,-7.3083,-7.1308,-6.9482,-6.8645,-6.9453,-7.1757,-7.6335,-7.9028,-8.1871,-8.5641,-8.5462,-8.3576,-7.9986,-7.9956,-7.9148,-7.6365,-7.6963,-7.846,-8.0644,-8.1721,-8.2978,-8.4624,-8.5342,-8.5402,-8.4743,-8.4235,-8.3038,-8.1063,-8.0225,-7.9627,-7.9297,-7.9118,-7.9058,-7.9058,-7.8878,-7.8789,-7.8729,-7.7741,-7.7143,-7.6754,-7.5766,-7.5168,-7.4869,-7.4869,-7.4869,-7.4809,-7.433,-7.3612,-7.2834,0.0,0.0,0.0,0.0,0.0,0.0,0.0,0.0,0.0,0.0,0.0,0.0,0.0,0.0,0.0,0.0,0.0,0.0,0.0,-5.0661,-5.2515,-5.4428,-5.6957,-5.8734,-5.9647,-6.0435,-6.0385,-5.9402,-5.9287,-5.8783,-5.7946,-5.8837,-5.9534,-6.0082,-6.1503,-6.2448,-6.2922,-6.347,-6.3553,0.0,0.0,-6.3243,-6.372,-6.3624,-6.3647,-6.3647,-6.2899,-6.0238,-5.6855,-5.5682,-5.4763,-5.4038,-5.3782,-5.413,-5.5039,-5.6972,-5.8353,-5.9759,-6.2295,-6.5187,-6.7835,-6.9289,-7.1796,-7.3854,-7.3821,-7.3429,-7.2599,-7.0688,-6.8615,-6.6729,-6.5503,-6.661,-6.9123,-7.3522,-7.6724,-8.0135,-8.4354,-8.4953,-8.4115,-8.1811,-8.226,-8.1781,-7.9238,-7.9656,-8.0644,-8.1991,-8.1901,-8.2649,-8.4624,-8.5342,-8.5402,-8.4743,-8.4085,-8.2798,-8.0823,-7.9776,-7.9088,-7.8789,-7.8789,-7.8789,-7.8789,-7.8789,-7.8789,-7.8729,-7.7711,-7.7083,-7.6754,-7.5736,-7.5138,-7.4869,-7.4869,-7.4869,-7.4839,-7.445,-7.3732,-7.2864,0.0,0.0,0.0,0.0,0.0,0.0,0.0,0.0,0.0,0.0,-4.4187,-4.4333,0.0,0.0,0.0,0.0,0.0,0.0,0.0,0.0,-5.185,-5.4777,-5.7492,-5.9538,-6.0954,-6.0794,-6.0576,-6.022,-5.8466,-5.7416,-5.7203,-5.686,-5.7171,-5.8084,-5.9743,-6.0952,-6.1877,-6.2913,-6.3408,-6.3438,-6.2899,-6.245,-6.2151,0.0,-6.266,-6.2154,-6.1634,-5.9126,-5.5717,-5.3284,-5.3391,-5.4904,-5.7128,-5.7965,-5.8579,-6.0362,-6.1667,-6.3023,-6.5157,-6.8544,-7.1481,-7.1491,-7.435,-7.6425,-7.3559,-7.2944,-7.1936,-6.7717,-6.6191,-6.5084,-6.3378,-6.4605,-6.7059,-7.0709,-7.3881,-7.7622,-8.2589,-8.3128,-8.3307,-8.4025,-8.3547,-8.2888,-8.223,-8.217,-8.2709,-8.4025,-8.2918,-8.2948,-8.4743,-8.5372,-8.5342,-8.4594,-8.3876,-8.2649,-8.0943,-8.0285,-7.9656,-7.9058,-7.9058,-7.8998,-7.8938,-7.8938,-7.8878,-7.8759,-7.81,-7.7442,-7.6784,-7.6155,-7.5497,-7.4869,-7.4869,-7.4869,-7.4869,-7.4779,-7.3971,-7.2894,0.0,0.0,0.0,0.0,0.0,0.0,0.0,0.0,0.0,0.0,-4.6283,-4.7031,0.0,0.0,0.0,0.0,0.0,0.0,0.0,0.0,0.0,-5.4751,-5.6845,-5.8683,-6.0266,-6.127,-6.0908,-5.8983,-5.9973,-5.9742,-5.8398,-5.9682,-6.0021,-5.9696,-6.0034,-5.9997,-5.9644,-5.9887,-6.0266,-6.0745,-6.0655,-6.1194,-6.2121,-6.2211,0.0,0.0,-5.9219,-5.6987,-5.5456,-5.4492,-5.4345,-5.4904,-5.6605,-5.8404,-6.0412,-6.2998,-6.453,-6.5785,-6.7568,-7.0236,-7.2744,-7.3376,-7.4328,-7.4802,-7.3882,-7.1291,-6.8465,-6.658,-6.4784,-6.3468,-6.3139,-6.4246,-6.6999,-7.2475,-7.4809,-7.828,-8.5043,-8.5073,-8.4833,-8.603,-8.5581,-8.4923,-8.4265,-8.4205,-8.4743,-8.606,-8.4953,-8.4594,-8.5492,-8.5641,-8.5132,-8.3936,-8.2739,-8.1961,-8.1601,-8.0943,-8.0584,-8.0464,-8.0464,-8.0165,-7.9627,-7.9627,-7.9327,-7.8759,-7.81,-7.7442,-7.6784,-7.6155,-7.5497,-7.4869,-7.4869,-7.4869,-7.4809,-7.427,-7.3582,-7.2834,0.0,0.0,0.0,0.0,0.0,0.0,0.0,-4.492,-4.5698,-4.7405,-4.9752,-5.0344,-4.7933,-4.9007,-4.9693,0.0,0.0,0.0,0.0,0.0,0.0,-5.3613,-5.6308,-5.8605,-6.057,-6.1912,-6.2047,-6.0998,0.0,-6.1243,-6.0468,-6.0886,-6.0954,-6.0625,-6.0625,-6.0236,-5.9638,-5.9997,-6.0116,-6.0146,-6.0864,-6.1523,-6.2121,-6.248,0.0,0.0,-5.9922,-5.8592,-5.8086,-5.7758,-5.8312,-5.9166,-5.9135,-6.0688,-6.2973,-6.5459,-6.6589,-6.7655,-7.0883,-7.3769,-7.613,-7.6745,-7.6579,-7.5635,-7.338,-6.9782,-6.649,-6.4814,-6.3737,-6.3079,-6.3079,-6.4425,-6.67,-7.0231,-7.2505,-7.6096,-8.2679,-8.3666,-8.4684,-8.7407,-8.7437,-8.6988,-8.6329,-8.594,-8.6,-8.6629,-8.609,-8.603,-8.6689,-8.5761,-8.4893,-8.4265,-8.2978,-8.211,-8.1781,-8.1452,-8.1153,-8.0794,-8.0794,-8.0644,-8.0315,-7.9986,-7.9627,-7.9267,-7.825,-7.7442,-7.6784,-7.6155,-7.5497,-7.4869,-7.4869,-7.4869,-7.4839,-7.451,-7.3762,-7.2864,0.0,0.0,0.0,0.0,0.0,0.0,-4.5723,-4.5974,-4.6828,-4.959,-5.2483,-5.2929,-4.924,-5.0547,-5.1363,0.0,0.0,0.0,0.0,0.0,0.0,0.0,0.0,0.0,-6.0538,0.0,0.0,-6.3079,-6.257,0.0,0.0,0.0,0.0,0.0,-6.1313,-6.0954,-6.0326,-6.0894,-6.0894,0.0,0.0,-6.2181,-6.2361,0.0,0.0,0.0,0.0,-6.0393,-6.0352,-6.044,-6.1449,-6.2517,-6.1984,-6.3491,-6.5723,-6.7089,-6.7945,-6.9409,-7.3651,-7.6715,-7.8958,-7.9301,-7.8134,-7.6036,-7.2475,-6.8405,-6.4934,-6.3378,-6.3079,-6.3079,-6.3079,-6.4336,-6.5951,-6.7687,-6.9692,-7.3283,-7.9686,-8.1601,-8.3876,-8.7975,-8.8484,-8.8274,-8.7766,-8.7077,-8.6748,-8.6868,-8.6898,-8.7077,-8.7467,-8.5731,-8.4714,-8.4714,-8.3427,-8.2529,-8.1991,-8.1991,-8.1721,-8.1212,-8.1212,-8.1153,-8.0973,-8.0345,-7.9956,-7.9746,-7.84,-7.7442,-7.6784,-7.6155,-7.5497,-7.4869,-7.4869,-7.4869,-7.4869,-7.4869,-7.4121,-7.3103,0.0,0.0,0.0,0.0,0.0,0.0,-4.5146,-4.6376,-4.7983,-5.077,-5.253,-5.3361,-5.2752,-5.5495,-5.6131,0.0,0.0,0.0,0.0,0.0,0.0,0.0,0.0,0.0,0.0,0.0,0.0,-6.3079,-6.3019,0.0,0.0,0.0,0.0,0.0,0.0,-6.1642,-6.1014,-6.1074,0.0,0.0,0.0,0.0,0.0,0.0,0.0,0.0,0.0,-6.0105,-5.9689,-6.0274,-6.0556,-6.0904,-6.2921,-6.5852,-6.8253,-6.6676,-6.8422,-7.1434,-7.4478,-7.6951,-7.8788,-7.922,-7.674,-7.3672,-7.1487,-6.7029,-6.3288,-6.3109,-6.3079,-6.3079,-6.3079,-6.3228,-6.4366,-6.7478,-6.8166,-7.1038,-7.8819,-8.0524,-8.2679,-8.7257,-8.7796,-8.7766,-8.7706,-8.7077,-8.6928,-8.7556,-8.7616,-8.7377,-8.6808,-8.5462,-8.4714,-8.4714,-8.3427,-8.2739,-8.2679,-8.2679,-8.2649,-8.2589,-8.2589,-8.226,-8.1661,-8.1003,-8.0375,-7.9746,-7.84,-7.7442,-7.6784,-7.6155,-7.5497,-7.4869,-7.4869,-7.4869,-7.4869,-7.4869,-7.442,-7.3732,0.0,0.0,0.0,0.0,0.0,0.0,-4.5497,-4.6351,-4.7883,-5.1322,-5.3771,-5.5317,-5.5551,-5.7507,-5.7549,-5.4598,0.0,0.0,0.0,0.0,0.0,0.0,0.0,0.0,0.0,0.0,-6.2211,-6.248,-6.2869,0.0,0.0,0.0,0.0,0.0,0.0,-6.2331,-6.1732,-6.2121,0.0,0.0,0.0,0.0,0.0,0.0,0.0,0.0,0.0,0.0,-6.1674,-6.1953,-6.255,-6.2967,-6.2061,-6.4259,-6.7079,-6.7064,-6.7857,-6.9994,-7.6376,-7.8934,-8.0131,-8.1571,-7.8166,-7.3851,-7.1457,-6.6849,-6.3079,-6.3079,-6.3079,-6.3079,-6.3079,-6.3079,-6.3498,-6.4814,-6.5024,-6.7089,-7.3073,-7.445,-7.7442,-8.4474,-8.5312,-8.609,-8.8095,-8.7676,-8.7227,-8.7107,-8.7077,-8.6808,-8.612,-8.5222,-8.4714,-8.4714,-8.3816,-8.3337,-8.3337,-8.3337,-8.3158,-8.2844,-8.2844,-8.2409,-8.1751,-8.1093,-8.0434,-7.9746,-7.84,-7.7442,-7.6784,-7.6155,-7.5497,-7.4869,-7.4869,-7.4869,-7.4869,-7.4869,-7.445,-7.3791,0.0,0.0,0.0,0.0,0.0,-4.2304,-4.5347,-4.61,-4.7531,-5.0921,-5.3284,-5.5024,-5.5961,-5.687,-5.6909,-5.5666,-5.4352,0.0,0.0,0.0,0.0,0.0,0.0,0.0,0.0,0.0,-6.1575,-6.2091,-6.275,-6.3079,0.0,0.0,-6.3079,-6.3079,0.0,0.0,0.0,0.0,0.0,0.0,0.0,0.0,0.0,0.0,0.0,0.0,0.0,0.0,0.0,0.0,0.0,-6.383,-6.1879,-6.2662,-6.451,-6.5716,-6.7256,-7.003,-7.7008,-8.0108,-8.1633,-8.2858,-7.8849,-7.3881,-7.1218,-6.655,-6.2839,-6.3049,-6.3079,-6.3079,-6.3079,-6.3079,-6.3079,-6.3079,-6.3079,-6.4545,-6.8794,-7.026,-7.3522,-8.0584,-8.1751,-8.3277,-8.6599,-8.7227,-8.7197,-8.6718,-8.6689,-8.6299,-8.5462,-8.5162,-8.4833,-8.4444,-8.3965,-8.3636,-8.3457,-8.3427,-8.3128,-8.2469,-8.2469,-8.211,-8.1482,-8.0823,-8.0255,-7.9746,-7.819,-7.7263,-7.6754,-7.5946,-7.5318,-7.4869,-7.4869,-7.4869,-7.4869,-7.4869,-7.4569,-7.4061,0.0,0.0,0.0,0.0,0.0,-4.2028,-4.4292,-4.5598,-4.7104,-4.9339,-5.0092,-5.1274,-5.3319,-5.3376,-5.4074,-5.608,-5.5619,0.0,0.0,0.0,0.0,0.0,0.0,0.0,0.0,0.0,-6.0355,-6.2091,-6.275,-6.3079,-6.3079,-6.3079,-6.3079,-6.3079,0.0,0.0,0.0,0.0,0.0,0.0,0.0,0.0,-6.3079,0.0,0.0,0.0,0.0,0.0,0.0,0.0,0.0,0.0,0.0,-6.1939,-6.0803,-6.1813,-6.6945,-7.2802,-7.5772,-7.9782,-8.2947,-8.2028,-7.7831,-7.3223,-7.053,-6.5862,-6.2301,-6.2929,-6.3079,-6.3079,-6.3079,-6.3079,-6.3079,-6.3079,-6.3079,-6.4216,-6.7537,-6.9662,-7.2176,-7.5587,-7.7113,-7.9178,-8.2499,-8.5162,-8.6689,-8.6689,-8.6689,-8.609,-8.4803,-8.5342,-8.5103,-8.3786,-8.3726,-8.3427,-8.2769,-8.2769,-8.2439,-8.1781,-8.1781,-8.1452,-8.0794,-8.0135,-7.9836,-7.9716,-7.7711,-7.6844,-7.6724,-7.5437,-7.4899,-7.4869,-7.4869,-7.4869,-7.4869,-7.4869,-7.4869,-7.4689,0.0,0.0,0.0,0.0,0.0,0.0,-4.4681,-4.7033,-4.8797,-4.9256,-5.0846,-5.2398,-5.3779,-5.2926,-5.3648,-5.7082,-5.6456,0.0,0.0,0.0,0.0,0.0,0.0,0.0,0.0,-5.8036,-5.9796,-6.0296,-6.217,-6.3079,-6.3079,-6.3079,-6.3079,-6.3079,-6.3079,-6.3079,0.0,0.0,0.0,0.0,0.0,-6.3079,-6.3079,0.0,0.0,0.0,0.0,0.0,0.0,0.0,0.0,0.0,0.0,0.0,0.0,-6.2694,-6.4498,-6.7424,-7.1886,-7.4379,-7.5808,-7.6248,-7.3432,-7.0081,-6.8315,-6.5233,-6.281,-6.3019,-6.3079,-6.3079,-6.3079,-6.3079,-6.3228,-6.3647,-6.3707,-6.4066,-6.5114,-6.8136,-7.1816,-7.6036,-8.208,-8.615,-8.6748,-8.7167,-8.7167,-8.6718,-8.627,-8.5821,-8.5402,-8.5162,-8.4624,-8.3756,-8.4175,-8.3876,-8.2769,-8.2844,-8.22,-8.1123,-8.1123,-8.0764,-8.0135,-7.9926,-7.9327,-7.837,-7.7293,-7.6604,-7.6125,-7.5258,-7.4869,-7.4869,-7.4869,-7.4869,-7.4869,-7.4869,-7.4869,-7.4689,0.0,0.0,0.0,0.0,0.0,0.0,-4.4679,-4.7162,-4.9036,-4.9096,-5.0002,-5.1312,-5.3075,-5.1619,-5.193,-5.5277,-5.5661,0.0,0.0,0.0,0.0,0.0,0.0,0.0,-5.5602,-5.716,-5.88,-6.0624,-6.2375,-6.3714,-6.4545,-6.4306,-6.3917,-6.3408,-6.3169,-6.3079,0.0,0.0,0.0,0.0,-6.3318,-6.3288,-6.3079,0.0,0.0,0.0,0.0,0.0,0.0,0.0,0.0,0.0,0.0,0.0,0.0,0.0,-6.3269,-6.4586,-6.9311,-7.1883,-7.3216,-7.3155,-7.1068,-6.8585,-6.6999,-6.4784,-6.3079,-6.3079,-6.3079,-6.3079,-6.3079,-6.3079,-6.3199,-6.3588,-6.3647,-6.3647,-6.3647,-6.7089,-7.1398,-7.6245,-8.2888,-8.6898,-8.6479,-8.6988,-8.7137,-8.6718,-8.6299,-8.5851,-8.5342,-8.5162,-8.4564,-8.3397,-8.3756,-8.3457,-8.2409,-8.214,-8.1482,-8.0434,-8.0434,-8.0075,-7.9417,-7.9178,-7.8609,-7.7771,-7.6874,-7.6275,0.0,-7.5168,-7.4869,-7.4869,-7.4869,-7.4869,-7.4869,-7.4869,-7.4869,-7.4719,0.0,0.0,0.0,0.0,0.0,0.0,0.0,-4.664,-4.8492,-4.9049,-4.8295,-4.8716,-5.125,-4.9646,-4.9252,-5.1435,-5.3518,0.0,0.0,0.0,0.0,0.0,0.0,0.0,-5.6209,-5.5784,-5.7721,-6.2073,-6.2928,-6.4472,-6.6635,-6.61,-6.5203,-6.3977,-6.3348,-6.3079,-6.3109,-6.3677,-6.3588,-6.3139,-6.3707,-6.3588,0.0,0.0,0.0,0.0,0.0,0.0,0.0,0.0,0.0,0.0,0.0,0.0,0.0,0.0,0.0,0.0,0.0,-7.1218,-7.3582,-7.1727,-6.9901,-6.8106,-6.6221,-6.4395,0.0,-6.3079,-6.3079,-6.3079,-6.3079,-6.3079,-6.3079,-6.3139,-6.3139,-6.3139,-6.3139,-6.6819,-7.1427,-7.6694,-8.0794,-8.3128,-8.2978,-8.5252,-8.6718,-8.6689,-8.6629,-8.609,-8.4863,-8.5282,-8.4684,-8.2904,-8.2679,-8.232,-8.1721,-8.1063,-8.0405,-7.9746,-7.9746,-7.9387,-7.8699,-7.81,-7.7771,-7.7622,-7.6425,-7.5886,-7.5766,-7.5138,-7.4869,-7.4869,-7.4869,-7.4869,-7.4869,-7.4869,-7.4869,-7.4779,0.0,0.0,0.0,0.0,0.0,0.0,0.0,0.0,0.0,0.0,-5.0514,-4.9788,-4.9329,-4.7785,-4.7709,0.0,0.0,0.0,0.0,0.0,0.0,0.0,0.0,0.0,-5.6093,-5.693,-5.753,-5.7767,-6.0617,-6.2423,-6.3433,-6.4128,-6.4306,-6.3977,-6.3348,-6.3079,-6.3079,-6.3228,-6.3199,-6.3079,-6.3228,-6.3199,0.0,0.0,0.0,0.0,-6.3079,-6.3079,0.0,0.0,0.0,0.0,0.0,0.0,0.0,0.0,-6.269,-6.3169,-6.3588,0.0,-6.5742,-6.5263,-6.4814,-6.4336,0.0,-6.3408,-6.3079,-6.3079,-6.3079,-6.3079,-6.3079,-6.3079,-6.3228,-6.3707,-6.3767,-6.3767,-6.3767,-6.9842,-7.6245,-8.1482,-8.5192,-8.6689,-8.5162,-8.6479,-8.7257,-8.6718,-8.621,-8.5791,-8.5492,-8.4654,-8.3756,-8.2798,-8.1781,-8.1183,-8.1033,-8.0375,-7.9716,-7.9028,-7.9028,-7.8669,-7.8041,-7.7891,-7.7263,-7.6335,-7.6036,-7.5617,-7.5108,-7.4929,-7.4869,-7.4869,-7.4869,-7.4869,-7.4869,-7.4869,-7.4869,-7.4779,0.0,0.0,0.0,0.0,0.0,0.0,0.0,0.0,0.0,0.0,-5.1758,-5.0958,-5.0056,-4.8367,-4.7589,0.0,0.0,0.0,0.0,0.0,0.0,0.0,-5.8867,-5.8251,-5.7608,-5.7039,-5.7331,-5.8427,-6.0607,-6.2345,-6.3769,-6.5192,-6.5323,-6.4425,-6.3498,-6.3079,-6.3109,-6.3707,-6.3797,-6.3528,-6.3857,0.0,0.0,0.0,0.0,0.0,-6.3079,-6.3079,0.0,-6.3079,-6.3079,-6.3019,0.0,0.0,0.0,0.0,-6.1912,-6.2181,-6.2121,-6.257,-6.3079,-6.3079,-6.3079,-6.3079,-6.3079,-6.3079,-6.3079,-6.3079,-6.3079,-6.3079,-6.3079,-6.3079,-6.3199,-6.3528,-6.3588,-6.4425,-6.6819,-7.2206,-7.7861,-8.3098,-8.5851,-8.7137,-8.6659,-8.6988,-8.7077,-8.6689,-8.606,-8.5551,-8.5252,-8.4295,-8.3307,-8.235,-8.1332,-8.0644,-8.0345,-7.9686,-7.9148,-7.8789,-7.8789,-7.846,-7.7801,-7.7502,-7.6814,-7.5886,-7.5557,-7.5228,-7.4869,-7.4869,-7.4869,-7.4869,-7.4869,-7.4869,-7.4869,-7.4869,-7.4869,-7.4839,0.0,0.0,0.0,0.0,0.0,0.0,0.0,0.0,0.0,0.0,0.0,0.0,0.0,0.0,0.0,0.0,0.0,0.0,0.0,0.0,0.0,0.0,-5.9271,-5.9043,-5.9326,-5.7022,-5.7273,-6.0309,-6.1063,-6.2693,-6.5179,-6.6794,-6.6604,-6.4814,-6.3827,-6.3318,-6.3288,-6.4395,-6.4605,-6.4216,-6.4784,0.0,0.0,0.0,0.0,0.0,0.0,0.0,0.0,-6.3079,-6.3079,-6.2959,-6.2301,0.0,0.0,0.0,0.0,0.0,-6.1822,-6.2308,-6.2759,-6.3021,-6.3079,-6.3079,-6.3079,-6.3079,-6.3079,-6.3079,-6.3079,-6.3079,-6.3079,-6.3079,-6.3139,-6.3348,-6.3707,-6.5802,-7.1068,-7.451,-7.831,-8.3158,-8.5073,-8.6329,-8.7167,-8.6808,-8.6569,-8.6659,-8.597,-8.5312,-8.4743,-8.4085,-8.3098,-8.1691,-8.1093,-8.0434,-7.9656,-7.9088,-7.8789,-7.8789,-7.8699,-7.831,-7.7622,-7.6993,-7.6335,-7.5707,-7.5138,-7.4869,-7.4869,-7.4869,-7.4869,-7.4869,-7.4869,-7.4869,-7.4869,-7.4869,-7.4869,-7.4869,0.0,0.0,0.0,0.0,0.0,0.0,0.0,0.0,0.0,0.0,0.0,0.0,0.0,0.0,0.0,0.0,0.0,0.0,0.0,0.0,0.0,-5.9194,-6.0194,-6.0027,-5.8693,-5.7958,-5.7608,-5.7701,-5.8791,-6.0901,-6.3926,-6.4965,-6.5007,-6.4186,-6.4545,-6.4395,-6.3857,-6.4066,-6.4425,-6.4874,-6.4994,0.0,0.0,0.0,0.0,0.0,0.0,0.0,0.0,-6.3079,-6.3079,-6.2959,-6.2301,0.0,0.0,0.0,0.0,0.0,-6.1373,-6.1056,-6.1258,-6.273,-6.3079,-6.3079,-6.3079,-6.3079,-6.3079,-6.3079,-6.3079,-6.3079,-6.3079,-6.3079,-6.3438,-6.4545,-6.661,-6.9931,-7.5168,-7.7831,-8.0345,-8.3367,-8.591,-8.6808,-8.5312,-8.5581,-8.609,-8.6629,-8.5551,-8.4833,-8.4714,-8.4085,-8.2888,-8.1003,-8.0853,-8.0195,-7.8968,-7.8849,-7.8789,-7.8789,-7.822,-7.7622,-7.6963,-7.6335,-7.5677,-7.5018,-7.4929,-7.4869,-7.4869,-7.4869,-7.4869,-7.4869,-7.4869,-7.4869,-7.4869,-7.4869,-7.4869,-7.4809,0.0,0.0,0.0,0.0,0.0,0.0,0.0,0.0,0.0,0.0,0.0,0.0,0.0,0.0,0.0,0.0,0.0,0.0,0.0,-5.4457,-5.6186,-5.7767,-5.8783,-5.9444,-5.9911,-5.8884,-5.8636,-5.9386,-6.0235,-6.1562,-6.328,-6.4375,-6.4983,-6.5054,-6.4306,-6.3797,-6.3558,-6.4246,-6.4755,-6.4994,0.0,0.0,0.0,0.0,0.0,0.0,0.0,0.0,0.0,0.0,-6.3079,-6.2899,-6.1882,0.0,0.0,0.0,0.0,0.0,-6.1014,-6.0294,-5.9764,-6.135,-6.1019,-6.0511,-6.1116,-6.1468,-6.1969,-6.2875,-6.3079,-6.3079,-6.3079,-6.3947,-6.5443,-6.7807,-7.0739,-7.3702,-7.6455,-7.8849,-8.1183,-8.3457,-8.5132,-8.5881,-8.5282,-8.5521,-8.5671,-8.5611,-8.4714,-8.4175,-8.4175,-8.3576,-8.2469,-8.0853,-8.0794,-8.0165,-7.8789,-7.8789,-7.8789,-7.8789,-7.813,-7.7472,-7.6814,-7.6185,-7.5527,-7.4869,-7.4869,-7.4869,-7.4869,-7.4869,-7.4869,-7.4869,-7.4869,-7.4869,-7.4869,-7.4869,-7.4869,-7.4779,0.0,0.0,0.0,0.0,0.0,0.0,0.0,0.0,0.0,0.0,0.0,0.0,0.0,0.0,0.0,0.0,0.0,0.0,0.0,-5.3571,-5.4934,-5.619,-5.7265,-5.9103,-6.1758,-6.0059,-6.0512,-6.3122,-6.3231,-6.3676,-6.4501,-6.5167,-6.5799,-6.6161,-6.4336,-6.3438,-6.3348,-6.4366,-6.4964,-6.5293,0.0,0.0,0.0,0.0,0.0,0.0,0.0,0.0,0.0,0.0,0.0,0.0,0.0,0.0,0.0,-5.9488,-5.9219,-5.9608,-6.0775,-5.9971,-5.8862,-5.9537,-5.8896,-5.8265,-5.9399,-5.9957,-6.0847,-6.2765,-6.3002,-6.2971,-6.326,-6.5173,-6.7687,-7.0649,-7.421,-7.7023,-7.828,-8.0464,-8.2559,-8.4235,-8.5013,-8.5492,-8.5671,-8.5551,-8.5252,-8.4743,-8.3816,-8.3427,-8.3726,-8.2828,-8.1841,-8.0823,-8.0644,-8.0016,-7.8789,-7.8639,-7.8549,-7.8549,-7.7891,-7.7233,-7.6604,-7.5946,-7.5377,-7.4869,-7.4869,-7.4869,-7.4869,-7.4869,-7.4869,-7.4869,-7.4869,-7.4869,-7.4869,-7.4869,-7.4869,-7.4809,0.0,0.0,0.0,0.0,0.0,0.0,0.0,0.0,0.0,0.0,0.0,0.0,0.0,0.0,0.0,0.0,0.0,0.0,0.0,-5.3788,-5.4442,-5.458,-5.6979,-6.0068,-6.3792,-6.1911,-6.343,-6.8659,-6.7175,-6.734,-6.8935,-6.8103,-6.7378,-6.6849,-6.5503,-6.4545,-6.3947,-6.4036,-6.4784,-6.5951,-6.5981,0.0,0.0,0.0,0.0,0.0,0.0,0.0,0.0,0.0,0.0,0.0,0.0,0.0,-6.0864,-5.9488,-5.9548,-6.0176,-6.0924,-6.0294,-5.9142,-5.7741,-5.7716,-5.8281,-5.9395,-5.9607,-6.0348,-6.2698,-6.2697,-6.2616,-6.3742,-6.658,-6.9453,-7.1487,-7.5617,-7.9656,-8.2798,-8.4444,-8.5611,-8.6359,-8.7077,-8.7018,-8.5821,-8.5132,-8.4773,-8.4714,-8.2978,-8.2439,-8.3666,-8.1961,-8.0883,-8.0794,-8.0225,-7.9537,-7.8789,-7.819,-7.7891,-7.7861,-7.7203,-7.6574,-7.5946,-7.5258,-7.4929,-7.4869,-7.4869,-7.4869,-7.4869,-7.4869,-7.4869,-7.4869,-7.4869,-7.4869,-7.4869,-7.4869,-7.4869,-7.4869,0.0,0.0,0.0,0.0,0.0,0.0,0.0,0.0,0.0,0.0,0.0,0.0,0.0,0.0,0.0,0.0,0.0,0.0,-5.0306,-5.2514,-5.3604,-5.327,-5.5915,-5.9295,-6.3491,-6.3297,-6.5209,-6.95,-6.918,-6.9633,-7.0656,-6.7028,-6.5526,-6.5712,-6.4395,-6.3677,-6.3468,-6.4306,-6.4934,-6.5473,-6.6281,-6.6131,0.0,0.0,0.0,0.0,0.0,0.0,0.0,0.0,-6.2271,-6.2271,-6.1104,-6.0894,-6.0924,-5.9997,-5.9877,-6.0236,-6.0924,-6.0323,-5.9197,-5.8001,-5.705,-5.6739,-5.8201,-5.8802,-6.0335,-6.4548,-6.5257,-6.5499,-6.6838,-6.8794,-7.1098,-7.3941,-7.7921,-8.1512,-8.3995,-8.5132,-8.594,-8.6599,-8.6898,-8.6539,-8.5222,-8.4504,-8.3936,-8.3547,-8.205,-8.1572,-8.2469,-8.1422,-8.0614,-8.0195,-7.9956,-7.9297,-7.819,-7.7921,-7.7412,-7.6634,-7.6365,-7.6125,-7.5886,-7.5198,-7.4869,-7.4869,-7.4869,-7.4869,-7.4869,-7.4869,-7.4869,-7.4869,-7.4869,-7.4869,-7.4869,-7.4869,-7.4869,-7.4869,0.0,0.0,0.0,0.0,0.0,0.0,0.0,0.0,0.0,0.0,0.0,0.0,0.0,0.0,0.0,0.0,0.0,0.0,-4.9391,-5.191,-5.3006,-5.2128,-5.5197,-5.8369,-6.1408,-6.4201,-6.7495,-7.1364,-7.1871,-7.1622,-7.061,-6.6622,-6.5041,-6.5369,-6.3771,-6.3528,-6.4306,-6.4395,-6.4755,-6.5413,-6.6101,-6.5951,0.0,0.0,0.0,0.0,0.0,0.0,0.0,0.0,-6.1912,-6.1912,-6.0835,-6.0625,-6.0655,-5.9967,-5.9638,-5.9668,-6.0535,-5.9883,-5.8682,-5.766,-5.6428,-5.5826,-5.7562,-5.8336,-6.0426,-6.6314,-6.762,-6.8071,-6.9108,-7.0171,-7.1996,-7.5377,-7.9208,-8.2469,-8.4444,-8.5282,-8.5791,-8.603,-8.624,-8.5761,-8.4235,-8.3696,-8.3068,-8.22,-8.1123,-8.0764,-8.1452,-8.0644,-8.0075,-7.9836,-7.9417,-7.8729,-7.7831,-7.7412,-7.6784,-7.5916,-7.5677,-7.5587,-7.5557,-7.5078,-7.4869,-7.4869,-7.4869,-7.4869,-7.4869,-7.4869,-7.4869,-7.4869,-7.4869,-7.4869,-7.4869,-7.4869,-7.4869,-7.4869,0.0,0.0,0.0,0.0,0.0,0.0,0.0,0.0,0.0,0.0,0.0,0.0,0.0,0.0,0.0,0.0,0.0,0.0,-5.0499,-5.2276,-5.2684,-5.1118,-5.5141,-5.7517,-5.7732,-6.4614,-7.0351,-7.4899,-7.5481,-7.3378,-6.8852,-6.7507,-6.6662,-6.6244,-6.4038,-6.4545,-6.6789,-6.4186,-6.4216,-6.5951,-6.5293,-6.5413,-6.5951,0.0,0.0,0.0,0.0,0.0,0.0,0.0,-6.1553,-6.1732,-5.9727,-5.9548,-5.9967,-5.9308,-5.865,-5.8441,-5.9757,-5.8914,-5.7394,-5.6437,-5.5861,-5.583,-5.7567,-5.8328,-6.066,-6.7579,-6.9517,-6.9991,-7.0021,-7.053,-7.2026,-7.5377,-7.9208,-8.2439,-8.4444,-8.5252,-8.5432,-8.4803,-8.5282,-8.4893,-8.2948,-8.2814,-8.22,-8.0883,-8.0195,-8.0105,-8.0764,-7.9507,-7.9088,-7.9776,-7.8489,-7.7801,-7.7801,-7.6544,-7.5916,-7.5886,-7.5198,-7.4869,-7.4869,-7.4869,-7.4869,-7.4869,-7.4869,-7.4869,-7.4869,-7.4869,-7.4869,-7.4869,-7.4869,-7.4869,-7.4869,-7.4869,-7.4869,-7.4869,0.0,0.0,0.0,0.0,0.0,0.0,0.0,0.0,0.0,0.0,0.0,0.0,0.0,0.0,0.0,0.0,0.0,0.0,-5.1142,-5.3492,-5.4118,-5.2174,-5.6247,-5.8641,-5.8691,-6.3944,-6.9565,-7.5587,-7.5247,-7.2143,-6.6418,-6.4436,-6.331,-6.2996,-6.3076,-6.3791,-6.4874,-6.4575,-6.4784,-6.5293,-6.5114,-6.5413,-6.5892,0.0,0.0,0.0,0.0,0.0,0.0,0.0,0.0,0.0,-6.0146,-5.9937,-6.0146,-6.0446,-6.0386,-6.0416,-6.1283,-6.1124,-6.0355,-5.8466,-5.8181,-5.8442,-5.8906,-5.8855,-6.1146,-6.979,-7.2937,-7.4001,-7.3522,-7.3193,-7.3642,-7.5587,-7.843,-8.1242,-8.3696,-8.4205,-8.4414,-8.4684,-8.4474,-8.3906,-8.2858,-8.1931,-8.1212,-8.0823,-7.9746,-7.9387,-8.0075,-7.8849,-7.819,-7.84,-7.7562,-7.6904,-7.6485,-7.6096,-7.5647,-7.5168,-7.4988,-7.4869,-7.4869,-7.4869,-7.4869,-7.4869,-7.4869,-7.4869,-7.4869,-7.4869,-7.4869,-7.4869,-7.4869,-7.4869,-7.4869,-7.4869,-7.4869,-7.4869,0.0,0.0,0.0,0.0,0.0,0.0,0.0,0.0,0.0,0.0,-5.4162,-5.5592,0.0,0.0,0.0,0.0,0.0,0.0,-5.2641,-5.4483,-5.5137,-5.3895,-5.6929,-5.9458,-6.1014,-6.5084,-6.8764,-7.1966,-7.2847,-7.0322,-6.464,-6.4205,-6.3819,-6.3452,-6.4332,-6.5285,-6.634,-6.5951,-6.5652,-6.5383,-6.5144,-6.5413,-6.5892,0.0,0.0,0.0,0.0,0.0,0.0,0.0,0.0,0.0,-5.9997,-5.9877,-6.0057,-5.9967,-6.0116,-6.0356,-6.0475,-5.9905,-5.9302,-5.9516,-5.8707,-5.8298,-5.9794,-6.2186,-6.5918,-7.2608,-7.5097,-7.6145,-7.6404,-7.5467,-7.5138,-7.6455,-7.843,-8.0464,-8.232,-8.3008,-8.3307,-8.3187,-8.3277,-8.2888,-8.1691,-8.0883,-8.0285,-8.0016,-7.9238,-7.8849,-7.9028,-7.825,-7.7682,-7.7442,-7.6784,-7.6275,-7.5916,-7.5647,-7.5288,-7.4869,-7.4869,-7.4869,-7.4869,-7.4869,-7.4869,-7.4869,-7.4869,-7.4869,-7.4869,-7.4869,-7.4869,-7.4869,-7.4869,-7.4869,-7.4869,-7.4869,-7.4869,-7.4869,0.0,0.0,-5.836,-5.8295,0.0,0.0,0.0,0.0,0.0,0.0,-5.2729,-5.4362,0.0,0.0,0.0,0.0,0.0,0.0,0.0,-5.5624,-5.607,-5.6016,-5.7453,-5.9997,-6.3647,-6.6789,-6.7478,-6.5652,-6.9064,-6.8181,-6.3284,-6.5655,-6.6547,-6.6322,-6.6749,-6.7969,-6.9662,-6.7717,-6.652,-6.5862,-6.5323,-6.5503,-6.6011,-6.5293,0.0,0.0,0.0,0.0,0.0,0.0,0.0,0.0,-5.9668,-5.9668,-5.9877,-5.88,-5.883,-5.9099,-5.868,-5.7138,-5.6484,-6.0123,-5.8602,-5.7169,-6.0767,-6.679,-7.2399,-7.5323,-7.6135,-7.6873,-7.8606,-7.7382,-7.6544,-7.7711,-7.8968,-8.0045,-8.0704,-8.1841,-8.214,-8.0943,-8.1811,-8.1781,-7.9986,-7.9746,-7.9447,-7.8759,-7.8699,-7.84,-7.7741,-7.7682,-7.7352,-7.6754,-7.6125,-7.5826,-7.5826,-7.5198,-7.4869,-7.4869,-7.4869,-7.4869,-7.4869,-7.4869,-7.4869,-7.4869,-7.4869,-7.4869,-7.4869,-7.4869,-7.4869,-7.4869,-7.4869,-7.4869,-7.4869,-7.4869,-7.4869,-7.4869,0.0,0.0,-6.0353,-6.0349,0.0,0.0,0.0,0.0,0.0,0.0,0.0,0.0,0.0,-5.8287,0.0,0.0,0.0,0.0,0.0,-5.8627,-5.8585,-5.734,-5.8807,-6.0326,-6.1702,-6.2959,-6.3378,-6.2929,-6.7268,-6.655,-6.1232,-6.4131,-6.5548,-6.5687,-6.6614,-6.7538,-6.8315,-6.6849,-6.5832,-6.5263,-6.5652,-6.6191,-6.664,-6.5473,-6.4934,0.0,0.0,0.0,0.0,0.0,0.0,0.0,-6.0775,-6.0416,-6.0236,-6.1014,-6.0595,-6.0176,-6.1613,-6.1337,-6.1058,-6.3034,-6.3222,-6.3182,-6.4215,-6.6313,-6.9231,-7.3267,-7.5808,-7.7798,-7.9321,-7.8819,-7.825,-7.8519,-7.9267,-8.0045,-8.0704,-8.1033,-8.1123,-8.0823,-8.0584,-8.0285,-7.9866,-7.9327,-7.8729,-7.8071,-7.8011,-7.7741,-7.7083,-7.6574,-7.6245,-7.6125,-7.5437,-7.5108,-7.5108,-7.4958,-7.4869,-7.4869,-7.4869,-7.4869,-7.4869,-7.4869,-7.4869,-7.4869,-7.4869,-7.4869,-7.4869,-7.4869,-7.4869,-7.4869,-7.4869,-7.4869,-7.4869,-7.4869,-7.4869,-7.4869,0.0,0.0,0.0,0.0,0.0,0.0,0.0,0.0,0.0,0.0,0.0,0.0,0.0,-5.8493,0.0,0.0,0.0,0.0,0.0,-6.0027,-5.9577,-5.8414,-5.9492,-6.0416,-6.1104,-6.1762,-6.2241,-6.257,-6.4964,-6.4784,-6.2202,-6.3844,-6.5267,-6.6667,-6.7206,-6.7509,-6.7478,-6.7119,-6.64,-6.5533,-6.5862,-6.6221,-6.64,-6.5413,-6.4635,-6.4006,-6.3318,0.0,0.0,0.0,0.0,0.0,0.0,0.0,-6.0655,-6.1014,-6.0625,-6.0236,-6.0984,-6.0986,-6.1436,-6.3752,-6.5805,-6.7046,-6.6188,-6.5866,-6.6729,-7.0126,-7.382,-7.6643,-7.731,-7.8179,-7.8699,-7.837,-7.8609,-7.8968,-7.9327,-7.9627,-7.9716,-7.9417,-7.9357,-7.9327,-7.9327,-7.8699,-7.819,-7.7831,-7.7502,-7.7053,-7.6425,-7.6066,-7.5766,-7.5437,-7.5048,-7.4869,-7.4869,-7.4869,-7.4869,-7.4869,-7.4869,-7.4869,-7.4869,-7.4869,-7.4869,-7.4869,-7.4869,-7.4869,-7.4869,-7.4869,-7.4869,-7.4869,-7.4869,-7.4869,-7.4869,-7.4869,-7.4689,-7.445,0.0,0.0,0.0,0.0,0.0,0.0,0.0,0.0,0.0,0.0,0.0,0.0,0.0,0.0,0.0,0.0,0.0,0.0,0.0,0.0,0.0,-5.9638,-6.0146,-6.0745,-6.1433,-6.2002,-6.254,-6.3079,-6.3169,-6.3677,-6.4486,-6.4535,-6.5831,-6.8163,-6.8071,-6.7829,-6.7358,-6.7657,-6.7119,-6.6041,-6.6251,-6.6281,-6.6101,-6.5443,-6.4515,-6.3528,-6.3199,-6.3139,-6.3139,-6.248,0.0,0.0,0.0,0.0,-6.1194,-6.0745,-6.0356,-6.0027,-5.9847,-6.0349,-6.1603,-6.4352,-6.7491,-6.9343,-6.7163,-6.5792,-6.525,-6.6698,-7.0961,-7.4365,-7.4579,-7.6754,-7.828,-7.7741,-7.7652,-7.7652,-7.7652,-7.81,-7.828,-7.7861,-7.819,-7.8489,-7.8609,-7.8041,-7.7592,-7.7502,-7.6963,-7.6395,-7.5766,-7.5736,-7.5467,-7.4899,-7.4869,-7.4869,-7.4869,-7.4869,-7.4869,-7.4869,-7.4869,-7.4869,-7.4869,-7.4869,-7.4869,-7.4869,-7.4869,-7.4869,-7.4869,-7.4869,-7.4869,-7.4869,-7.4869,-7.4869,-7.4869,-7.4869,-7.445,-7.4001,0.0,0.0,0.0,0.0,0.0,0.0,0.0,0.0,0.0,0.0,-5.9468,-5.9124,0.0,0.0,0.0,0.0,0.0,0.0,-6.278,0.0,0.0,-6.1702,-6.1792,-6.2151,-6.281,-6.2899,-6.2989,-6.3079,-6.3617,-6.4814,-6.661,-6.6604,-6.7379,-6.8884,-6.887,-6.878,-6.8645,-6.7597,-6.67,-6.6101,-6.7238,-6.7358,-6.6789,-6.6131,-6.5772,-6.5383,-6.3677,-6.3438,-6.3767,-6.3139,-6.257,0.0,0.0,0.0,-6.2061,-6.254,-6.1463,-6.0446,-6.2091,-6.4666,-6.6938,-6.7334,-6.9133,-7.0052,-6.7343,-6.6555,-6.5992,-6.4551,-6.804,-7.1799,-7.3633,-7.5622,-7.7053,-7.6963,-7.6963,-7.6963,-7.6963,-7.7023,-7.7263,-7.7741,-7.7382,-7.7322,-7.7891,-7.7352,-7.6724,-7.6185,-7.6066,-7.5736,-7.5048,-7.5018,-7.4958,-7.4869,-7.4869,-7.4869,-7.4869,-7.4869,-7.4869,-7.4869,-7.4869,-7.4869,-7.4869,-7.4869,-7.4869,-7.4869,-7.4869,-7.4869,-7.4869,-7.4869,-7.4869,-7.4869,-7.4869,-7.4869,-7.4869,-7.4869,-7.445,-7.4001,0.0,0.0,0.0,0.0,0.0,0.0,0.0,0.0,0.0,0.0,0.0,-6.0939,0.0,0.0,0.0,-6.2061,-6.275,-6.3139,-6.3079,-6.281,-6.2331,-6.1583,-6.1553,-6.1852,-6.251,-6.254,-6.272,-6.3079,-6.3707,-6.5024,-6.6999,-6.7777,-6.8645,-6.9512,-6.8764,-6.8435,-6.8375,-6.7777,-6.7597,-6.7747,-6.8315,-6.7717,-6.646,-6.652,-6.5652,-6.4306,-6.3767,-6.3767,-6.3917,-6.3288,-6.2869,-6.269,-6.2989,0.0,0.0,0.0,-6.1942,-6.1014,-6.263,-6.4665,-6.6695,-6.813,-6.8876,-6.9078,-6.8567,-6.79,-6.7107,-6.6206,-6.8868,-7.1341,-7.1118,-7.3935,-7.6305,-7.6305,-7.6305,-7.6305,-7.6305,-7.6305,-7.6425,-7.6724,-7.6485,-7.6544,-7.7203,-7.6694,-7.6185,-7.5916,-7.5557,-7.5198,-7.4899,-7.4869,-7.4869,-7.4869,-7.4869,-7.4869,-7.4869,-7.4869,-7.4869,-7.4869,-7.4869,-7.4869,-7.4869,-7.4869,-7.4869,-7.4869,-7.4869,-7.4869,-7.4839,-7.448,-7.454,-7.4839,-7.448,-7.454,-7.4839,-7.445,-7.4151,-7.3941,0.0,0.0,0.0,0.0,0.0,0.0,0.0,0.0,0.0,0.0,0.0,0.0,0.0,0.0,0.0,0.0,-6.3348,-6.3797,-6.3348,-6.3169,-6.263,-6.1642,-6.1613,-6.1852,-6.2331,-6.2331,-6.26,-6.3079,-6.3707,-6.5293,-6.7747,-6.8764,-7.0051,-7.1427,-6.9722,-6.8884,-6.8704,-6.8555,-6.8884,-6.9423,-6.8764,-6.7597,-6.6251,-6.6221,-6.5114,-6.3617,-6.3887,-6.4006,-6.3917,-6.3468,-6.3199,-6.3079,-6.3079,-6.275,0.0,0.0,0.0,-6.1792,-6.26,-6.3917,-6.5533,-6.7717,-6.8101,-6.8209,-6.9148,-6.8613,-6.7853,-6.7645,-6.9628,-7.0936,-6.9409,-7.2731,-7.5647,-7.5647,-7.5647,-7.5647,-7.5647,-7.5647,-7.5707,-7.5886,-7.5736,-7.5886,-7.6544,-7.6006,-7.5647,-7.5647,-7.5168,-7.4869,-7.4869,-7.4869,-7.4869,-7.4869,-7.4869,-7.4869,-7.4869,-7.4869,-7.4869,-7.4869,-7.4869,-7.4869,-7.4869,-7.4869,-7.4869,-7.4869,-7.4689,-7.4629,-7.4569,-7.3911,-7.3941,-7.436,-7.4031,-7.418,-7.4599,-7.427,-7.4031,-7.3911,0.0,0.0,0.0,0.0,0.0,0.0,0.0,0.0,0.0,0.0,0.0,-6.3019,-6.3019,-6.3019,-6.3019,-6.3019,-6.3617,-6.3977,-6.3947,-6.3408,-6.3049,-6.2989,-6.2989,0.0,-6.3019,-6.3019,-6.3049,-6.3079,-6.3707,-6.5981,-6.9782,-6.9871,-7.1966,-7.5497,-7.2864,-7.1338,-7.0709,-7.0141,-7.0231,-7.059,-6.8106,-6.7029,-6.6729,-6.4874,-6.4485,-6.4844,-6.4216,-6.4006,-6.4006,-6.3947,-6.3558,-6.3079,-6.3079,-6.3049,-6.3019,0.0,0.0,0.0,-6.2301,-6.3558,-6.5203,-6.5981,-6.7087,-6.8016,-6.8007,-6.7964,-6.7757,-6.7062,-6.8596,-7.0,-6.9859,-7.2639,-7.4929,-7.4929,-7.4929,-7.4929,-7.4929,-7.4929,-7.5168,-7.5826,-7.5318,-7.5198,-7.5886,-7.5318,-7.4929,-7.4929,-7.4899,-7.4869,-7.4869,-7.4869,-7.4869,-7.4869,-7.4869,-7.4869,-7.4869,-7.4869,-7.4869,-7.4869,-7.4869,-7.4869,-7.4869,-7.4869,-7.4869,-7.4839,-7.421,-7.3941,-7.3881,-7.3223,-7.2984,-7.3073,-7.3672,-7.3911,-7.4001,-7.4599,-7.442,-7.3971,0.0,0.0,0.0,0.0,0.0,0.0,0.0,0.0,0.0,0.0,0.0,0.0,0.0,-6.3079,-6.3079,-6.3079,-6.3647,-6.4006,-6.4006,-6.3797,-6.3498,-6.3109,-6.3079,-6.3079,-6.3079,-6.3079,-6.3079,-6.3079,-6.3707,-6.5173,-6.7448,-6.9183,-7.0949,-7.2684,-7.2595,-7.2415,-7.2116,-7.1038,-7.0709,-7.0739,-6.9004,-6.7508,-6.6281,-6.5562,-6.4665,-6.3797,-6.3947,-6.4276,-6.4605,-6.4156,-6.3857,-6.3677,-6.3677,-6.3408,-6.3079,-6.3079,-6.3079,-6.3019,-6.278,-6.3228,-6.4036,-6.5114,-6.5742,-6.6277,-6.7141,-6.8018,-6.8677,-6.8835,-7.0086,-7.1293,-7.1736,-7.2781,-7.3612,-7.3612,-7.3971,-7.424,-7.424,-7.4599,-7.4958,-7.5228,-7.5018,-7.4958,-7.5228,-7.5018,-7.4869,-7.4869,-7.4869,-7.4869,-7.4869,-7.4869,-7.4869,-7.4869,-7.4869,-7.4869,-7.4869,-7.4869,-7.4869,-7.4869,-7.4869,-7.4869,-7.4869,-7.442,-7.424,-7.421,-7.3552,-7.3492,-7.3851,-7.3193,-7.2924,-7.2984,-7.3642,-7.3881,-7.3911,-7.4151,-7.436,-7.448,0.0,0.0,0.0,-5.9428,0.0,-6.1343,-6.2002,-6.266,-6.3079,-6.3079,0.0,0.0,0.0,0.0,-6.3169,-6.3378,-6.3558,-6.3767,-6.3977,-6.3797,-6.3498,-6.3109,-6.3079,-6.3079,-6.3079,-6.3079,-6.3079,-6.3079,-6.3498,-6.4605,-6.637,-6.8136,-6.9782,-7.1248,-7.1936,-7.2624,-7.3193,-7.2295,-7.1787,-7.1398,-6.9213,-6.7807,-6.6939,-6.6251,-6.5323,-6.4455,-6.4844,-6.5024,-6.4964,-6.4515,-6.4066,-6.3767,-6.4216,-6.3917,-6.3378,-6.3378,-6.3228,-6.3079,-6.3079,-6.3079,-6.3378,-6.4695,-6.4545,-6.4515,-6.6251,-6.6999,-6.7627,-6.8734,-6.9842,-7.0799,-7.1487,-7.1607,-7.1906,-7.2774,-7.3073,-7.3313,-7.3522,-7.3941,-7.421,-7.421,-7.442,-7.454,-7.454,-7.4749,-7.4869,-7.4869,-7.4869,-7.4869,-7.4869,-7.4869,-7.4869,-7.4869,-7.4869,-7.4869,-7.4869,-7.4869,-7.4869,-7.4869,-7.4869,-7.4869,-7.4869,-7.442,-7.424,-7.418,-7.3522,-7.3373,-7.3522,-7.3103,-7.2924,-7.2984,-7.3642,-7.3881,-7.3911,-7.4151,-7.451,-7.4809,-5.9997,-6.0086,-6.0086,-6.0057,-6.0655,-6.1343,-6.1972,-6.266,-6.3079,-6.3079,0.0,0.0,0.0,0.0,0.0,-6.3917,-6.3438,-6.3318,-6.3947,-6.3408,-6.3079,-6.3079,-6.3079,-6.3079,-6.3079,-6.3079,-6.3079,-6.3079,-6.3079,-6.4395,-6.6879,-6.6909,-6.8645,-7.1697,-7.1128,-7.1936,-7.3762,-7.3791,-7.3462,-7.2535,-6.8615,-6.7837,-6.8794,-6.6789,-6.64,-6.6969,-6.6969,-6.6161,-6.5114,-6.5114,-6.4276,-6.3468,-6.4695,-6.4605,-6.4066,-6.4036,-6.3588,-6.3139,0.0,0.0,0.0,-6.4695,-6.3558,-6.281,-6.5323,-6.4904,-6.4545,-6.649,-6.7448,-6.8136,-6.8824,-6.8914,-6.9752,-7.2325,-7.2235,-7.2056,-7.2774,-7.2864,-7.2864,-7.2924,-7.3462,-7.3851,-7.3851,-7.445,-7.4839,-7.4839,-7.4839,-7.4869,-7.4869,-7.4869,-7.4869,-7.4869,-7.4869,-7.4869,-7.4869,-7.4869,-7.4869,-7.4869,-7.4869,-7.4869,-7.4869,-7.4869,-7.4839,-7.4809,-7.418,-7.3522,-7.2954,-7.2954,-7.2924,-7.2984,-7.3672,-7.3911,-7.3971,-7.4629,-7.4869,-7.4869,-6.0685,-6.0416,-5.9937,-5.9458,-6.0326,-6.1164,-6.1373,-6.2361,-6.3079,0.0,0.0,0.0,-6.3079,-6.3079,-6.3139,-6.3318,-6.3169,-6.3139,-6.3318,-6.3169,-6.3079,-6.3079,-6.3079,-6.3079,-6.3079,-6.3079,-6.3079,-6.3079,-6.3079,-6.3438,-6.4186,-6.5144,-6.6311,-6.7717,-6.9453,-7.029,-7.041,-7.1338,-7.1906,-7.1966,-6.9453,-6.8675,-6.8794,-6.6789,-6.6131,-6.6281,-6.6281,-6.667,-6.7148,-6.7148,-6.7238,-6.7268,-6.664,-6.5981,-6.5353,-6.4874,-6.4635,-6.4485,-6.4485,0.0,0.0,0.0,0.0,0.0,-6.3228,-6.3588,-6.4156,-6.4725,-6.5742,-6.6759,-6.7418,-6.7148,-6.7238,-6.8435,-6.9662,-7.0709,-7.1368,-7.1457,-7.1816,-7.2804,-7.2624,-7.2624,-7.3133,-7.3343,-7.3642,-7.4121,-7.418,-7.436,-7.4839,-7.4869,-7.4869,-7.4869,-7.4869,-7.4869,-7.4869,-7.4869,-7.4869,-7.4869,-7.4869,-7.4869,-7.4869,-7.439,-7.418,-7.4151,-7.3971,-7.3791,-7.3612,-7.3612,-7.3343,-7.3013,-7.4151,-7.43,-7.3971,-7.4629,-7.4869,-7.4869,-6.1044,-6.0805,-6.0386,-5.9997,-6.0595,-6.1194,-6.1493,-6.2421,-6.3079,0.0,0.0,0.0,-6.3079,-6.3558,-6.3677,-6.3139,-6.3079,-6.3079,-6.3079,-6.3079,-6.3079,-6.3079,-6.3079,-6.3079,-6.3079,-6.3079,-6.3079,-6.3079,-6.3079,-6.3079,-6.3079,-6.3857,-6.4545,-6.5263,-6.7388,-6.8256,-6.8256,-6.9842,-7.0739,-7.0979,-6.9842,-6.9722,-7.0081,-6.8914,-6.8645,-6.8854,-6.8555,-6.8228,-6.8012,-6.8303,-6.8675,-6.8764,-6.7418,-6.6729,-6.6281,-6.5622,-6.5233,-6.5084,-6.5353,-6.5233,-6.5144,-6.5562,0.0,0.0,-6.2989,-6.2839,-6.2869,-6.3139,-6.4036,-6.5084,-6.6011,-6.5862,-6.5712,-6.6101,-6.7148,-6.8315,-6.9512,-6.9692,-7.0081,-7.1158,-7.1398,-7.1637,-7.2026,-7.2595,-7.3073,-7.3462,-7.3732,-7.418,-7.4839,-7.4869,-7.4869,-7.4869,-7.4869,-7.4869,-7.4869,-7.4869,-7.4869,-7.4869,-7.4869,-7.4869,-7.4869,-7.448,-7.43,-7.43,-7.43,-7.43,-7.43,-7.43,-7.4091,-7.3821,-7.4569,-7.4629,-7.436,-7.4749,-7.4869,-7.4869,0.0,-6.1134,-6.1164,-6.1014,-6.1134,-6.1433,-6.2002,-6.266,-6.3079,0.0,-6.3139,-6.3199,-6.3288,-6.4276,-6.4455,-6.3288,-6.3109,-6.3079,-6.3079,-6.3079,-6.3079,-6.3079,-6.3079,-6.3079,-6.3079,-6.3079,-6.3079,-6.3079,-6.3079,-6.3079,-6.3079,-6.3079,-6.3378,-6.3947,-6.5233,-6.6101,-6.6789,-6.8884,-6.9692,-6.9632,-7.0021,-7.0859,-7.1876,-7.1876,-7.2265,-7.2714,-7.2116,-7.04,-6.8548,-6.9263,-6.9453,-6.9123,-6.8016,-6.7448,-6.7119,-6.661,-6.5922,-6.5503,-6.6161,-6.5922,-6.5862,-6.7537,-6.5712,0.0,-6.3917,-6.266,-6.1553,-6.2002,-6.263,-6.3438,-6.4605,-6.4814,-6.4814,-6.4814,-6.4814,-6.5503,-6.7478,-6.7687,-6.7926,-6.8675,-6.9722,-7.044,-7.0679,-7.1787,-7.2565,-7.2774,-7.3492,-7.4151,-7.4749,-7.4839,-7.4869,-7.4869,-7.4869,-7.4869,-7.4869,-7.4869,-7.4869,-7.4869,-7.4869,-7.4869,-7.4869,-7.4869,-7.4869,-7.4869,-7.4869,-7.4869,-7.4869,-7.4869,-7.4869,-7.4869,-7.4869,-7.4869,-7.4869,-7.4869,-7.4869,-7.4869,-6.0505,-6.1164,-6.1553,-6.0475,-6.1194,-6.1942,-6.2061,-6.266,-6.3079,-6.3079,-6.3498,-6.4036,-6.4575,-6.4366,-6.4096,-6.3827,-6.3378,-6.3079,-6.3079,-6.3079,-6.3079,-6.3079,-6.3079,-6.3079,-6.3079,-6.3079,-6.3079,-6.3079,-6.3079,-6.3079,-6.3079,-6.3079,-6.3139,-6.3288,-6.4066,-6.4455,-6.4755,-6.7298,-6.8046,-6.7807,-7.044,-7.1667,-7.1876,-7.1876,-7.1966,-7.2056,-7.1936,-7.1947,-7.2038,-7.27,-7.2235,-7.1368,-7.1667,-7.032,-6.8675,-6.9093,-6.8345,-6.7537,-6.8226,-6.8315,-6.8166,-6.8016,-6.7089,0.0,-6.4336,-6.3707,-6.3169,-6.2271,-6.263,-6.3169,-6.3408,-6.3468,-6.3468,-6.3468,-6.3468,-6.4126,-6.6101,-6.5951,-6.6041,-6.7238,-6.7148,-6.7597,-6.9213,-6.9602,-7.041,-7.1966,-7.3223,-7.3941,-7.4091,-7.4599,-7.4869,-7.4869,-7.4869,-7.4869,-7.4869,-7.4869,-7.4869,-7.4869,-7.4869,-7.4869,-7.4869,-7.4869,-7.4869,-7.4869,-7.4869,-7.4869,-7.4869,-7.4869,-7.4869,-7.4869,-7.4869,-7.4869,-7.4869,-7.4869,-7.4869,-7.4869,-6.0655,-6.1134,-6.1613,-6.1583,-6.1882,-6.2211,-6.254,-6.2869,-6.3318,-6.3947,-6.5173,-6.5862,-6.5562,-6.5203,-6.4725,-6.4066,-6.3707,-6.3408,-6.3109,-6.3677,-6.3767,-6.3109,-6.3378,-6.3378,-6.3079,-6.3079,-6.3079,-6.3079,-6.3079,-6.3079,-6.3079,-6.3079,-6.2899,-6.263,-6.3588,-6.4006,-6.4156,-6.649,-6.7687,-6.8256,-7.1218,-7.2206,-7.1996,-7.2984,-7.3373,-7.3373,-7.3373,-7.3402,-7.3268,-7.2228,-7.2155,-7.2295,-7.1637,-7.0769,-6.9961,-6.9961,-6.9512,-6.9183,-7.0171,-6.9961,-6.9542,-6.9842,-6.8675,0.0,0.0,-6.4725,-6.3737,-6.278,-6.26,-6.269,-6.3019,-6.3079,-6.3079,-6.3079,-6.3079,-6.3408,-6.4395,-6.4515,-6.4874,-6.5892,-6.6311,-6.6879,-6.7897,-6.8914,-7.0171,-7.1757,-7.2505,-7.3193,-7.3851,-7.421,-7.454,-7.4869,-7.4869,-7.4869,-7.4869,-7.4869,-7.4869,-7.4869,-7.4869,-7.4869,-7.4869,-7.4869,-7.4869,-7.4869,-7.4869,-7.4869,-7.4869,-7.4869,-7.4869,-7.4869,-7.4869,-7.4869,-7.4869,-7.4869,-7.4869,-7.4869,-6.0805,-6.1224,-6.1792,-6.272,-6.254,-6.248,-6.2989,-6.3079,-6.3588,-6.5024,-6.661,-6.7238,-6.6311,-6.5981,-6.5473,-6.4635,-6.4126,-6.3827,-6.3827,-6.4455,-6.4306,-6.3139,-6.3677,-6.3647,-6.2899,-6.3019,-6.3079,-6.3079,-6.3079,-6.3079,-6.3079,-6.3079,-6.278,-6.2331,-6.3348,-6.3887,-6.4126,-6.6011,-6.7508,-6.8854,-7.1607,-7.2445,-7.2265,-7.4031,-7.4779,-7.4869,-7.4869,-7.454,-7.3767,-7.1608,-7.1885,-7.2864,-7.1398,-7.1009,-7.1038,-7.0799,-7.056,-7.059,-7.1757,-7.1338,-7.0799,-7.1816,-7.029,-6.8375,0.0,0.0,0.0,-6.3797,-6.3109,-6.278,-6.3199,-6.3258,-6.3258,-6.3258,-6.3258,-6.3258,-6.3258,-6.3588,-6.4036,-6.4575,-6.5592,-6.643,-6.6939,-6.8914,-7.059,-7.1607,-7.1816,-7.2415,-7.3642,-7.3821,-7.421,-7.4869,-7.4869,-7.4869,-7.4869,-7.4869,-7.4869,-7.4869,-7.4869,-7.4869,-7.4869,-7.4869,-7.4869,-7.4869,-7.4869,-7.4869,-7.4869,-7.4869,-7.4869,-7.4869,-7.4869,-7.4869,-7.4869,-7.4869,-7.4869,-7.4899,-6.0176,-6.1642,-6.272,-6.2271,-6.263,-6.2989,-6.3079,-6.3079,-6.3767,-6.5652,-6.6101,-6.64,-6.6819,-6.5832,-6.5533,-6.655,-6.4515,-6.4156,-6.64,-6.5024,-6.3797,-6.3109,-6.3677,-6.3438,-6.2241,-6.278,-6.3079,-6.3079,-6.3079,-6.3079,-6.3079,-6.3079,-6.3049,-6.2959,-6.3109,-6.3498,-6.4096,-6.5503,-6.655,-6.7508,-7.0709,-7.2325,-7.2894,-7.3702,-7.436,-7.4869,-7.4869,-7.4839,-7.4749,-7.4454,-7.4104,-7.3851,-7.421,-7.3163,-7.1996,-7.3133,-7.2595,-7.1846,-7.2595,-7.2684,-7.2624,-7.2774,-7.1667,-7.041,-6.9782,0.0,-6.7178,-6.5922,0.0,-6.4515,-6.4006,0.0,0.0,-6.3887,-6.3887,-6.3887,-6.3887,-6.3498,-6.3199,-6.3288,-6.3438,-6.4425,-6.6759,-6.9303,-7.0859,-7.1009,-7.1547,-7.2235,-7.2984,-7.3582,-7.421,-7.4869,-7.4869,-7.4869,-7.4869,-7.4869,-7.4869,-7.4869,-7.4869,-7.4869,-7.4869,-7.4869,-7.4869,-7.4869,-7.4869,-7.4869,-7.4869,-7.4869,-7.4869,-7.4869,-7.4869,-7.4869,-7.4869,-7.4869,-7.4869,-7.4958,-6.0685,-6.1672,-6.254,-6.266,-6.2899,-6.3079,-6.3079,-6.4695,-6.5951,-6.6011,-6.7358,-6.8435,-6.8704,-6.7537,-6.6969,-6.7508,-6.6191,-6.5503,-6.5832,-6.5413,-6.4874,-6.4246,-6.4455,-6.4156,-6.3228,-6.3109,-6.3079,-6.3079,-6.3079,-6.3079,-6.3079,-6.3079,-6.3079,-6.3079,-6.3079,-6.3438,-6.4096,-6.5443,-6.661,-6.7777,-7.029,-7.1966,-7.3043,-7.4061,-7.4629,-7.4869,-7.4869,-7.4869,-7.4809,-7.442,-7.436,-7.436,-7.3881,-7.3432,-7.3163,-7.3732,-7.3492,-7.3193,-7.3881,-7.3762,-7.3582,-7.3941,-7.3043,-7.1906,-7.1248,-7.0081,-6.8764,-6.7418,0.0,0.0,0.0,0.0,0.0,0.0,-6.4246,-6.4006,-6.4006,-6.3468,-6.3079,-6.3079,-6.3737,-6.5263,-6.7897,-6.9153,-7.0111,-7.0829,-7.1158,-7.1787,-7.2864,-7.3163,-7.3791,-7.4839,-7.4869,-7.4869,-7.4869,-7.4869,-7.4869,-7.4869,-7.4869,-7.4869,-7.4869,-7.4869,-7.4869,-7.4869,-7.4869,-7.4869,-7.4869,-7.4869,-7.4869,-7.4869,-7.4869,-7.4869,-7.4869,-7.4869,-7.4869,-7.4988,-6.1373,-6.1912,-6.251,-6.2989,-6.3079,-6.3079,-6.3079,-6.5413,-6.6939,-6.634,-6.7956,-6.9423,-7.0141,-6.9213,-6.8734,-6.9273,-6.8555,-6.7597,-6.646,-6.649,-6.5922,-6.4545,-6.4844,-6.4545,-6.3498,-6.3199,-6.3079,-6.3079,-6.3079,-6.3079,-6.3079,-6.3079,-6.3169,-6.3348,-6.3528,-6.4066,-6.4904,-6.6251,-6.7597,-6.8944,-7.0739,-7.2265,-7.3552,-7.451,-7.4869,-7.4869,-7.4869,-7.4869,-7.4809,-7.433,-7.448,-7.4719,-7.3762,-7.3791,-7.4151,-7.4151,-7.4151,-7.427,-7.4749,-7.454,-7.427,-7.4749,-7.4031,-7.3043,-7.2565,-7.1577,-7.041,-6.9064,-6.7897,0.0,0.0,0.0,-6.5772,-6.5592,0.0,-6.4485,-6.4306,-6.3588,-6.3079,-6.3079,-6.4395,-6.6191,-6.8495,-6.9064,-6.9722,-7.0829,-7.0889,-7.1487,-7.2834,-7.2924,-7.3522,-7.4839,-7.4869,-7.4869,-7.4869,-7.4869,-7.4869,-7.4869,-7.4869,-7.4869,-7.4869,-7.4869,-7.4869,-7.4869,-7.4869,-7.4869,-7.4869,-7.4869,-7.4869,-7.4869,-7.4869,-7.4988,-7.5168,-7.5168,-7.5168,-7.5288,-6.2061,-6.26,-6.3049,-6.3079,-6.3079,-6.3079,-6.3079,-6.4246,-6.5562,-6.6789,-6.7029,-6.8046,-7.059,-7.029,-7.0679,-7.2595,-7.1547,-7.05,-6.9871,-6.8615,-6.649,-6.3288,-6.4366,-6.4126,-6.2211,-6.275,-6.3079,-6.3079,-6.3079,-6.3079,-6.3079,-6.3079,-6.3408,-6.4006,-6.4665,-6.5682,-6.6969,-6.8345,-6.9632,-7.0919,-7.2295,-7.3642,-7.4809,-7.4869,-7.4869,-7.4869,-7.4869,-7.4869,-7.4869,-7.4869,-7.4869,-7.4869,-7.4839,-7.4839,-7.4839,-7.4839,-7.4839,-7.4839,-7.4869,-7.4869,-7.4839,-7.4869,-7.436,-7.3851,-7.3821,-7.3313,-7.2445,-7.1068,-7.029,-6.9453,-6.8136,-6.7897,-6.7657,-6.7029,-6.637,0.0,0.0,-6.3887,-6.3079,-6.3079,-6.4784,-6.652,-6.7867,-6.9183,-7.0201,-7.0859,-7.0889,-7.1487,-7.2834,-7.2924,-7.3522,-7.4839,-7.4869,-7.4869,-7.4869,-7.4869,-7.4869,-7.4869,-7.4869,-7.4869,-7.4869,-7.4869,-7.4869,-7.4869,-7.4869,-7.4869,-7.4869,-7.4869,-7.4869,-7.4869,-7.4869,-7.5288,-7.5886,-7.5886,-7.5886,-7.6066,-6.2091,-6.263,-6.3079,-6.3079,-6.3079,-6.3079,-6.3079,-6.4934,-6.6969,-6.8734,-7.047,-7.2894,-7.6425,-7.6215,-7.6096,-7.6754,-7.5228,-7.3552,-7.2026,-6.8749,-6.7118,-6.7595,-6.5238,-6.4114,-6.4695,-6.4036,-6.3498,-6.3079,-6.3079,-6.3288,-6.3677,-6.3258,-6.3647,-6.4635,-6.4006,-6.4695,-6.643,-6.7747,-6.9093,-7.05,-7.2684,-7.436,-7.5497,-7.5048,-7.4869,-7.4869,-7.4869,-7.4869,-7.4869,-7.4869,-7.4869,-7.4869,-7.4869,-7.4869,-7.4869,-7.4869,-7.4869,-7.4869,-7.4869,-7.5198,-7.5437,-7.4988,-7.5048,-7.4988,-7.4091,-7.3732,-7.3313,-7.2415,-7.1697,-7.0979,-7.0081,-6.9213,-6.8435,0.0,0.0,-6.5772,0.0,-6.4246,-6.3857,-6.4306,-6.4964,-6.6041,-6.7807,-6.8375,-6.8944,-6.9602,-7.0051,-7.0679,-7.1547,-7.1996,-7.2834,-7.418,-7.424,-7.442,-7.4869,-7.4869,-7.4869,-7.4869,-7.4869,-7.4869,-7.4869,-7.4869,-7.4869,-7.4869,-7.4869,-7.5138,-7.5527,-7.5048,-7.5138,-7.5527,-7.5048,-7.5288,-7.5916,-7.5916,-7.6155,-7.6634,-6.245,-6.278,-6.3079,-6.3079,-6.3079,-6.3079,-6.3079,-6.5922,-6.8675,-7.044,-7.3373,-7.6634,-8.0135,-8.0315,-8.0105,-7.9866,-7.8938,-7.6904,-7.3492,-7.1027,-6.9597,-6.9333,-6.698,-6.5764,-6.5951,-6.5144,-6.4186,-6.3079,-6.3288,-6.3498,-6.3647,-6.3258,-6.3647,-6.4635,-6.4036,-6.4725,-6.646,-6.8256,-6.9662,-7.0859,-7.3283,-7.4749,-7.5497,-7.5048,-7.5018,-7.5198,-7.4958,-7.4869,-7.4869,-7.4869,-7.4869,-7.4869,-7.4869,-7.4869,-7.4869,-7.4869,-7.4869,-7.4869,-7.4869,-7.5377,-7.5796,-7.5347,-7.5736,-7.5946,-7.4869,-7.4599,-7.436,-7.3462,-7.2924,-7.2415,-7.1727,-7.0739,-6.9722,0.0,0.0,0.0,0.0,-6.4096,-6.3917,-6.4575,-6.4874,-6.5712,-6.7448,-6.7627,-6.7897,-6.8585,-6.9243,-6.9991,-7.0859,-7.1517,-7.2505,-7.3851,-7.4121,-7.445,-7.4869,-7.4869,-7.4869,-7.4869,-7.4869,-7.4869,-7.4869,-7.4869,-7.5018,-7.5258,-7.5258,-7.5617,-7.6185,-7.5736,-7.5707,-7.5886,-7.5647,-7.5826,-7.6245,-7.6245,-7.6784,-7.7592,-6.3079,-6.3079,-6.3079,-6.3079,-6.3079,-6.3079,-6.3079,-6.6999,-7.05,-7.1906,-7.5557,-7.9118,-8.1871,-8.2709,-8.2798,-8.214,-8.2559,-8.0434,-7.4659,-7.5278,-7.3664,-6.8615,-6.9419,-6.8758,-6.637,-6.6131,-6.5144,-6.3228,-6.3707,-6.3677,-6.3109,-6.3079,-6.3408,-6.4036,-6.4635,-6.5652,-6.7059,-6.9662,-7.1248,-7.2146,-7.4091,-7.4899,-7.4929,-7.4899,-7.5318,-7.5826,-7.5138,-7.4869,-7.4869,-7.4869,-7.4869,-7.4869,-7.4869,-7.4869,-7.4869,-7.4869,-7.4869,-7.4869,-7.4869,-7.5407,-7.5946,-7.5916,-7.6365,-7.6664,-7.6036,-7.5886,-7.5497,-7.421,-7.3941,-7.3732,-7.3073,-7.2385,-7.1517,0.0,0.0,0.0,-6.4515,-6.3647,-6.3468,-6.4036,-6.4635,-6.5533,-6.6819,-6.6909,-6.7178,-6.7867,-6.8525,-6.9453,-7.0739,-7.1457,-7.2445,-7.3791,-7.448,-7.4839,-7.4869,-7.4869,-7.4869,-7.4869,-7.4869,-7.4869,-7.4869,-7.4869,-7.5258,-7.5916,-7.5916,-7.6275,-7.6874,-7.6844,-7.6514,-7.6066,-7.6604,-7.6844,-7.6874,-7.6904,-7.7741,-7.8849,-6.3079,-6.3079,-6.3079,-6.3079,-6.3079,-6.3079,-6.3079,-6.6999,-7.1158,-7.445,-7.8729,-8.3068,-8.7197,-8.7347,-8.6898,-8.624,-8.4983,-8.2948,-7.9956,-7.6974,-7.5092,-7.4561,-7.1679,-7.0229,-7.0376,-6.7986,-6.6251,-6.5263,-6.3947,-6.3468,-6.3767,-6.3288,-6.3408,-6.3977,-6.3707,-6.4306,-6.5682,-6.7807,-7.053,-7.3462,-7.448,-7.5198,-7.5587,-7.5078,-7.5318,-7.5826,-7.5138,-7.4869,-7.4869,-7.4869,-7.4869,-7.4869,-7.4869,-7.4869,-7.4869,-7.4869,-7.4869,-7.4869,-7.4869,-7.5707,-7.6485,-7.6006,-7.6365,-7.6664,-7.6036,-7.5497,-7.5048,-7.4689,-7.4629,-7.442,-7.3762,-7.3103,-7.2206,-7.0889,0.0,0.0,-6.64,-6.6101,-6.5862,-6.5533,-6.5233,-6.5353,-6.6191,-6.5832,-6.6011,-6.7148,-6.7418,-6.8076,-6.9423,-7.056,-7.1787,-7.3133,-7.3821,-7.439,-7.4869,-7.4869,-7.4869,-7.4869,-7.4869,-7.4869,-7.4869,-7.4869,-7.5258,-7.5916,-7.5916,-7.6544,-7.7502,-7.7023,-7.7023,-7.7293,-7.6963,-7.7113,-7.7622,-7.81,-7.8819,-7.9567,-6.3079,-6.3528,-6.3827,-6.3528,-6.5144,-6.6311,-6.5742,-6.8136,-7.1517,-7.5766,-8.0315,-8.4055,-8.6389,-8.8125,-8.8604,-8.7377,-8.621,-8.4504,-8.1961,-7.9663,-7.7991,-7.6833,-7.4709,-7.3162,-7.2319,-6.9662,-6.7537,-6.6011,-6.4306,-6.3528,-6.3588,-6.3228,-6.3258,-6.3588,-6.3228,-6.3647,-6.4755,-6.7328,-7.053,-7.3941,-7.43,-7.4839,0.0,-7.5018,-7.5108,-7.5407,-7.5018,-7.4869,-7.4869,-7.4869,-7.4869,-7.4869,-7.4869,-7.4869,-7.4869,-7.4869,-7.4869,-7.4929,-7.5258,-7.6066,-7.6814,-7.6754,-7.7203,-7.7442,-7.6514,-7.6006,-7.5557,-7.4988,-7.4869,-7.4749,-7.439,-7.3791,-7.2894,-7.1547,-6.9931,-6.8615,-6.7956,-6.7597,-6.7178,-6.652,-6.5862,-6.5832,-6.6759,-6.5742,-6.5562,-6.6879,-6.7268,-6.8016,-6.9363,-7.0649,-7.1816,-7.2894,-7.4121,-7.4809,-7.4869,-7.5168,-7.5168,-7.4869,-7.4869,-7.4869,-7.4869,-7.4869,-7.5407,-7.6305,-7.6006,-7.6784,-7.819,-7.7532,-7.7472,-7.7771,-7.7412,-7.7831,-7.8729,-7.9118,-7.9477,-7.9866,-6.3079,-6.4066,-6.4695,-6.4096,-6.7747,-7.059,-6.9991,-7.0739,-7.2864,-7.6933,-8.1422,-8.4085,-8.3576,-8.7137,-8.8813,-8.6958,-8.6659,-8.5312,-8.235,-8.2529,-8.1183,-7.7622,-7.7861,-7.6664,-7.3612,-7.1188,-6.8764,-6.64,-6.4725,-6.3588,-6.3079,-6.3079,-6.3079,-6.3079,-6.3079,-6.3468,-6.4336,-6.7418,-7.059,-7.3522,-7.3702,-7.421,-7.4869,-7.4869,-7.4869,-7.4869,-7.4869,-7.4869,-7.4869,-7.4869,-7.4869,-7.4869,-7.4869,-7.4869,-7.4869,-7.4869,-7.4869,-7.5018,-7.5617,-7.6245,-7.6844,-7.7412,-7.7981,-7.81,-7.6963,-7.6634,-7.6245,-7.5108,-7.4869,-7.4869,-7.4869,-7.433,-7.3522,-7.2325,-7.1158,-7.0141,-6.9482,-6.8854,-6.8196,-6.7478,-6.6789,0.0,-6.7986,-6.6311,-6.5742,-6.7148,-6.7687,-6.8555,-6.9901,-7.1188,-7.2206,-7.2894,-7.4779,-7.5527,-7.5018,-7.5527,-7.5527,-7.5018,-7.5018,-7.5018,-7.5018,-7.5078,-7.5736,-7.6814,-7.6365,-7.7113,-7.8609,-7.813,-7.7921,-7.7921,-7.7921,-7.8699,-7.9836,-7.9926,-8.0016,-8.0165,-6.3079,-6.3677,-6.4126,-6.4006,-6.7418,-7.1158,-7.424,-7.7083,-7.9387,-8.0734,-8.4474,-8.7167,-8.7616,-8.8364,-8.8484,-8.7616,-8.6509,-8.5402,-8.4265,-8.3307,-8.22,-8.0973,-7.9986,-7.8669,-7.6993,-7.2355,-6.9482,-6.8465,-6.4964,-6.3169,-6.3079,-6.3079,-6.3079,-6.3079,-6.3079,-6.3737,-6.4964,-6.664,-6.8914,-7.1517,-7.2624,-7.3821,-7.4869,-7.4869,-7.4869,-7.4869,-7.4869,-7.4869,-7.4869,-7.4869,-7.4869,-7.4869,-7.4869,-7.4869,-7.4869,-7.4869,-7.4869,-7.4899,-7.5018,-7.5557,-7.6096,-7.6215,-7.6335,-7.6365,-7.6125,-7.5617,-7.5138,-7.4929,-7.4869,-7.4869,-7.4869,-7.433,-7.3821,-7.3582,-7.2894,-7.2176,-7.1487,-7.1278,-7.0769,-6.9602,-6.8884,-6.8585,-6.8794,-6.7029,-6.661,-6.8495,-6.8226,-6.8555,-6.9901,-7.1188,-7.2206,-7.2894,-7.43,-7.5258,-7.5707,-7.5288,-7.5288,-7.5707,-7.5707,-7.5707,-7.5736,-7.6245,-7.6604,-7.6844,-7.7293,-7.7682,-7.8011,-7.846,-7.8609,-7.8609,-7.8609,-7.9118,-7.9896,-8.0434,-8.0973,-8.1452,-6.3079,-6.4126,-6.5473,-6.6849,-7.0949,-7.5138,-7.846,-8.1452,-8.2978,-8.1931,-8.3457,-8.4743,-8.5073,-8.6928,-8.7766,-8.6748,-8.606,-8.5282,-8.4265,-8.3606,-8.2679,-8.1332,-8.0674,-7.9387,-7.7352,-7.3133,-7.032,-6.9004,-6.5353,-6.3378,-6.3079,-6.3079,-6.3079,-6.3079,-6.3079,-6.3797,-6.5114,-6.643,-6.8315,-7.056,-7.2235,-7.3492,-7.442,-7.4749,-7.4869,-7.4869,-7.4869,-7.4869,-7.4869,-7.4869,-7.4869,-7.4869,-7.4869,-7.4869,-7.4869,-7.4869,-7.4869,-7.4958,-7.5318,-7.5647,-7.5976,-7.6305,-7.6395,-7.6305,-7.5976,-7.5647,-7.5318,-7.4958,-7.4869,-7.4869,-7.4869,-7.4629,-7.439,-7.439,-7.4151,-7.3702,-7.3013,-7.2924,-7.2565,-7.1607,-7.062,-7.0111,-7.047,-6.9034,-6.8465,-6.9423,-6.9213,-6.9453,-7.041,-7.1697,-7.2565,-7.2894,-7.4839,-7.5886,-7.5916,-7.6245,-7.6395,-7.6395,-7.6395,-7.6395,-7.6395,-7.6694,-7.7023,-7.7322,-7.7322,-7.7682,-7.834,-7.8669,-7.8789,-7.8819,-7.9178,-7.9746,-8.0405,-8.1063,-8.1721,-8.229,-6.3797,-6.5383,-6.7508,-7.032,-7.4929,-7.8998,-8.1242,-8.3696,-8.4654,-8.2858,-8.2499,-8.2469,-8.2589,-8.5402,-8.6838,-8.5791,-8.5432,-8.4773,-8.3606,-8.3277,-8.2409,-8.0883,-8.0674,-7.9477,-7.7083,-7.3791,-7.1098,-6.9004,-6.5772,-6.3827,-6.3079,-6.3079,-6.3079,-6.3079,-6.3079,-6.3707,-6.4904,-6.6221,-6.8016,-7.0141,-7.1966,-7.3253,-7.4151,-7.4689,-7.4869,-7.4869,-7.4869,-7.4869,-7.4869,-7.4869,-7.4869,-7.4869,-7.4869,-7.4869,-7.4869,-7.4869,-7.4869,-7.4988,-7.5527,-7.5796,-7.5976,-7.6335,-7.6514,-7.6485,-7.5826,-7.5677,-7.5527,-7.4988,-7.4869,-7.4869,-7.4869,-7.4869,-7.4869,-7.4869,-7.4869,-7.4689,-7.418,-7.4091,-7.3851,-7.3193,-7.2056,-7.1487,-7.1846,-7.0979,-7.032,-7.0201,-7.0171,-7.038,-7.0889,-7.2176,-7.2924,-7.2924,-7.5347,-7.6455,-7.6096,-7.7113,-7.7412,-7.7023,-7.7023,-7.7113,-7.7263,-7.7382,-7.7741,-7.822,-7.7682,-7.8041,-7.8998,-7.8998,-7.9088,-7.9267,-7.9806,-8.0434,-8.1063,-8.1601,-8.22,-8.2844,-6.6161,-6.7747,-6.9752,-7.2954,-7.6904,-7.9926,-8.0764,-8.2619,-8.4265,-8.5192,-8.4803,-8.4654,-8.5252,-8.5671,-8.5851,-8.5701,-8.4594,-8.3606,-8.2888,-8.1751,-8.1003,-8.0823,-8.0225,-7.9208,-7.7741,-7.451,-7.1577,-6.9004,-6.6281,-6.4306,-6.3079,-6.3079,-6.3079,-6.3079,-6.3079,-6.3468,-6.4186,-6.5533,-6.7597,-7.0111,-7.1457,-7.3103,-7.4779,-7.4869,-7.4869,-7.4869,-7.4869,-7.4869,-7.4869,-7.4869,-7.4869,-7.4869,-7.4869,-7.4869,-7.4869,-7.4869,-7.4869,-7.4899,-7.4958,-7.5437,-7.5766,-7.5198,-7.5527,-7.5826,-7.5138,-7.4958,-7.4958,-7.4899,-7.4869,-7.4869,-7.4869,-7.4869,-7.4869,-7.4869,-7.4869,-7.4869,-7.4809,-7.4779,-7.454,-7.3881,-7.3163,-7.2505,-7.1936,-7.1787,-7.1457,-7.0859,-7.0829,-7.0829,-7.0889,-7.2176,-7.2924,-7.2924,-7.4929,-7.6245,-7.6724,-7.6844,-7.7203,-7.7711,-7.7711,-7.8041,-7.8639,-7.9267,-7.9567,-7.9627,-7.9567,-7.9597,-7.9716,-7.9716,-8.0075,-8.0614,-8.0674,-8.1123,-8.1691,-8.1751,-8.22,-8.2844,-6.8495,-6.9512,-7.1427,-7.5527,-7.7891,-7.9956,-8.223,-8.2888,-8.3187,-8.3337,-8.3786,-8.4534,-8.5581,-8.5342,-8.5103,-8.5103,-8.3906,-8.2888,-8.223,-8.1302,-8.0614,-8.0225,-7.9956,-7.9178,-7.7831,-7.5377,-7.2804,-7.0141,-6.7508,-6.5323,-6.3617,-6.3258,-6.3079,-6.3079,-6.3468,-6.4006,-6.4755,-6.6909,-6.8645,-7.0141,-7.2235,-7.3582,-7.433,-7.4719,-7.4869,-7.4869,-7.4869,-7.4869,-7.4869,-7.4869,-7.4869,-7.4869,-7.4869,-7.4869,-7.4869,-7.4869,-7.4869,-7.4869,-7.4869,-7.5377,-7.5826,-7.5557,-7.5707,-7.5826,-7.5557,-7.5168,-7.4869,-7.4869,-7.4869,-7.4869,-7.4869,-7.4869,-7.4869,-7.4869,-7.4869,-7.4869,-7.4869,-7.4869,-7.4629,-7.3971,-7.3313,-7.2654,-7.1966,-7.1876,-7.1787,-7.1517,-7.1876,-7.1936,-7.1517,-7.2774,-7.3492,-7.3492,-7.5437,-7.6574,-7.6814,-7.8011,-7.8759,-7.9028,-7.9417,-7.9746,-8.0016,-8.0285,-8.0405,-8.0405,-8.0405,-8.0405,-8.0405,-8.0405,-8.0554,-8.0823,-8.1242,-8.1542,-8.1841,-8.223,-8.2529,-8.2828,-7.059,-7.1517,-7.3402,-7.7652,-7.8938,-8.0225,-8.2769,-8.2589,-8.202,-8.1542,-8.229,-8.3367,-8.4684,-8.4594,-8.4414,-8.4414,-8.3217,-8.22,-8.1542,-8.0674,-8.0016,-7.9537,-7.9507,-7.8968,-7.7831,-7.6096,-7.3971,-7.1487,-6.9064,-6.6759,-6.4575,-6.3737,-6.3468,-6.3677,-6.4306,-6.5203,-6.634,-6.8405,-6.9871,-7.0979,-7.3073,-7.4001,-7.424,-7.4689,-7.4869,-7.4869,-7.4869,-7.4869,-7.4869,-7.4869,-7.4869,-7.4869,-7.4869,-7.4869,-7.4869,-7.4869,-7.4869,-7.4929,-7.5138,-7.5677,-7.6125,-7.5946,-7.6036,-7.6066,-7.5677,-7.5228,-7.4869,-7.4869,-7.4869,-7.4869,-7.4869,-7.4869,-7.4869,-7.4869,-7.4869,-7.4869,-7.4869,-7.4869,-7.4689,-7.424,-7.3612,-7.3013,-7.2535,-7.2475,-7.2385,-7.2206,-7.2984,-7.3103,-7.2235,-7.3283,-7.3971,-7.418,-7.5916,-7.7023,-7.7412,-7.8998,-7.9926,-8.0105,-8.0584,-8.0883,-8.1093,-8.1302,-8.1272,-8.1093,-8.1093,-8.1093,-8.1093,-8.1093,-8.1212,-8.1422,-8.1901,-8.208,-8.211,-8.2589,-8.2844,-8.2828,-7.2385,-7.3941,-7.5886,-7.9208,-8.0345,-8.1003,-8.1691,-8.1242,-8.0823,-8.0823,-8.0823,-8.1332,-8.2649,-8.3367,-8.3756,-8.3756,-8.2559,-8.1512,-8.0853,-7.9567,-7.8819,-7.8789,-7.8789,-7.8489,-7.7831,-7.6544,-7.4899,-7.2894,-7.0919,-6.8585,-6.5951,-6.4605,-6.4366,-6.5024,-6.5682,-6.7089,-6.9004,-6.9662,-7.1098,-7.2924,-7.3612,-7.43,-7.4869,-7.4869,-7.4869,-7.4869,-7.4869,-7.4869,-7.4869,-7.4869,-7.4869,-7.4869,-7.4869,-7.4869,-7.4869,-7.4869,-7.4869,-7.5018,-7.5707,-7.6335,-7.6664,-7.6066,-7.6365,-7.6485,-7.5198,-7.4899,-7.4869,-7.4869,-7.4869,-7.4869,-7.4869,-7.4869,-7.4869,-7.4869,-7.4869,-7.4869,-7.4869,-7.4869,-7.4869,-7.4869,-7.43,-7.3881,-7.3881,-7.3881,-7.3612,-7.2954,-7.4121,-7.427,-7.2984,-7.3522,-7.418,-7.4839,-7.6125,-7.7442,-7.8759,-7.9477,-8.0135,-8.0794,-8.0794,-8.1153,-8.1781,-8.2439,-8.238,-8.1781,-8.1781,-8.1781,-8.1781,-8.1781,-8.214,-8.2814,-8.2739,-8.2814,-8.2814,-8.2844,-8.2844,-8.2844,-7.4689,-7.5288,-7.6335,-7.8699,-7.9297,-7.9656,-8.0345,-8.0255,-7.9956,-7.9477,-7.9836,-8.0285,-8.0704,-8.1751,-8.2409,-8.2409,-8.1601,-8.0823,-8.0165,-7.9297,-7.8789,-7.8789,-7.8789,-7.8489,-7.7831,-7.6963,-7.5557,-7.3582,-7.2026,-6.9931,-6.7328,-6.6909,-6.658,-6.64,-6.7537,-6.8645,-6.9722,-7.1308,-7.2595,-7.3642,-7.43,-7.4689,-7.4869,-7.4869,-7.4869,-7.4869,-7.4869,-7.4869,-7.4869,-7.4869,-7.4869,-7.4869,-7.4869,-7.4869,-7.4869,-7.4869,-7.4869,-7.4929,-7.5138,-7.6006,-7.6784,-7.6574,-7.7023,-7.7263,-7.6395,-7.5527,-7.4869,-7.4869,-7.4869,-7.4869,-7.4869,-7.4869,-7.4869,-7.4869,-7.4869,-7.4869,-7.4869,-7.4869,-7.4719,-7.427,-7.4031,-7.3732,-7.3283,-7.3642,-7.3821,-7.3612,-7.439,-7.448,-7.3642,-7.4659,-7.5377,-7.5557,-7.6814,-7.7921,-7.8789,-8.0375,-8.1482,-8.214,-8.3038,-8.3337,-8.3098,-8.2858,-8.2888,-8.3128,-8.3128,-8.3128,-8.3128,-8.3128,-8.2978,-8.2844,-8.2844,-8.2844,-8.2844,-8.2844,-8.2844,-8.2828,-7.5437,-7.5736,-7.6365,-7.7801,-7.825,-7.8639,-7.9327,-7.9417,-7.9267,-7.8849,-7.9178,-7.9417,-7.9417,-8.0405,-8.1153,-8.1392,-8.0823,-8.0255,-7.9836,-7.9178,-7.8789,-7.8789,-7.8789,-7.8489,-7.7831,-7.7173,-7.6125,-7.4659,-7.2804,-7.0919,-6.9064,-6.8824,-6.8615,-6.8495,-6.9602,-7.059,-7.1487,-7.2744,-7.3672,-7.43,-7.4719,-7.4869,-7.4869,-7.4869,-7.4869,-7.4869,-7.4869,-7.4869,-7.4869,-7.4869,-7.4869,-7.4869,-7.4869,-7.4869,-7.4869,-7.4869,-7.4869,-7.4988,-7.5467,-7.6215,-7.6814,-7.6814,-7.7143,-7.7203,-7.6305,-7.5467,-7.4869,-7.4869,-7.4869,-7.4869,-7.4869,-7.4869,-7.4869,-7.4869,-7.4869,-7.4869,-7.4869,-7.4869,-7.4719,-7.43,-7.448,-7.448,-7.4091,-7.4629,-7.4899,-7.4659,-7.5018,-7.5078,-7.4659,-7.5437,-7.6006,-7.6245,-7.7502,-7.8609,-7.9537,-8.1272,-8.2469,-8.3128,-8.4205,-8.4504,-8.4085,-8.3696,-8.3726,-8.4085,-8.3846,-8.3726,-8.3726,-8.3487,-8.3128,-8.2844,-8.2844,-8.2844,-8.2844,-8.2844,-8.2918,-8.3158,-7.4869,-7.5437,-7.6096,-7.6724,-7.7382,-7.8041,-7.8699,-7.8789,-7.8789,-7.8789,-7.8789,-7.8789,-7.8789,-7.9357,-7.9986,-8.0614,-8.0135,-7.9776,-7.9686,-7.9118,-7.8759,-7.8729,-7.8759,-7.8489,-7.7831,-7.7173,-7.6514,-7.5826,-7.3313,-7.1757,-7.1098,-7.047,-7.05,-7.1068,-7.1727,-7.2714,-7.3881,-7.3941,-7.43,-7.4869,-7.4869,-7.4869,-7.4869,-7.4869,-7.4869,-7.4869,-7.4869,-7.4869,-7.4869,-7.4869,-7.4869,-7.4869,-7.4869,-7.4869,-7.4869,-7.4869,-7.4869,-7.5138,-7.6365,-7.6724,-7.6754,-7.6754,-7.6754,-7.6455,-7.5228,-7.4899,-7.4869,-7.4869,-7.4869,-7.4869,-7.4869,-7.4869,-7.4869,-7.4869,-7.4869,-7.4869,-7.4869,-7.4869,-7.4899,-7.4929,-7.5527,-7.5946,-7.6036,-7.6514,-7.6604,-7.6066,-7.6006,-7.5976,-7.5976,-7.6066,-7.6365,-7.6933,-7.819,-7.9507,-8.0853,-8.217,-8.3187,-8.3936,-8.4504,-8.4773,-8.4773,-8.4743,-8.4743,-8.4743,-8.4145,-8.3846,-8.3756,-8.3158,-8.2828,-8.2844,-8.2844,-8.2844,-8.2844,-8.2844,-8.3158,-8.3576,-7.4869,-7.5437,-7.6096,-7.6724,-7.7382,-7.8041,-7.8699,-7.8789,-7.8789,-7.8789,-7.8789,-7.8789,-7.8789,-7.8938,-7.9088,-7.9238,-7.9597,-7.9387,-7.834,-7.8609,-7.8579,-7.8071,-7.8519,-7.8489,-7.7831,-7.7173,-7.6275,-7.5108,-7.448,-7.3821,-7.3193,-7.3043,-7.2774,-7.2475,-7.3133,-7.3582,-7.3941,-7.442,-7.4719,-7.4869,-7.4869,-7.4869,-7.4869,-7.4869,-7.4869,-7.4869,-7.4869,-7.4869,-7.4869,-7.4869,-7.4869,-7.4869,-7.4869,-7.4869,-7.4869,-7.4869,-7.4869,-7.4958,-7.5258,-7.5707,-7.6125,-7.6125,-7.6125,-7.6036,-7.5736,-7.5258,-7.4869,-7.4869,-7.4869,-7.4869,-7.4869,-7.4869,-7.4869,-7.4869,-7.4869,-7.4869,-7.4869,-7.4869,-7.5078,-7.5587,-7.5796,-7.6275,-7.7263,-7.7053,-7.6963,-7.7322,-7.6904,-7.6604,-7.6604,-7.7562,-7.816,-7.831,-7.9148,-8.0225,-8.1542,-8.2858,-8.4325,-8.597,-8.5641,-8.5462,-8.5462,-8.4953,-8.4983,-8.5462,-8.5312,-8.4953,-8.4474,-8.4325,-8.3666,-8.2844,-8.2844,-8.2844,-8.2844,-8.2844,-8.2858,-8.3038,-7.4869,-7.5437,-7.6096,-7.6724,-7.7382,-7.8041,-7.8699,-7.8789,-7.8789,-7.8789,-7.8789,-7.8789,-7.8789,-7.8789,-7.8669,-7.837,-7.8699,-7.8579,-7.7861,-7.813,-7.819,-7.7831,-7.816,-7.8041,-7.7382,-7.6724,-7.5916,-7.4869,-7.4869,-7.4689,-7.436,-7.436,-7.4151,-7.3821,-7.418,-7.436,-7.436,-7.4719,-7.4869,-7.4869,-7.4869,-7.4869,-7.4869,-7.4869,-7.4869,-7.4869,-7.4869,-7.4869,-7.4869,-7.4869,-7.4869,-7.4869,-7.4869,-7.4869,-7.4869,-7.4869,-7.4869,-7.4958,-7.5258,-7.5617,-7.5916,-7.5916,-7.5677,-7.5527,-7.5826,-7.5377,-7.4958,-7.5288,-7.5078,-7.4869,-7.4869,-7.4869,-7.4869,-7.4869,-7.4869,-7.4869,-7.4869,-7.5138,-7.5497,-7.5856,-7.6694,-7.7502,-7.819,-7.8489,-7.8549,-7.828,-7.7921,-7.7592,-7.7293,-7.825,-7.8789,-7.8789,-8.0045,-8.1212,-8.223,-8.3816,-8.5312,-8.6689,-8.6299,-8.615,-8.612,-8.5761,-8.5791,-8.612,-8.5521,-8.5043,-8.4654,-8.4055,-8.3397,-8.2844,-8.2844,-8.2844,-8.2844,-8.2844,-8.2948,-8.3247,-7.4869,-7.5437,-7.6096,-7.6724,-7.7382,-7.8041,-7.8699,-7.8789,-7.8789,-7.8789,-7.8789,-7.8789,-7.8789,-7.8789,-7.8579,-7.8011,-7.7771,-7.7622,-7.7532,-7.7711,-7.7771,-7.7652,-7.7771,-7.7562,-7.6993,-7.6275,-7.5557,-7.4869,-7.4869,-7.4869,-7.4869,-7.4869,-7.4869,-7.4869,-7.4869,-7.4869,-7.4869,-7.4869,-7.4869,-7.4869,-7.4869,-7.4869,-7.4869,-7.4869,-7.4869,-7.4869,-7.4869,-7.4869,-7.4869,-7.4869,-7.4869,-7.4869,-7.4869,-7.4869,-7.4869,-7.4869,-7.4869,-7.4988,-7.5587,-7.5736,-7.5736,-7.5736,-7.5377,-7.5198,-7.5766,-7.5437,-7.5198,-7.5766,-7.5347,-7.4869,-7.4869,-7.4958,-7.5018,-7.5018,-7.5018,-7.5018,-7.5018,-7.5527,-7.5946,-7.6036,-7.7682,-7.8878,-7.9058,-8.0135,-8.0375,-7.9327,-7.9148,-7.8849,-7.828,-7.8878,-7.9238,-7.9238,-8.1003,-8.235,-8.3187,-8.4863,-8.603,-8.6689,-8.6689,-8.6689,-8.6689,-8.6689,-8.6689,-8.6629,-8.5492,-8.4893,-8.4624,-8.3517,-8.2948,-8.2844,-8.2844,-8.2828,-8.2918,-8.2918,-8.3307,-8.3906,-7.4869,-7.5437,-7.6096,-7.6724,-7.7382,-7.8041,-7.8699,-7.8789,-7.8789,-7.8789,-7.8789,-7.8789,-7.8789,-7.8789,-7.8759,-7.8639,-7.7622,-7.6754,-7.6245,-7.7203,-7.7562,-7.6993,-7.7502,-7.7771,-7.7652,-7.6514,-7.5557,-7.4869,-7.4869,-7.4869,-7.4869,-7.4869,-7.4869,-7.4869,-7.4869,-7.4869,-7.4869,-7.4869,-7.4869,-7.4869,-7.4869,-7.4869,-7.4869,-7.4869,-7.4869,-7.4869,-7.4869,-7.4869,-7.4869,-7.4869,-7.4869,-7.4869,-7.4869,-7.4869,-7.4869,-7.4869,-7.4869,-7.4899,-7.5018,-7.5048,-7.5048,-7.5048,-7.5377,-7.5766,-7.5886,-7.5826,-7.5766,-7.5886,-7.5347,-7.4869,-7.4869,-7.5347,-7.5736,-7.5736,-7.5736,-7.5736,-7.5736,-7.5826,-7.6096,-7.6634,-7.7921,-7.9238,-8.0375,-8.0674,-8.0943,-8.1302,-8.0794,-8.0434,-8.0345,-8.0973,-8.1302,-8.1302,-8.217,-8.3457,-8.5222,-8.5551,-8.603,-8.6689,-8.6689,-8.6689,-8.6689,-8.6689,-8.6689,-8.6659,-8.6449,-8.5731,-8.4684,-8.4504,-8.3756,-8.2844,-8.2844,-8.3098,-8.3576,-8.3576,-8.3995,-8.4654,-7.4869,-7.5437,-7.6006,-7.6275,-7.7143,-7.7921,-7.822,-7.8549,-7.8789,-7.8789,-7.8789,-7.8789,-7.8789,-7.8789,-7.8639,-7.828,-7.7711,-7.6933,-7.5976,-7.6754,-7.6993,-7.6365,-7.6933,-7.6963,-7.6245,-7.5647,-7.5198,-7.4869,-7.4869,-7.4869,-7.4869,-7.4869,-7.4869,-7.4869,-7.4869,-7.4869,-7.4869,-7.4869,-7.4869,-7.4869,-7.4869,-7.4869,-7.4869,-7.4869,-7.4869,-7.4869,-7.4869,-7.4869,-7.4869,-7.4869,-7.4869,-7.4869,-7.4869,-7.4869,-7.4869,-7.4869,-7.4869,-7.4869,-7.4869,-7.5138,-7.5437,-7.5437,-7.5916,-7.6485,-7.6844,-7.6395,-7.6006,-7.6335,-7.5587,-7.4988,-7.5347,-7.5677,-7.5916,-7.5916,-7.5916,-7.5916,-7.5916,-7.6485,-7.7173,-7.7801,-7.9387,-8.0794,-8.1751,-8.217,-8.2499,-8.2798,-8.223,-8.1691,-8.1362,-8.1631,-8.1931,-8.229,-8.3277,-8.4414,-8.5671,-8.606,-8.6389,-8.6689,-8.6689,-8.6689,-8.6689,-8.6689,-8.6479,-8.612,-8.5761,-8.5073,-8.4145,-8.3816,-8.3307,-8.2844,-8.2844,-8.2948,-8.3247,-8.3606,-8.3936,-8.4325,-7.4869,-7.5288,-7.5707,-7.5886,-7.6844,-7.7622,-7.7801,-7.837,-7.8789,-7.8789,-7.8789,-7.8789,-7.8789,-7.8789,-7.8579,-7.8071,-7.7891,-7.7322,-7.6185,-7.6574,-7.6604,-7.6125,-7.6724,-7.6365,-7.4899,-7.5018,-7.5048,-7.4869,-7.4869,-7.4869,-7.4869,-7.4869,-7.4869,-7.4869,-7.4869,-7.4869,-7.4869,-7.4869,-7.4869,-7.4869,-7.4869,-7.4869,-7.4869,-7.4869,-7.4869,-7.4869,-7.4869,-7.4869,-7.4869,-7.4869,-7.4869,-7.4869,-7.4869,-7.4869,-7.4899,-7.5078,-7.5108,-7.5078,-7.4929,-7.5258,-7.5707,-7.5856,-7.6365,-7.6993,-7.7652,-7.7053,-7.6425,-7.6754,-7.6036,-7.5437,-7.5826,-7.6155,-7.6335,-7.6335,-7.6335,-7.6395,-7.6544,-7.7412,-7.828,-7.8938,-8.0794,-8.22,-8.2709,-8.3487,-8.3965,-8.3965,-8.3487,-8.3008,-8.2499,-8.2469,-8.2769,-8.3427,-8.4414,-8.5252,-8.591,-8.6419,-8.6689,-8.6689,-8.6689,-8.6689,-8.6689,-8.6689,-8.6389,-8.5881,-8.5402,-8.4714,-8.3936,-8.3576,-8.3247,-8.3008,-8.3158,-8.3307,-8.3517,-8.3995,-8.4295,-8.4564,-7.4869,-7.4929,-7.5138,-7.5796,-7.6455,-7.7113,-7.7711,-7.837,-7.8789,-7.8789,-7.8789,-7.8789,-7.8789,-7.8789,-7.8759,-7.8729,-7.816,-7.7502,-7.6814,-7.6814,-7.6814,-7.6754,-7.7382,-7.6844,-7.4929,-7.5497,-7.5527,-7.4869,-7.4869,-7.4869,-7.4869,-7.4869,-7.4869,-7.4869,-7.4869,-7.4869,-7.4869,-7.4869,-7.4869,-7.4869,-7.4869,-7.4869,-7.4869,-7.4869,-7.4869,-7.4869,-7.4869,-7.4869,-7.4869,-7.4869,-7.4869,-7.4869,-7.4869,-7.4869,-7.4988,-7.5647,-7.5826,-7.5677,-7.5048,-7.4929,-7.5108,-7.5736,-7.6365,-7.6993,-7.7652,-7.7741,-7.7502,-7.6933,-7.6754,-7.6514,-7.6006,-7.6874,-7.7682,-7.7682,-7.7682,-7.7891,-7.8489,-7.8669,-7.8968,-7.9656,-8.1482,-8.2709,-8.2844,-8.3906,-8.4654,-8.4654,-8.4594,-8.4564,-8.4504,-8.4504,-8.4803,-8.5462,-8.5581,-8.594,-8.6599,-8.6659,-8.6689,-8.6689,-8.6689,-8.6689,-8.6689,-8.6689,-8.6659,-8.6599,-8.6539,-8.5821,-8.4684,-8.5252,-8.4743,-8.3726,-8.4325,-8.4953,-8.5492,-8.5551,-8.594,-8.6479,-7.4869,-7.4869,-7.4958,-7.5228,-7.5826,-7.6335,-7.6604,-7.7502,-7.819,-7.819,-7.8519,-7.8789,-7.8789,-7.8789,-7.8789,-7.8789,-7.8549,-7.7981,-7.6904,-7.7203,-7.7263,-7.6844,-7.6694,-7.6275,-7.5527,-7.5347,-7.5138,-7.4869,-7.4869,-7.4869,-7.4869,-7.4869,-7.4869,-7.4869,-7.4869,-7.4869,-7.4869,-7.4869,-7.4869,-7.4869,-7.4869,-7.4869,-7.4869,-7.4869,-7.4869,-7.4869,-7.4869,-7.4869,-7.4869,-7.4869,-7.4869,-7.4869,-7.4869,-7.4869,-7.4929,-7.5198,-7.5826,-7.6335,-7.5677,-7.5527,-7.5766,-7.6814,-7.7263,-7.7622,-7.828,-7.81,-7.7741,-7.7502,-7.7113,-7.6874,-7.7053,-7.7472,-7.7801,-7.7801,-7.7801,-7.8041,-7.8699,-7.9148,-7.9836,-8.0913,-8.2409,-8.3517,-8.3936,-8.4803,-8.5492,-8.591,-8.5551,-8.5312,-8.5312,-8.5312,-8.5432,-8.5671,-8.609,-8.6419,-8.6689,-8.6689,-8.6689,-8.6689,-8.6689,-8.6689,-8.6689,-8.6689,-8.624,-8.5492,-8.5881,-8.5312,-8.4145,-8.4803,-8.4803,-8.4384,-8.4624,-8.4863,-8.5132,-8.5551,-8.5851,-8.612,-7.4869,-7.4869,-7.4869,-7.4869,-7.5437,-7.5916,-7.5916,-7.6814,-7.7562,-7.7771,-7.819,-7.8549,-7.8759,-7.8789,-7.8789,-7.8789,-7.8609,-7.8011,-7.6904,-7.7263,-7.7293,-7.6844,-7.6634,-7.6305,-7.5916,-7.5437,-7.5078,-7.4869,-7.4869,-7.4869,-7.4869,-7.4869,-7.4869,-7.4869,-7.4869,-7.4869,-7.4869,-7.4869,-7.4869,-7.4869,-7.4869,-7.4869,-7.4869,-7.4869,-7.4869,-7.4869,-7.4869,-7.4869,-7.4869,-7.4869,-7.4869,-7.4869,-7.4869,-7.5018,-7.5168,-7.4929,-7.5796,-7.6724,-7.6305,-7.6185,-7.6455,-7.7532,-7.7801,-7.7981,-7.8639,-7.843,-7.8041,-7.7861,-7.7622,-7.7502,-7.7771,-7.816,-7.843,-7.843,-7.8609,-7.8968,-7.9627,-8.0135,-8.0853,-8.1961,-8.3247,-8.4205,-8.4684,-8.5492,-8.618,-8.6629,-8.627,-8.6,-8.6,-8.6,-8.6,-8.6,-8.6659,-8.6898,-8.6689,-8.6689,-8.6689,-8.6689,-8.6689,-8.6689,-8.6689,-8.6689,-8.618,-8.5342,-8.5791,-8.5372,-8.4384,-8.5043,-8.5192,-8.5043,-8.5252,-8.5342,-8.5372,-8.5851,-8.6,-8.606,-7.4869,-7.4869,-7.4869,-7.4869,-7.5437,-7.5886,-7.5886,-7.6425,-7.7053,-7.7711,-7.7801,-7.8041,-7.8699,-7.8789,-7.8789,-7.8789,-7.819,-7.7532,-7.6874,-7.6814,-7.6814,-7.6814,-7.7442,-7.7203,-7.5946,-7.5916,-7.5587,-7.4899,-7.4899,-7.4899,-7.4899,-7.4869,-7.4869,-7.4869,-7.4869,-7.4869,-7.4869,-7.4869,-7.4869,-7.4869,-7.4869,-7.4869,-7.4869,-7.4869,-7.4869,-7.4869,-7.4869,-7.4869,-7.4869,-7.4869,-7.4869,-7.4869,-7.4869,-7.5347,-7.5766,-7.5078,-7.5796,-7.6844,-7.6844,-7.6844,-7.6993,-7.7652,-7.7831,-7.7981,-7.8639,-7.8789,-7.8609,-7.7951,-7.834,-7.8609,-7.7951,-7.8908,-7.9836,-7.9836,-8.0375,-8.1033,-8.1691,-8.1781,-8.205,-8.2784,-8.3936,-8.4714,-8.4714,-8.591,-8.6689,-8.6689,-8.6689,-8.6689,-8.6689,-8.6689,-8.6689,-8.6689,-8.7347,-8.7377,-8.6689,-8.6689,-8.6689,-8.6689,-8.6689,-8.6689,-8.6689,-8.6689,-8.6689,-8.6659,-8.6689,-8.6299,-8.5731,-8.6389,-8.6299,-8.5761,-8.6419,-8.6689,-8.6689,-8.6689,-8.6689,-8.6689,-7.4869,-7.4869,-7.4869,-7.4869,-7.5048,-7.5198,-7.5198,-7.5736,-7.6245,-7.6455,-7.7263,-7.7891,-7.8071,-7.8519,-7.8609,-7.813,-7.7921,-7.7532,-7.6874,-7.6425,-7.6365,-7.6814,-7.7442,-7.7203,-7.5946,-7.6335,-7.6245,-7.5587,-7.5587,-7.5587,-7.5587,-7.5108,-7.4869,-7.4869,-7.4869,-7.4869,-7.4869,-7.4869,-7.4869,-7.4869,-7.4869,-7.4869,-7.4869,-7.4869,-7.4869,-7.4869,-7.4869,-7.4869,-7.4869,-7.4869,-7.4869,-7.4869,-7.4869,-7.5347,-7.5856,-7.5647,-7.6514,-7.7502,-7.7502,-7.7861,-7.825,-7.846,-7.8489,-7.8669,-7.9357,-7.9866,-8.0016,-7.9357,-7.9746,-8.0016,-7.9327,-7.9926,-8.0674,-8.1123,-8.1362,-8.1871,-8.3008,-8.3158,-8.3397,-8.4055,-8.4893,-8.5402,-8.5402,-8.618,-8.6689,-8.6689,-8.6689,-8.6689,-8.6689,-8.7137,-8.7407,-8.7407,-8.8035,-8.8065,-8.7407,-8.7407,-8.7167,-8.6689,-8.6689,-8.6689,-8.6689,-8.6689,-8.6419,-8.6,-8.6479,-8.6299,-8.5731,-8.6389,-8.6569,-8.6389,-8.6599,-8.6689,-8.6689,-8.6689,-8.6689,-8.6689,-7.4869,-7.4869,-7.4869,-7.4869,-7.4869,-7.4869,-7.4869,-7.5228,-7.5587,-7.5886,-7.6784,-7.7532,-7.7771,-7.84,-7.8639,-7.822,-7.7711,-7.7143,-7.6514,-7.6125,-7.5946,-7.6036,-7.6933,-7.6933,-7.5916,-7.6006,-7.5886,-7.5497,-7.5497,-7.5497,-7.5497,-7.5078,-7.4869,-7.4869,-7.4869,-7.4869,-7.4869,-7.4869,-7.4869,-7.4869,-7.4869,-7.4869,-7.4869,-7.4869,-7.4869,-7.4869,-7.4869,-7.4869,-7.4869,-7.4869,-7.4869,-7.4869,-7.4869,-7.5168,-7.5557,-7.5826,-7.6634,-7.7472,-7.7741,-7.828,-7.8789,-7.8789,-7.8998,-7.9297,-7.9716,-8.0315,-8.0704,-8.0285,-8.0524,-8.0674,-8.0285,-8.0943,-8.1691,-8.211,-8.2589,-8.3217,-8.4025,-8.4115,-8.4265,-8.4654,-8.5282,-8.5701,-8.5701,-8.6299,-8.6689,-8.6689,-8.6689,-8.6808,-8.7077,-8.7467,-8.7826,-8.8095,-8.8723,-8.8753,-8.8095,-8.8364,-8.8005,-8.7077,-8.6808,-8.6808,-8.7077,-8.6808,-8.6449,-8.609,-8.6509,-8.6449,-8.612,-8.6509,-8.6689,-8.6689,-8.6689,-8.6689,-8.6689,-8.6689,-8.6689,-8.6689,-7.4869,-7.4869,-7.4869,-7.4869,-7.4869,-7.4869,-7.4869,-7.4869,-7.5108,-7.5736,-7.6395,-7.7053,-7.7652,-7.837,-7.8729,-7.8639,-7.7412,-7.6425,-7.5946,-7.5916,-7.5647,-7.5078,-7.6185,-7.6574,-7.6006,-7.5377,-7.5048,-7.5048,-7.4988,-7.4988,-7.5048,-7.4929,-7.4869,-7.4869,-7.4869,-7.4869,-7.4869,-7.4869,-7.4869,-7.4869,-7.4869,-7.4869,-7.4869,-7.4869,-7.4869,-7.4869,-7.4869,-7.4869,-7.4869,-7.4869,-7.4869,-7.4869,-7.4869,-7.4869,-7.5018,-7.5766,-7.6395,-7.6993,-7.7711,-7.834,-7.8789,-7.8789,-7.9357,-7.9896,-7.9896,-8.0405,-8.0883,-8.0883,-8.0943,-8.0973,-8.0973,-8.1991,-8.2888,-8.3008,-8.4025,-8.4833,-8.4893,-8.4893,-8.4893,-8.4893,-8.5432,-8.5791,-8.5881,-8.6479,-8.6868,-8.6868,-8.6868,-8.7137,-8.7766,-8.7856,-8.8155,-8.8753,-8.9412,-8.9441,-8.8783,-8.9352,-8.9052,-8.7796,-8.7167,-8.7197,-8.7766,-8.7137,-8.6868,-8.6868,-8.6868,-8.6868,-8.6838,-8.6778,-8.6778,-8.6748,-8.6689,-8.6689,-8.6689,-8.6689,-8.6689,-8.6689,-7.4869,-7.4869,-7.4869,-7.4869,-7.4869,-7.4869,-7.4869,-7.4869,-7.4929,-7.5078,-7.6096,-7.6874,-7.7023,-7.81,-7.837,-7.7352,-7.6066,-7.5467,-7.5886,-7.5916,-7.6066,-7.6395,-7.6664,-7.6754,-7.6634,-7.6485,-7.6395,-7.6395,-7.5916,-7.5946,-7.6395,-7.5347,-7.4869,-7.4869,-7.4869,-7.4869,-7.4869,-7.4869,-7.4869,-7.4869,-7.4869,-7.4869,-7.4869,-7.4869,-7.4869,-7.4869,-7.4869,-7.4869,-7.4869,-7.4869,-7.4869,-7.4869,-7.4869,-7.4869,-7.5108,-7.6275,-7.6724,-7.7083,-7.825,-7.8669,-7.8789,-7.8789,-7.9686,-8.0584,-8.0584,-8.1093,-8.1572,-8.1572,-8.1991,-8.235,-8.235,-8.2978,-8.3846,-8.4893,-8.5312,-8.5671,-8.618,-8.624,-8.624,-8.624,-8.6389,-8.6689,-8.7227,-8.7856,-8.8245,-8.8245,-8.8245,-8.8304,-8.8454,-8.8963,-8.9292,-8.9441,-9.01,-9.01,-8.9471,-8.9591,-8.9262,-8.8484,-8.8334,-8.8334,-8.8454,-8.8304,-8.8245,-8.8245,-8.8245,-8.8245,-8.8215,-8.7706,-8.7467,-8.7437,-8.6898,-8.6689,-8.6689,-8.6689,-8.6689,-8.6689,-7.6033,-7.6033,-7.6033,-7.6033,-7.5422,-7.4869,-7.4869,-7.4869,-7.4869,-7.4869,-7.6006,-7.6814,-7.6814,-7.8011,-7.8519,-7.7831,-7.6844,-7.6305,-7.6335,-7.6335,-7.6365,-7.6395,-7.6664,-7.6814,-7.6814,-7.6814,-7.6694,-7.6395,-7.6066,-7.5916,-7.5886,-7.5198,-7.4869,-7.4869,-7.4869,-7.4869,-7.4869,-7.4869,-7.4869,-7.4869,-7.4869,-7.4869,-7.4869,-7.4869,-7.4869,-7.4869,-7.4869,-7.4869,-7.4869,-7.4869,-7.4869,-7.4929,-7.5258,-7.5138,-7.5198,-7.6814,-7.7083,-7.7113,-7.843,-7.8789,-7.8789,-7.8789,-7.9567,-8.0405,-8.0734,-8.1542,-8.226,-8.226,-8.2529,-8.2858,-8.3158,-8.3756,-8.4534,-8.5521,-8.597,-8.627,-8.6629,-8.6689,-8.6689,-8.6689,-8.6958,-8.7437,-8.8095,-8.8484,-8.8693,-8.8693,-8.8693,-8.8813,-8.9142,-8.9471,-8.9801,-9.013,-9.0459,-9.0489,-9.013,-9.013,-8.995,-8.9621,-8.8993,-8.8843,-8.9142,-8.8843,-8.8693,-8.8693,-8.8693,-8.8693,-8.8634,-8.7975,-8.7706,-8.7646,-8.6958,-8.6689,-8.6689,-8.6689,-8.6689,-8.6689,-7.729,-7.729,-7.729,-7.729,-7.5966,-7.4869,-7.4869,-7.4869,-7.4929,-7.5048,-7.6343,-7.7134,-7.6814,-7.7801,-7.8489,-7.8609,-7.8011,-7.7442,-7.7023,-7.6993,-7.6814,-7.6425,-7.6904,-7.7173,-7.7173,-7.7173,-7.6814,-7.6066,-7.5946,-7.5617,-7.5048,-7.4929,-7.4869,-7.4869,-7.4869,-7.4869,-7.4869,-7.4869,-7.4869,-7.4869,-7.4869,-7.4869,-7.4869,-7.4869,-7.4869,-7.4869,-7.4869,-7.4869,-7.4869,-7.4869,-7.4958,-7.5138,-7.5587,-7.5497,-7.5527,-7.7173,-7.7322,-7.7263,-7.846,-7.8789,-7.8789,-7.8789,-7.9387,-8.0135,-8.0674,-8.1721,-8.2619,-8.2814,-8.2858,-8.3128,-8.3786,-8.4444,-8.5103,-8.5761,-8.6329,-8.6718,-8.6838,-8.6838,-8.6898,-8.7018,-8.7616,-8.8245,-8.8813,-8.8963,-8.9023,-8.9023,-8.9023,-8.9262,-8.9801,-8.983,-9.007,-9.0608,-9.0638,-9.0638,-9.0638,-9.0638,-9.0638,-9.0638,-8.9531,-8.9292,-8.9801,-8.9262,-8.9023,-8.9023,-8.9023,-8.9023,-8.8963,-8.8304,-8.8035,-8.7975,-8.7167,-8.6838,-8.6838,-8.6718,-8.6689,-8.6689,-7.729,-7.729,-7.729,-7.729,-7.5966,-7.4869,-7.4869,-7.4869,-7.5078,-7.5677,-7.7691,-7.8458,-7.6954,-7.6993,-7.7322,-7.7891,-7.7352,-7.7173,-7.7652,-7.7682,-7.7891,-7.837,-7.8489,-7.8519,-7.8519,-7.8519,-7.7921,-7.6694,-7.6185,-7.5856,-7.5766,-7.5138,-7.4869,-7.4869,-7.4869,-7.4869,-7.4869,-7.4869,-7.4869,-7.4869,-7.4869,-7.4869,-7.4869,-7.4869,-7.4869,-7.4869,-7.4869,-7.4869,-7.4869,-7.4869,-7.5288,-7.5677,-7.5168,-7.5736,-7.6604,-7.6874,-7.7293,-7.7831,-7.8579,-7.8789,-7.8789,-7.8789,-7.9746,-8.0704,-8.0764,-8.1392,-8.208,-8.2649,-8.3217,-8.3786,-8.4444,-8.5103,-8.5791,-8.6449,-8.6629,-8.6868,-8.7467,-8.7556,-8.7766,-8.8334,-8.8993,-8.9441,-8.9531,-9.004,-9.0369,-9.0369,-9.0369,-9.0399,-9.0489,-9.0519,-9.0549,-9.0638,-9.0638,-9.0638,-9.0638,-9.0638,-9.0638,-9.0638,-9.0459,-9.0429,-9.0519,-9.0399,-9.0369,-9.0369,-9.0369,-9.0369,-9.0309,-8.9681,-8.9412,-8.9292,-8.8035,-8.7556,-8.7496,-8.6898,-8.6689,-8.6689,-7.8502,-7.8691,-7.8691,-7.8691,-7.7321,-7.6268,-7.6268,-7.6604,-7.734,-7.8509,-8.0291,-8.0754,-7.9039,-7.8288,-7.8437,-7.9703,-7.8348,-7.7502,-7.7801,-7.7801,-7.7951,-7.822,-7.8579,-7.8789,-7.8789,-7.8789,-7.834,-7.7382,-7.6724,-7.6036,-7.5318,-7.5018,-7.4869,-7.4869,-7.4869,-7.4869,-7.4869,-7.4869,-7.4869,-7.4869,-7.4869,-7.4869,-7.4869,-7.4869,-7.4869,-7.4869,-7.4869,-7.5138,-7.5437,-7.5437,-7.5647,-7.5976,-7.6395,-7.6425,-7.6514,-7.7622,-7.7861,-7.7951,-7.8609,-7.8789,-7.8878,-7.9267,-8.0105,-8.0883,-8.1272,-8.1871,-8.2409,-8.2784,-8.2978,-8.3517,-8.4534,-8.4953,-8.5492,-8.6509,-8.6988,-8.7227,-8.7137,-8.7796,-8.8514,-8.9142,-8.9501,-8.9801,-9.016,-9.0459,-9.0638,-9.0638,-9.0638,-9.0638,-9.0638,-9.0638,-9.0638,-9.0638,-9.0638,-9.0638,-9.0638,-9.0638,-9.0638,-9.0638,-9.0638,-9.0638,-9.0638,-9.0638,-9.0638,-9.0638,-9.0638,-9.0638,-9.0579,-8.995,-8.9681,-8.9561,-8.8634,-8.8035,-8.7616,-8.6928,-8.6689,-8.6689]},{"header":{"parameterUnit":"m.s-1","parameterCategory":1,"la1":30.6,"la2":28.766,"lo1":-90.7593,"lo2":-88.6598,"dy":0.0162,"dx":0.0183,"nx":116,"ny":114,"refTime":"2024-04-09T06:00:00:Z","depth":0,"parameterNumber":3,"parameterNumberName":"V-component_of_WINDS"},"data":[0.0,0.0,0.0,0.0,0.0,0.0,0.0,0.0,0.0,0.0,0.0,0.0,0.0,0.0,0.0,0.0,0.0,0.0,0.0,0.0,0.0,0.0,0.0,0.0,0.0,0.0,0.0,0.0,0.0,0.0,0.0,0.0,0.0,0.0,0.0,0.0,0.0,0.0,0.0,0.0,0.0,0.0,0.0,0.0,0.0,0.0,0.0,0.0,0.0,0.0,0.0,0.0,0.0,0.0,0.0,0.0,0.0,0.0,0.0,0.0,0.0,0.0,0.0,0.0,0.0,0.0,0.0,0.0,0.0,0.0,0.0,0.0,0.0,0.0,0.0,0.0,0.0,0.0,0.0,0.0,0.0,0.0,0.0,0.0,0.0,0.0,0.0,0.0,0.0,0.0,0.0,0.0,0.0,0.0,0.0,0.0,0.0,0.0,0.0,0.0,0.0,0.0,0.0,0.0,0.0,0.0,0.0,0.0,0.0,0.0,0.0,0.0,0.0,0.0,0.0,0.0,0.0,0.0,0.0,0.0,0.0,0.0,0.0,0.0,0.0,0.0,0.0,0.0,0.0,0.0,0.0,0.0,0.0,0.0,0.0,0.0,0.0,0.0,0.0,0.0,0.0,0.0,0.0,0.0,0.0,0.0,0.0,0.0,0.0,0.0,0.0,0.0,0.0,0.0,0.0,0.0,0.0,0.0,0.0,0.0,0.0,0.0,0.0,0.0,0.0,0.0,0.0,0.0,0.0,0.0,0.0,0.0,0.0,0.0,0.0,0.0,0.0,0.0,0.0,0.0,0.0,0.0,0.0,0.0,0.0,0.0,0.0,0.0,0.0,0.0,0.0,0.0,0.0,0.0,0.0,0.0,0.0,0.0,0.0,0.0,0.0,0.0,0.0,0.0,0.0,0.0,0.0,0.0,0.0,0.0,0.0,0.0,0.0,0.0,0.0,0.0,0.0,0.0,0.0,0.0,0.0,0.0,0.0,0.0,0.0,0.0,0.0,0.0,0.0,0.0,0.0,0.0,0.0,0.0,0.0,0.0,0.0,0.0,0.0,0.0,0.0,0.0,0.0,0.0,0.0,0.0,0.0,0.0,0.0,0.0,0.0,0.0,0.0,0.0,0.0,0.0,0.0,0.0,0.0,0.0,0.0,0.0,0.0,0.0,0.0,0.0,0.0,0.0,0.0,0.0,0.0,0.0,0.0,0.0,0.0,0.0,0.0,0.0,0.0,0.0,0.0,0.0,0.0,0.0,0.0,0.0,0.0,0.0,0.0,0.0,0.0,0.0,0.0,0.0,0.0,0.0,0.0,0.0,0.0,0.0,0.0,0.0,0.0,0.0,0.0,0.0,0.0,0.0,0.0,0.0,0.0,0.0,0.0,0.0,0.0,0.0,0.0,0.0,0.0,0.0,0.0,0.0,0.0,0.0,0.0,0.0,0.0,0.0,0.0,0.0,0.0,0.0,0.0,0.0,0.0,0.0,0.0,0.0,0.0,0.0,0.0,0.0,0.0,0.0,0.0,0.0,0.0,0.0,0.0,0.0,0.0,0.0,0.0,0.0,0.0,0.0,0.0,0.0,0.0,0.0,0.0,0.0,0.0,0.0,0.0,0.0,0.0,0.0,0.0,0.0,0.0,0.0,0.0,0.0,0.0,0.0,0.0,0.0,0.0,0.0,0.0,0.0,0.0,0.0,0.0,0.0,0.0,0.0,0.0,0.0,0.0,0.0,0.0,0.0,0.0,0.0,0.0,0.0,0.0,0.0,0.0,0.0,0.0,0.0,0.0,0.0,0.0,0.0,0.0,0.0,0.0,0.0,0.0,0.0,0.0,0.0,0.0,0.0,0.0,0.0,0.0,0.0,0.0,0.0,0.0,0.0,0.0,0.0,0.0,0.0,0.0,0.0,0.0,0.0,0.0,0.0,0.0,0.0,0.0,0.0,0.0,0.0,0.0,0.0,0.0,0.0,0.0,0.0,0.0,0.0,0.0,0.0,0.0,0.0,0.0,0.0,0.0,0.0,0.0,0.0,0.0,0.0,0.0,0.0,0.0,0.0,0.0,0.0,0.0,0.0,0.0,0.0,0.0,0.0,0.0,0.0,0.0,0.0,0.0,0.0,0.0,0.0,0.0,0.0,0.0,0.0,0.0,0.0,0.0,0.0,0.0,0.0,0.0,0.0,0.0,0.0,0.0,0.0,0.0,0.0,0.0,0.0,0.0,0.0,0.0,0.0,0.0,0.0,0.0,0.0,0.0,0.0,0.0,0.0,0.0,0.0,0.0,0.0,0.0,0.0,0.0,0.0,0.0,0.0,0.0,0.0,0.0,0.0,0.0,0.0,0.0,0.0,0.0,0.0,0.0,0.0,0.0,0.0,0.0,0.0,0.0,0.0,0.0,0.0,0.0,0.0,0.0,0.0,0.0,0.0,0.0,0.0,0.0,0.0,0.0,0.0,0.0,0.0,0.0,0.0,0.0,0.0,0.0,0.0,0.0,0.0,0.0,0.0,0.0,0.0,0.0,0.0,0.0,0.0,0.0,0.0,0.0,0.0,0.0,0.0,0.0,0.0,0.0,0.0,0.0,0.0,0.0,0.0,0.0,0.0,0.0,0.0,0.0,0.0,0.0,0.0,0.0,0.0,0.0,0.0,0.0,0.0,0.0,0.0,0.0,0.0,0.0,0.0,0.0,0.0,0.0,0.0,0.0,0.0,0.0,0.0,0.0,0.0,0.0,0.0,0.0,0.0,0.0,0.0,0.0,0.0,0.0,0.0,0.0,0.0,0.0,0.0,0.0,0.0,0.0,0.0,0.0,0.0,0.0,0.0,0.0,0.0,0.0,0.0,0.0,0.0,0.0,0.0,0.0,0.0,0.0,0.0,0.0,0.0,0.0,0.0,0.0,0.0,0.0,0.0,0.0,0.0,0.0,0.0,0.0,0.0,0.0,0.0,0.0,0.0,0.0,0.0,0.0,0.0,0.0,0.0,0.0,0.0,0.0,0.0,0.0,0.0,0.0,0.0,0.0,0.0,0.0,0.0,0.0,0.0,0.0,0.0,0.0,0.0,0.0,0.0,0.0,0.0,0.0,0.0,0.0,0.0,0.0,0.0,0.0,0.0,0.0,0.0,0.0,0.0,0.0,0.0,0.0,0.0,0.0,0.0,0.0,0.0,0.0,0.0,0.0,0.0,0.0,0.0,0.0,0.0,0.0,0.0,0.0,0.0,0.0,0.0,0.0,0.0,0.0,0.0,0.0,0.0,0.0,0.0,0.0,0.0,0.0,0.0,0.0,0.0,0.0,0.0,0.0,0.0,0.0,0.0,0.0,0.0,0.0,0.0,0.0,0.0,0.0,0.0,0.0,0.0,0.0,0.0,0.0,0.0,0.0,0.0,0.0,0.0,0.0,0.0,0.0,0.0,0.0,0.0,0.0,0.0,0.0,0.0,0.0,0.0,0.0,0.0,0.0,0.0,0.0,0.0,0.0,0.0,0.0,0.0,0.0,0.0,0.0,0.0,0.0,0.0,0.0,0.0,0.0,0.0,0.0,0.0,0.0,0.0,0.0,0.0,0.0,0.0,0.0,0.0,0.0,0.0,0.0,0.0,0.0,0.0,0.0,0.0,0.0,0.0,0.0,0.0,0.0,0.0,0.0,0.0,0.0,0.0,0.0,0.0,0.0,0.0,0.0,0.0,0.0,0.0,0.0,0.0,0.0,0.0,0.0,0.0,0.0,0.0,0.0,0.0,0.0,0.0,0.0,0.0,0.0,0.0,0.0,0.0,0.0,0.0,0.0,0.0,0.0,0.0,0.0,0.0,0.0,0.0,0.0,0.0,0.0,0.0,0.0,0.0,0.0,0.0,0.0,0.0,0.0,0.0,0.0,0.0,0.0,0.0,0.0,0.0,0.0,0.0,0.0,0.0,0.0,0.0,0.0,0.0,0.0,0.0,0.0,0.0,0.0,0.0,0.0,0.0,0.0,0.0,0.0,0.0,0.0,0.0,0.0,0.0,0.0,0.0,0.0,0.0,0.0,0.0,0.0,0.0,0.0,0.0,0.0,0.0,0.0,0.0,0.0,0.0,0.0,0.0,0.0,0.0,0.0,0.0,0.0,0.0,0.0,0.0,0.0,0.0,0.0,0.0,0.0,0.0,0.0,0.0,0.0,0.0,0.0,0.0,0.0,0.0,0.0,0.0,0.0,0.0,0.0,0.0,0.0,0.0,0.0,0.0,0.0,0.0,0.0,0.0,0.0,0.0,0.0,0.0,0.0,0.0,0.0,0.0,0.0,0.0,0.0,0.0,0.0,0.0,0.0,0.0,0.0,0.0,0.0,0.0,0.0,0.0,0.0,0.0,0.0,0.0,0.0,0.0,0.0,0.0,0.0,0.0,0.0,0.0,0.0,0.0,0.0,0.0,0.0,0.0,0.0,0.0,0.0,0.0,0.0,0.0,0.0,0.0,0.0,0.0,0.0,0.0,0.0,0.0,0.0,0.0,0.0,0.0,0.0,0.0,0.0,0.0,0.0,0.0,0.0,0.0,0.0,0.0,0.0,0.0,0.0,0.0,0.0,0.0,0.0,0.0,0.0,0.0,0.0,0.0,0.0,0.0,0.0,0.0,0.0,0.0,0.0,0.0,0.0,0.0,0.0,0.0,0.0,0.0,0.0,0.0,0.0,0.0,0.0,0.0,0.0,0.0,0.0,0.0,0.0,0.0,0.0,0.0,0.0,0.0,0.0,0.0,0.0,0.0,0.0,0.0,0.0,0.0,0.0,0.0,0.0,0.0,0.0,0.0,0.0,0.0,0.0,0.0,0.0,0.0,0.0,0.0,0.0,0.0,0.0,0.0,0.0,0.0,0.0,0.0,0.0,0.0,0.0,0.0,0.0,0.0,0.0,0.0,0.0,0.0,0.0,0.0,0.0,0.0,0.0,0.0,0.0,0.0,0.0,0.0,0.0,0.0,0.0,0.0,0.0,0.0,0.0,0.0,0.0,0.0,0.0,0.0,0.0,0.0,0.0,0.0,0.0,0.0,0.0,0.0,0.0,0.0,0.0,0.0,0.0,0.0,0.0,0.0,0.0,0.0,0.0,0.0,0.0,0.0,0.0,0.0,0.0,0.0,0.0,0.0,0.0,0.0,0.0,0.0,0.0,0.0,0.0,0.0,0.0,0.0,0.0,0.0,0.0,0.0,0.0,0.0,0.0,0.0,0.0,0.0,0.0,0.0,0.0,0.0,0.0,0.0,0.0,0.0,0.0,0.0,0.0,0.0,0.0,0.0,0.0,0.0,0.0,0.0,0.0,0.0,0.0,0.0,0.0,0.0,0.0,0.0,0.0,0.0,0.0,0.0,0.0,0.0,0.0,0.0,0.0,0.0,0.0,0.0,0.0,0.0,0.0,0.0,0.0,0.0,0.0,0.0,0.0,0.0,0.0,0.0,0.0,0.0,0.0,0.0,0.0,0.0,0.0,0.0,0.0,0.0,0.0,0.0,0.0,0.0,0.0,0.0,0.0,0.0,0.0,0.0,0.0,0.0,0.0,0.0,0.0,0.0,0.0,0.0,0.0,0.0,0.0,0.0,0.0,0.0,0.0,0.0,0.0,0.0,0.0,0.0,0.0,0.0,0.0,0.0,0.0,0.0,0.0,0.0,0.0,0.0,0.0,0.0,0.0,0.0,0.0,0.0,0.0,0.0,0.0,0.0,0.0,0.0,0.0,0.0,0.0,0.0,0.0,0.0,0.0,0.0,0.0,0.0,0.0,0.0,0.0,0.0,0.0,0.0,0.0,0.0,0.0,0.0,0.0,0.0,0.0,0.0,0.0,0.0,0.0,0.0,0.0,0.0,0.0,0.0,0.0,0.0,0.0,0.0,0.0,0.0,0.0,0.0,0.0,0.0,0.0,0.0,0.0,0.0,0.0,0.0,0.0,0.0,0.0,0.0,0.0,0.0,0.0,0.0,0.0,0.0,0.0,0.0,0.0,0.0,0.0,0.0,0.0,0.0,0.0,0.0,0.0,0.0,0.0,0.0,0.0,0.0,0.0,0.0,0.0,0.0,0.0,0.0,0.0,0.0,0.0,0.0,0.0,0.0,5.2764,5.2443,0.0,0.0,0.0,0.0,0.0,0.0,0.0,0.0,0.0,0.0,0.0,0.0,0.0,0.0,0.0,0.0,0.0,0.0,0.0,0.0,0.0,0.0,0.0,6.248,6.3199,6.3498,6.3528,6.3528,6.3528,6.3528,0.0,0.0,0.0,0.0,6.1762,6.0899,6.0477,6.0477,5.9812,5.9008,5.7972,5.8661,5.7969,5.6219,0.0,0.0,0.0,0.0,0.0,0.0,0.0,0.0,0.0,0.0,0.0,0.0,0.0,0.0,0.0,0.0,0.0,0.0,0.0,0.0,0.0,0.0,0.0,0.0,0.0,0.0,0.0,0.0,0.0,0.0,0.0,0.0,0.0,0.0,0.0,0.0,0.0,0.0,0.0,0.0,0.0,0.0,0.0,0.0,0.0,0.0,0.0,0.0,0.0,0.0,0.0,0.0,0.0,0.0,0.0,0.0,0.0,0.0,0.0,0.0,0.0,0.0,0.0,0.0,0.0,0.0,0.0,0.0,0.0,0.0,5.7941,5.6421,0.0,0.0,0.0,0.0,0.0,0.0,0.0,0.0,0.0,0.0,0.0,0.0,0.0,0.0,0.0,0.0,0.0,0.0,0.0,0.0,0.0,6.1762,6.1343,6.245,6.3438,6.3947,6.4006,6.4006,6.4006,6.3887,6.3617,6.3109,6.3079,6.3079,6.3079,6.3079,6.2959,6.272,6.1642,6.0954,6.0625,6.0954,6.0209,5.8535,5.8064,0.0,0.0,0.0,0.0,0.0,0.0,0.0,0.0,0.0,0.0,0.0,0.0,0.0,0.0,0.0,0.0,0.0,0.0,0.0,0.0,0.0,0.0,0.0,0.0,0.0,0.0,0.0,0.0,0.0,0.0,0.0,0.0,0.0,0.0,0.0,0.0,0.0,0.0,0.0,0.0,0.0,0.0,0.0,0.0,0.0,0.0,0.0,0.0,0.0,0.0,0.0,0.0,0.0,0.0,0.0,0.0,0.0,0.0,0.0,0.0,0.0,0.0,0.0,6.643,6.7627,6.9303,6.8734,6.8196,6.7476,6.4109,6.1645,5.9946,6.0005,0.0,0.0,0.0,0.0,0.0,0.0,0.0,0.0,0.0,0.0,0.0,0.0,0.0,0.0,0.0,0.0,0.0,0.0,0.0,6.1433,6.1912,6.3109,6.3917,6.3977,6.4006,6.4006,6.4006,6.3498,6.3169,6.3079,6.3079,6.3079,6.3079,6.3079,6.251,6.1373,6.1194,6.1642,6.272,6.4425,6.5053,6.469,6.1401,6.0132,6.0347,0.0,0.0,0.0,0.0,0.0,0.0,0.0,0.0,0.0,0.0,0.0,0.0,0.0,0.0,0.0,0.0,0.0,0.0,0.0,0.0,0.0,0.0,0.0,0.0,0.0,0.0,0.0,0.0,0.0,0.0,0.0,0.0,0.0,0.0,0.0,0.0,0.0,0.0,0.0,0.0,0.0,5.2051,5.2553,0.0,0.0,0.0,0.0,0.0,0.0,0.0,0.0,0.0,0.0,0.0,0.0,0.0,6.367,6.5485,6.7157,6.8456,6.9273,6.9393,6.9871,7.0649,7.056,7.047,7.041,7.0395,0.0,6.3202,6.1347,0.0,0.0,0.0,0.0,0.0,0.0,0.0,0.0,0.0,0.0,0.0,0.0,0.0,0.0,0.0,0.0,0.0,0.0,0.0,0.0,0.0,6.2929,6.3617,6.3977,6.5024,6.5203,6.4066,6.4784,6.4635,6.3139,6.3079,6.3079,6.3079,6.272,6.2061,6.1104,6.1852,6.269,6.3617,6.4874,6.6041,6.7059,6.5399,6.398,6.2697,6.11,0.0,0.0,0.0,0.0,0.0,0.0,0.0,0.0,0.0,0.0,0.0,0.0,0.0,0.0,0.0,0.0,0.0,0.0,0.0,0.0,0.0,0.0,0.0,0.0,0.0,0.0,0.0,0.0,0.0,0.0,0.0,0.0,0.0,0.0,0.0,0.0,0.0,0.0,0.0,5.298,5.416,5.3457,5.4486,5.4762,0.0,0.0,0.0,0.0,0.0,0.0,0.0,0.0,0.0,6.3545,6.5886,6.7511,6.8366,6.9878,7.1338,7.2714,7.3103,7.4031,7.5318,7.4958,7.4779,7.4779,7.4689,7.2505,6.8761,6.5964,6.3222,6.0566,0.0,0.0,0.0,0.0,5.7169,5.7973,0.0,0.0,0.0,0.0,0.0,0.0,0.0,0.0,0.0,0.0,0.0,0.0,6.2301,6.3079,6.3827,6.4455,6.6041,6.6281,6.4635,6.5592,6.5293,6.3169,6.3228,6.3228,6.3079,6.2271,6.1852,6.1852,6.3199,6.4395,6.5562,6.658,6.7837,6.9243,6.9243,6.7919,6.5647,6.3321,6.1546,6.0041,0.0,0.0,0.0,0.0,0.0,0.0,0.0,0.0,0.0,0.0,0.0,0.0,0.0,0.0,0.0,0.0,0.0,0.0,0.0,0.0,0.0,0.0,0.0,0.0,0.0,0.0,0.0,0.0,0.0,0.0,0.0,0.0,0.0,0.0,0.0,0.0,0.0,5.4436,5.5681,5.4733,5.6437,5.7193,0.0,0.0,0.0,0.0,0.0,0.0,6.2501,6.4879,6.6919,6.8494,7.0123,7.1338,7.2176,7.2984,7.433,7.6155,7.6664,7.7652,7.9028,7.8549,7.813,7.7771,7.7113,7.5527,7.3193,7.038,6.6941,6.3353,6.2858,6.1886,6.0794,6.0659,6.1055,6.1473,0.0,0.0,0.0,0.0,0.0,0.0,0.0,0.0,0.0,0.0,0.0,6.0924,6.281,6.4156,6.5203,6.5862,6.658,6.67,6.5951,6.4814,6.3827,6.3109,6.3647,6.3677,6.3079,6.1822,6.2061,6.3857,6.5203,6.7178,6.9722,7.1637,7.2565,7.2654,7.2654,7.1541,6.9564,6.7561,6.5706,6.408,6.2687,0.0,0.0,0.0,0.0,0.0,0.0,0.0,0.0,0.0,0.0,0.0,0.0,0.0,0.0,0.0,0.0,0.0,0.0,0.0,0.0,0.0,0.0,0.0,0.0,0.0,0.0,0.0,0.0,0.0,0.0,0.0,0.0,0.0,0.0,0.0,0.0,0.0,0.0,5.7078,5.8578,0.0,0.0,0.0,0.0,6.0584,6.3942,6.6372,6.7036,6.9286,7.1745,7.4411,7.4001,7.5198,7.831,7.7801,7.819,7.9567,7.9597,7.9686,7.9776,7.9746,7.9028,7.7771,7.7113,7.6036,7.4659,7.3253,7.1063,6.8608,6.8579,6.8486,6.8333,6.7769,6.675,6.5506,0.0,0.0,0.0,0.0,0.0,5.9099,5.9099,6.0027,6.0835,6.1074,6.1642,6.278,6.4755,6.5383,6.6281,6.7807,6.8136,6.7807,6.6729,6.5802,6.4814,6.3707,6.4779,6.5101,6.4457,6.4862,6.493,6.4665,6.7331,6.9579,7.1218,7.2385,7.3373,7.418,7.418,7.3313,7.1727,6.9303,6.7198,6.5214,6.2383,6.0181,0.0,0.0,0.0,0.0,0.0,0.0,0.0,0.0,0.0,0.0,0.0,0.0,0.0,0.0,0.0,0.0,0.0,0.0,0.0,0.0,0.0,0.0,0.0,0.0,0.0,0.0,0.0,0.0,0.0,0.0,0.0,0.0,0.0,0.0,0.0,0.0,0.0,6.1788,6.3672,0.0,6.6053,6.6041,6.6058,6.6354,6.7656,6.9096,7.0604,7.0845,7.2678,7.6487,7.4905,7.6144,8.0704,7.8211,7.8123,8.0434,8.0016,8.0045,8.0434,8.0016,7.9567,7.9028,7.7951,7.6963,7.6066,7.5198,7.3013,7.0141,6.9333,6.8245,6.7087,6.7232,6.6413,6.5279,0.0,0.0,0.0,0.0,0.0,5.9099,5.9099,6.0236,6.0864,6.0206,6.1852,6.3647,6.5173,6.634,6.7807,6.9812,6.9363,6.8525,6.7388,6.6071,6.5051,6.4398,6.5761,6.6233,6.5543,6.6878,6.7085,6.6064,6.9292,7.1322,7.2265,7.3163,7.4031,7.4869,7.4869,7.439,7.3432,7.1248,6.9034,6.6727,6.382,6.2474,6.1623,0.0,0.0,0.0,0.0,0.0,0.0,0.0,0.0,0.0,0.0,0.0,0.0,0.0,0.0,0.0,0.0,0.0,0.0,0.0,0.0,0.0,0.0,0.0,0.0,0.0,0.0,0.0,0.0,0.0,0.0,0.0,0.0,0.0,0.0,5.8727,6.2816,6.6115,6.8974,7.1097,7.2159,7.1439,7.0976,7.1076,7.1016,7.1803,7.3518,7.296,7.439,7.8294,7.6549,7.7499,8.1781,7.9447,7.8833,7.9956,8.0348,8.0184,7.9706,7.9781,7.9567,7.9088,7.7951,7.7113,7.6385,7.5068,7.3261,7.1124,7.0297,6.8779,6.704,6.7437,6.6601,6.5139,0.0,0.0,0.0,0.0,0.0,5.9099,5.9099,6.0236,6.0416,5.8411,6.1074,6.3408,6.4036,6.7089,6.9871,7.1787,7.0111,6.8704,6.8046,6.5443,6.4311,6.5173,6.649,6.6914,6.6355,6.7702,6.8371,6.8183,7.0877,7.2455,7.299,7.4308,7.4869,7.4869,7.4869,7.4869,7.4779,7.3522,7.1487,6.9034,6.7567,6.6336,6.5109,0.0,0.0,0.0,0.0,0.0,0.0,0.0,0.0,0.0,0.0,0.0,0.0,0.0,0.0,0.0,0.0,0.0,0.0,0.0,0.0,0.0,0.0,0.0,0.0,0.0,0.0,0.0,0.0,0.0,0.0,0.0,0.0,0.0,5.5537,6.1308,6.6634,6.9903,7.3954,7.6869,7.77,7.5727,7.44,7.44,7.4027,7.4335,7.568,7.5679,7.7037,8.0035,7.8831,7.922,8.1796,8.1556,8.05,7.85,8.0622,8.0192,7.7626,7.91,7.9088,7.7801,7.7042,7.6344,7.5647,7.2889,7.1784,7.1712,7.1784,7.0594,6.8812,6.8812,6.7522,6.5267,0.0,0.0,0.0,5.8949,5.9099,5.9099,5.9099,6.0236,6.0565,5.9039,6.254,6.5443,6.6101,6.9123,7.1697,7.3223,7.0231,6.8375,6.8704,6.4874,6.4061,6.7303,6.7195,6.7735,6.9125,7.0575,7.1044,7.0474,7.261,7.3991,7.4541,7.4305,7.442,7.4869,7.4869,7.4869,7.4869,7.448,7.3642,7.2235,6.8495,6.6544,6.5426,0.0,0.0,0.0,0.0,0.0,0.0,0.0,0.0,0.0,0.0,0.0,0.0,0.0,0.0,0.0,0.0,0.0,0.0,0.0,0.0,0.0,0.0,0.0,0.0,0.0,0.0,0.0,0.0,0.0,0.0,0.0,5.6154,5.7945,6.0538,6.2843,6.6154,7.1537,7.3841,7.5806,7.8172,7.6948,7.6176,7.6621,7.4723,7.3927,7.4761,7.3646,7.4138,7.6694,7.4359,7.573,8.1274,7.6415,7.6079,8.0152,7.8218,7.7662,7.8464,7.89,7.8878,7.8388,7.5771,7.4576,7.4097,7.0973,6.8888,6.7648,6.9113,6.8511,6.6674,6.6674,6.5136,6.3032,0.0,0.0,0.0,5.853,5.868,5.88,5.9069,5.9997,5.9997,5.8112,6.263,6.5951,6.5742,6.8944,7.1517,7.2565,6.9273,6.7208,6.7328,6.483,6.4429,6.6774,6.7541,6.8525,6.9777,7.1828,7.2686,7.2249,7.39,7.4901,7.518,7.4596,7.4659,7.5318,7.5318,7.5437,7.5677,7.5407,7.5078,7.442,7.0889,6.9423,6.8907,6.5418,6.4517,6.4978,6.3878,6.3644,6.378,6.3339,0.0,0.0,0.0,0.0,0.0,0.0,0.0,0.0,0.0,0.0,0.0,0.0,0.0,0.0,0.0,0.0,0.0,0.0,0.0,0.0,0.0,0.0,0.0,0.0,5.9752,6.2478,6.6517,6.7203,6.9039,7.3813,7.6343,7.8316,8.0059,7.8577,7.7498,7.7424,7.4932,7.3495,7.3663,7.2758,7.3078,7.4938,7.3393,7.4482,7.8608,7.4964,7.4307,7.6643,7.5591,7.5572,7.6486,7.718,7.7314,7.6946,7.5024,7.337,7.1906,6.9066,6.7148,6.5922,0.0,0.0,0.0,0.0,6.3444,6.2079,0.0,0.0,0.0,5.7782,5.8022,5.8201,5.88,5.9488,5.9039,5.6406,6.1792,6.5293,6.3737,6.7208,6.9901,7.053,6.7508,6.5293,6.4635,6.4596,6.4693,6.4906,6.7476,6.891,6.9074,7.1827,7.3347,7.3529,7.4742,7.534,7.5432,7.5056,7.5258,7.5916,7.5916,7.6245,7.6784,7.6245,7.6006,7.5856,7.4061,7.3522,7.3462,7.038,7.062,7.2355,7.062,6.9363,6.8307,6.6481,0.0,0.0,0.0,0.0,0.0,0.0,0.0,0.0,0.0,0.0,0.0,0.0,0.0,0.0,0.0,0.0,0.0,0.0,0.0,0.0,0.0,0.0,0.0,0.0,6.4089,6.6872,7.1718,7.2307,7.3129,7.5784,7.9359,8.1545,8.1545,7.9681,7.8005,7.6967,7.4754,7.3293,7.2841,7.2765,0.0,0.0,0.0,7.432,7.4911,7.5074,7.3884,7.138,7.294,7.3562,7.3279,7.4606,7.4934,7.4447,7.4135,7.2263,6.9319,6.7189,6.6002,6.5477,6.5477,6.4338,6.2822,6.2822,6.2471,6.1918,0.0,0.0,5.6406,5.7154,5.7304,5.7334,5.7453,5.853,5.8351,5.5718,6.1134,6.4096,6.1164,6.4874,6.7837,6.8495,6.5054,6.257,6.1912,6.1837,6.2767,6.4991,6.6135,6.7232,6.839,7.0716,7.2746,7.4423,7.5024,7.5873,7.7033,7.5592,7.5258,7.5916,7.5916,7.6245,7.6814,7.6694,7.6664,7.6604,7.6215,7.4869,7.2924,7.1188,7.053,7.05,7.0111,7.0829,7.1721,7.029,7.0641,7.111,6.8028,6.6365,0.0,0.0,0.0,0.0,0.0,0.0,0.0,0.0,0.0,0.0,0.0,0.0,0.0,0.0,0.0,0.0,0.0,0.0,0.0,6.0942,6.3312,6.595,6.9571,7.152,7.3012,7.4027,7.5577,7.6606,7.6606,7.5838,7.5397,7.5528,7.3931,7.3042,7.3418,7.2991,7.2602,7.2361,7.1997,7.2425,7.3894,7.0888,7.0881,7.365,7.1363,0.0,7.2672,7.2928,7.3052,7.2756,7.0631,6.908,6.7854,6.5338,6.3955,6.3341,6.3341,6.3123,6.2822,6.2822,6.2471,6.1918,0.0,5.4491,5.5388,5.6047,5.6406,5.6735,5.7034,5.7663,5.7633,5.6316,6.0475,6.281,6.0805,6.3258,6.4904,6.4575,6.1822,6.0361,6.095,6.1332,6.2418,6.439,6.583,6.695,6.7643,7.0053,7.2214,7.3999,7.449,7.5454,7.6836,7.551,7.5407,7.6365,7.6365,7.6904,7.7801,7.7442,7.7322,7.7293,7.6963,7.6245,7.5258,7.424,7.3672,7.3402,7.3402,7.3193,7.2804,7.2146,7.1906,7.1577,6.9632,6.8315,6.7145,0.0,0.0,0.0,0.0,0.0,0.0,0.0,0.0,0.0,0.0,0.0,0.0,0.0,0.0,5.6488,5.7271,0.0,6.0197,6.3486,6.6145,6.8613,7.11,7.3389,7.4618,7.4016,7.4975,7.5653,7.5653,7.5402,7.5126,7.4849,7.4046,7.3443,7.3167,7.2891,7.2464,7.1937,7.1359,7.1332,7.1961,6.9473,6.9137,7.1042,6.913,6.9119,7.088,7.088,7.088,7.0772,6.9183,6.7596,6.5986,6.407,6.3099,6.2822,6.2822,6.2822,6.2822,6.2822,6.2295,6.1592,0.0,0.0,5.4072,5.485,5.5448,5.6017,5.6645,5.6825,5.6885,5.6735,5.9518,6.1164,6.0266,6.1313,6.1583,6.0266,5.877,5.8686,6.0638,6.1473,6.26,6.4083,6.5883,6.6985,6.7262,6.9608,7.1632,7.3283,7.3842,7.484,7.6201,7.5291,7.5587,7.6814,7.6814,7.7562,7.8759,7.822,7.8011,7.7951,7.7412,7.7532,7.7951,7.7412,7.7203,7.7173,7.6904,7.5138,7.2924,7.3073,7.1876,7.026,6.9722,6.9273,6.8734,6.7687,6.6819,0.0,0.0,0.0,0.0,0.0,0.0,0.0,0.0,6.1697,6.212,6.1327,6.0657,6.0258,6.0549,6.1567,6.3316,6.6461,6.9166,7.133,7.2878,7.4938,7.5797,7.4389,7.5327,7.6004,7.5904,7.5904,7.5477,7.4498,7.4322,7.3845,7.2941,7.2791,7.2464,7.1937,7.1359,7.0807,7.028,6.9175,6.8396,6.7945,6.7392,6.7791,6.9004,6.8873,6.8821,6.8795,6.8093,6.645,6.4379,6.3274,6.2822,6.2822,6.2822,6.2822,6.2822,6.2822,6.227,6.1542,0.0,0.0,0.0,5.4102,5.4371,5.464,5.5299,5.5897,5.6077,5.5478,5.7752,5.874,5.6915,5.7902,5.8141,5.6825,5.7004,5.8045,6.0036,6.08,6.2328,6.4752,6.5682,6.6673,6.7906,6.8864,7.0676,7.3288,7.385,7.484,7.6201,7.5291,7.5587,7.6814,7.6814,7.7562,7.8789,7.8699,7.8669,7.8669,7.8609,7.8609,7.8669,7.8579,7.8579,7.843,7.7263,7.5138,7.3013,7.3582,7.2834,7.1667,7.1577,7.1936,7.1876,6.9482,6.7867,6.6519,6.5024,6.3801,6.2849,6.2585,6.309,6.3921,0.0,6.5144,6.4738,6.3943,6.3037,6.2228,6.1865,6.2747,6.4412,6.7237,6.8751,7.0165,7.1831,7.3143,7.3881,7.3669,7.5101,7.5854,7.5377,7.5327,7.5075,7.4473,7.3971,7.3619,7.3519,7.3016,7.2464,7.1937,7.1359,7.0807,7.028,6.9175,6.8597,6.8522,6.797,6.7844,6.7919,6.7501,6.7298,6.7197,6.5631,6.4756,6.4379,6.3274,6.2822,6.2822,6.2822,6.2822,6.2822,6.2822,6.2747,6.2571,0.0,0.0,0.0,5.2875,5.3683,5.4311,5.4581,5.5179,5.5658,5.5748,5.7034,5.7633,5.6795,5.6526,5.6047,5.5119,5.5628,5.7334,6.0475,6.1672,6.3588,6.661,6.7388,6.8016,6.8555,6.9663,7.0914,7.2496,7.3495,7.4497,7.5438,7.506,7.5587,7.6814,7.6814,7.7771,7.9357,7.8968,7.9238,7.9926,7.9537,7.9387,7.9182,7.7652,7.6035,7.4533,7.4286,7.2981,0.0,7.0426,7.0279,7.0531,7.1135,7.1009,7.05,6.9782,6.7807,6.5652,6.4695,6.3767,6.3348,6.4485,6.5562,6.6759,6.8465,6.9001,6.8631,6.6684,6.6192,6.5826,6.5014,6.5534,6.6764,6.8899,6.9878,7.0757,7.1761,7.259,7.274,7.1761,7.2841,7.3946,7.4699,7.4749,7.4523,7.3971,7.372,7.3443,7.3117,7.2866,7.2464,7.1937,7.1359,7.0807,7.028,6.9175,6.8622,6.8622,6.807,6.7643,6.7317,6.7091,6.6614,6.5936,6.4906,6.4304,6.3952,6.3149,6.2822,6.2822,6.2822,6.2822,6.2822,6.2822,6.2621,6.232,0.0,0.0,0.0,5.2097,5.3174,5.3982,5.4192,5.476,5.5418,5.6077,5.6555,5.6765,5.6585,5.5418,5.4521,5.4251,5.464,5.6526,6.0296,6.2151,6.4545,6.7837,6.8794,6.9542,7.0081,7.0799,7.1577,7.2445,7.3612,7.451,7.5168,7.5347,7.6125,7.7382,7.7382,7.837,8.0045,7.9567,7.9806,8.0494,8.0016,7.9155,7.7917,7.5552,7.2648,7.0032,7.0693,6.9375,6.7236,6.6413,6.6778,6.7783,6.9227,6.9491,6.9303,6.9393,6.7208,6.4635,6.4126,6.3947,6.4276,6.5892,6.7418,6.9153,7.1457,7.1926,7.1334,6.9634,6.911,6.8626,6.7659,6.7869,6.8798,7.0455,7.1184,7.1736,7.2288,7.2439,7.1836,7.0029,7.0104,7.0782,7.2012,7.3242,7.372,7.3167,7.3418,7.3343,7.2765,7.274,7.2464,7.1937,7.151,7.0983,7.028,6.9476,6.8999,6.8848,6.8447,6.797,6.7417,6.7116,6.6438,6.5484,6.4931,6.4404,6.3877,6.3299,6.2973,6.2822,6.2822,6.2822,6.2822,6.2822,6.2571,6.222,0.0,0.0,0.0,0.0,5.2755,5.3443,5.4102,5.476,5.5418,5.6077,5.6248,5.5957,5.5329,5.4042,5.3503,5.4162,5.4221,5.5628,5.8949,6.1613,6.4545,6.7837,6.9243,7.0859,7.2744,7.2176,7.2505,7.3821,7.451,7.5198,7.5886,7.6485,7.7472,7.8729,7.8729,7.9477,8.0764,8.0764,8.0405,7.9836,7.9836,7.7534,7.4008,7.2298,6.9208,6.5988,6.7113,6.4151,6.0013,6.2259,6.2923,6.3265,6.5723,6.8112,6.9692,6.8405,6.6131,6.4036,6.4006,6.4934,6.6071,6.6789,6.8465,7.0769,7.4031,7.3175,7.1976,7.2933,7.1473,6.9736,6.8764,6.9024,6.9928,7.1585,7.2313,7.2891,7.3468,7.2615,7.1133,6.8924,6.7267,6.6312,6.6363,7.0255,7.2539,7.1987,7.2966,7.3343,7.2765,7.274,7.2464,7.1937,7.1887,7.1359,7.028,7.0229,6.9953,6.9426,6.9401,6.91,6.8547,6.7467,6.6639,6.6061,6.5509,6.4957,6.4404,6.3877,6.335,6.2822,6.2822,6.2822,6.2822,6.2822,6.2822,6.2722,0.0,0.0,0.0,0.0,0.0,5.3773,5.3563,5.4461,5.5269,5.5508,5.5538,0.0,0.0,0.0,0.0,0.0,5.3714,5.523,5.9463,6.0493,6.2676,6.6489,6.8375,6.9842,7.0949,7.2026,7.3013,7.3881,7.454,7.4988,7.5228,7.5916,7.6664,7.7532,7.84,7.9537,8.0764,8.0345,8.0285,8.0241,7.7299,7.5435,7.3999,6.8781,6.4873,6.1851,0.0,5.8663,5.759,5.7393,5.8676,6.0667,6.3054,6.5169,6.643,6.5114,6.4695,6.4784,6.5203,6.6311,6.7897,7.032,7.2086,7.3482,7.4528,7.4545,7.353,7.0662,6.9291,6.7958,6.6186,6.6312,6.7467,6.9878,7.1033,7.1962,7.2891,7.269,7.0807,6.6388,6.6689,6.6212,6.3651,6.6388,6.8874,7.0179,7.1309,7.2012,7.2163,7.2539,7.2313,7.1384,7.1359,7.0656,6.92,6.9175,6.8899,6.8346,6.797,6.7719,6.7493,6.6739,6.6287,6.6061,6.5132,6.463,6.4404,6.35,6.2998,6.2822,6.2822,6.2822,6.2822,6.2822,6.2596,6.2195,0.0,0.0,0.0,0.0,0.0,0.0,0.0,0.0,0.0,0.0,0.0,0.0,0.0,0.0,0.0,0.0,0.0,5.4785,5.801,5.8373,5.9886,6.319,6.4973,6.6405,6.7516,6.9509,7.0777,7.1258,7.2507,7.3133,7.3133,7.3821,7.4719,7.5757,7.597,7.6897,7.8287,7.6945,7.6518,7.6444,7.3193,7.104,6.9325,6.4343,6.0407,0.0,5.4594,5.4354,5.5101,5.3818,5.5123,5.7624,5.9905,6.2336,6.4216,6.3588,6.4336,6.5562,6.646,6.8196,7.035,7.2954,7.4347,7.5154,7.5352,7.4314,7.2387,6.8919,6.6994,6.5397,6.3678,6.3751,6.4957,6.7543,6.8899,7.0204,7.1912,7.1284,6.9275,6.5509,6.5283,6.453,6.222,6.3601,6.581,6.8648,7.0054,7.1033,7.1585,7.2138,7.2012,7.1108,7.1083,7.0305,6.8648,6.8823,6.8547,6.7794,6.7241,6.6965,6.6965,6.6388,6.6112,6.6061,6.5358,6.4831,6.4404,6.3701,6.3174,6.2822,6.2822,6.2822,6.2822,6.2822,6.2345,6.1667,0.0,0.0,0.0,0.0,0.0,0.0,0.0,0.0,0.0,0.0,0.0,0.0,0.0,0.0,0.0,0.0,0.0,0.0,5.48,5.5382,5.6507,5.8265,5.954,6.1072,6.2855,6.506,6.6199,6.6293,6.8525,6.962,6.9778,7.0246,7.1559,7.3282,7.1505,7.1783,7.3426,7.0997,6.9662,6.892,6.7742,6.4735,6.0739,5.903,5.6115,5.2804,5.1147,5.1524,5.2623,5.1656,5.2529,5.442,5.6631,5.9961,6.3169,6.3887,6.5054,6.643,6.7837,7.062,7.3365,7.4552,7.5202,7.5736,7.6119,7.2516,6.8826,6.7719,6.4798,6.2195,6.114,6.1391,6.2546,6.4881,6.6237,6.7995,7.0782,6.8924,6.699,6.6237,6.3475,6.1743,6.2094,6.2195,6.3776,6.7518,6.9275,7.043,7.1058,7.161,7.1661,7.1108,7.1058,7.0255,6.8597,6.9049,6.8748,6.7719,6.7191,6.694,6.6915,6.6363,6.6112,6.6112,6.6061,6.5434,6.4454,6.4404,6.3776,6.2822,6.2822,6.2822,6.2822,6.2797,6.2094,6.119,0.0,0.0,0.0,0.0,0.0,0.0,0.0,0.0,0.0,0.0,0.0,0.0,0.0,0.0,0.0,0.0,0.0,0.0,5.4111,5.3752,5.4111,5.5455,5.7626,5.9273,6.0255,6.2155,6.3829,6.5029,6.4459,6.4806,6.5991,6.5438,6.545,6.5962,6.649,6.6931,6.7425,6.6791,6.6131,6.5195,6.2174,6.0666,5.9916,5.632,5.46,5.3984,5.2729,5.2459,5.2734,5.2537,5.4565,5.7576,5.8928,6.0721,6.275,6.4874,6.643,6.8076,7.0889,7.3702,7.5657,7.494,7.5947,7.5923,7.1519,6.9027,6.6686,6.353,6.05,5.8303,5.76,5.8278,6.0211,6.4053,6.6312,6.8698,7.1861,7.1711,7.0129,6.7116,6.7091,6.6413,6.4078,6.458,6.5835,6.7668,6.8572,6.9627,7.1008,7.161,7.1661,7.1108,7.0681,6.9677,6.802,6.7317,6.6815,6.6538,6.6388,6.6338,6.6338,6.6187,6.6112,6.6061,6.5233,6.4731,6.4404,6.3576,6.3073,6.2822,6.2822,6.2822,6.2772,6.237,6.1768,6.1115,0.0,0.0,0.0,0.0,0.0,0.0,0.0,0.0,0.0,0.0,0.0,0.0,0.0,0.0,0.0,0.0,0.0,0.0,0.0,5.2461,5.2058,5.2561,5.3815,5.489,5.5744,5.798,5.96,6.058,6.0199,6.0474,6.133,6.053,6.045,6.1006,6.0969,6.1234,6.1699,6.0627,5.9916,0.0,0.0,5.6323,5.6374,5.422,5.3406,5.3406,5.2779,5.3294,5.4546,5.6293,5.7835,5.9361,6.1058,6.3239,6.5592,6.7897,6.9542,7.1218,7.424,7.5987,7.6842,7.6115,7.5328,7.3533,6.8839,6.6261,6.3668,5.9842,5.7575,5.5993,5.4963,5.5892,5.8001,6.1692,6.4379,6.7241,7.0782,7.1284,7.0581,6.8648,6.9024,6.8622,6.6488,6.684,6.7668,6.8798,6.8723,6.9351,7.1008,7.161,7.1661,7.1108,7.0556,6.9476,6.7819,6.694,6.6363,6.6112,6.6112,6.6112,6.6112,6.6112,6.6112,6.6061,6.5208,6.468,6.4404,6.355,6.3048,6.2822,6.2822,6.2822,6.2797,6.2471,6.1868,6.114,0.0,0.0,0.0,0.0,0.0,0.0,0.0,0.0,0.0,0.0,5.2312,5.2137,0.0,0.0,0.0,0.0,0.0,0.0,0.0,0.0,5.0841,5.0194,5.0087,5.0403,5.1147,5.3668,5.5024,5.5182,5.5969,5.6546,5.6706,5.5998,5.6182,5.7204,5.5469,5.5365,5.6206,5.409,5.3206,5.3231,5.2779,5.2402,5.2151,0.0,5.2578,5.2269,5.2641,5.4179,5.6698,6.1027,6.1555,6.0843,6.3308,6.6534,6.9812,7.1936,7.3492,7.5108,7.7652,7.7987,7.7497,7.7169,7.3865,6.9877,6.6816,6.3689,6.0362,5.6821,5.5541,5.4612,5.3181,5.421,5.6269,5.9332,6.1994,6.5132,6.93,6.9752,6.9903,7.0506,7.0104,6.9551,6.8999,6.8949,6.9401,7.0506,6.9577,6.9602,7.1108,7.1636,7.161,7.0983,7.038,6.9351,6.7919,6.7367,6.684,6.6338,6.6338,6.6287,6.6237,6.6237,6.6187,6.6086,6.5534,6.4982,6.4429,6.3902,6.335,6.2822,6.2822,6.2822,6.2822,6.2747,6.2069,6.1165,0.0,0.0,0.0,0.0,0.0,0.0,0.0,0.0,0.0,0.0,5.2776,5.2005,0.0,0.0,0.0,0.0,0.0,0.0,0.0,0.0,0.0,5.028,5.1521,5.1691,5.0569,5.1984,5.3064,5.393,5.2827,5.2971,5.4219,5.2802,5.206,5.1779,5.1387,5.1129,5.0941,5.0474,5.0569,5.0971,5.0896,5.1348,5.2126,5.2201,0.0,0.0,5.5344,5.5757,5.6187,6.241,6.4338,6.4427,6.657,6.9142,7.1996,7.5078,7.6904,7.84,8.0524,8.0088,7.8351,7.5652,7.1935,6.7946,6.3801,6.0219,5.7449,5.5867,5.4361,5.3256,5.298,5.3909,5.6219,6.0814,6.2772,6.5685,7.1359,7.1384,7.1184,7.2188,7.1811,7.1259,7.0706,7.0656,7.1108,7.2213,7.1284,7.0983,7.1736,7.1861,7.1435,7.043,6.9426,6.8773,6.8472,6.7919,6.7618,6.7518,6.7518,6.7267,6.6815,6.6815,6.6564,6.6086,6.5534,6.4982,6.4429,6.3902,6.335,6.2822,6.2822,6.2822,6.2772,6.232,6.1743,6.1115,0.0,0.0,0.0,0.0,0.0,0.0,0.0,5.3533,5.4461,5.6496,5.4652,5.282,5.2081,5.0637,5.0129,0.0,0.0,0.0,0.0,0.0,0.0,5.1436,5.2279,5.2192,5.0937,5.195,5.2759,5.3258,0.0,5.2076,5.2796,5.1772,5.1147,5.087,5.087,5.0544,5.0042,5.0343,5.0444,5.0469,5.1071,5.1624,5.2126,5.2427,0.0,0.0,5.5391,5.5724,5.5971,6.1131,6.3498,6.4994,6.9238,7.2325,7.5048,7.8011,7.9357,8.0094,8.1183,8.0329,7.8149,7.4436,7.0171,6.5893,6.1983,5.8554,5.5792,5.4386,5.3482,5.2929,5.2929,5.4059,5.5968,5.893,6.0839,6.3852,6.9376,7.0204,7.1058,7.3343,7.3368,7.2991,7.2439,7.2113,7.2163,7.269,7.2238,7.2188,7.274,7.1962,7.1234,7.0706,6.9627,6.8899,6.8622,6.8346,6.8095,6.7794,6.7794,6.7668,6.7392,6.7116,6.6815,6.6513,6.566,6.4982,6.4429,6.3902,6.335,6.2822,6.2822,6.2822,6.2797,6.2521,6.1893,6.114,0.0,0.0,0.0,0.0,0.0,0.0,5.4491,5.479,5.5807,5.9099,5.7024,5.4452,5.2573,5.0657,4.9493,0.0,0.0,0.0,0.0,0.0,0.0,0.0,0.0,0.0,5.1819,0.0,0.0,5.2929,5.2503,0.0,0.0,0.0,0.0,0.0,5.1448,5.1147,5.0619,5.1096,5.1096,0.0,0.0,5.2176,5.2327,0.0,0.0,0.0,0.0,5.534,5.5789,5.9654,6.1852,6.4035,6.9447,7.3685,7.7122,7.96,8.0973,8.1628,8.144,8.0137,7.7761,7.3788,6.8673,6.3802,6.0814,5.7399,5.4486,5.3181,5.2929,5.2929,5.2929,5.3984,5.534,5.6796,5.8478,6.1492,6.6865,6.8472,7.038,7.382,7.4247,7.4071,7.3644,7.3067,7.2791,7.2891,7.2916,7.3067,7.3393,7.1937,7.1083,7.1083,7.0003,6.925,6.8798,6.8798,6.8572,6.8145,6.8145,6.8095,6.7945,6.7417,6.7091,6.6915,6.5785,6.4982,6.4429,6.3902,6.335,6.2822,6.2822,6.2822,6.2822,6.2822,6.2195,6.1341,0.0,0.0,0.0,0.0,0.0,0.0,5.3803,5.5269,5.7184,6.0505,5.9506,5.7223,5.3915,5.0741,4.8794,0.0,0.0,0.0,0.0,0.0,0.0,0.0,0.0,0.0,0.0,0.0,0.0,5.2929,5.2879,0.0,0.0,0.0,0.0,0.0,0.0,5.1724,5.1197,5.1247,0.0,0.0,0.0,0.0,0.0,0.0,0.0,0.0,0.0,5.5076,5.5297,5.949,6.1087,6.1841,6.4732,7.0464,7.6471,7.8414,8.1542,8.4008,8.2535,8.056,7.7933,7.3874,6.7596,6.1818,5.9985,5.6244,5.3105,5.2955,5.2929,5.2929,5.2929,5.3055,5.4009,5.662,5.7198,5.9608,6.6137,6.7568,6.9376,7.3217,7.3669,7.3644,7.3594,7.3067,7.2941,7.3468,7.3519,7.3318,7.2841,7.1711,7.1083,7.1083,7.0003,6.9426,6.9376,6.9376,6.9351,6.93,6.93,6.9024,6.8522,6.797,6.7442,6.6915,6.5785,6.4982,6.4429,6.3902,6.335,6.2822,6.2822,6.2822,6.2822,6.2822,6.2446,6.1868,0.0,0.0,0.0,0.0,0.0,0.0,5.4221,5.5239,5.7064,6.1164,6.0911,5.9191,5.6038,5.3743,5.1027,4.7462,0.0,0.0,0.0,0.0,0.0,0.0,0.0,0.0,0.0,0.0,5.2201,5.2427,5.2754,0.0,0.0,0.0,0.0,0.0,0.0,5.2302,5.18,5.2126,0.0,0.0,0.0,0.0,0.0,0.0,0.0,0.0,0.0,0.0,5.3849,5.5539,5.6568,5.7446,5.8765,6.2735,6.826,7.4809,7.9101,8.1591,8.0836,8.0324,7.8573,7.2805,6.6907,6.1969,5.996,5.6093,5.2929,5.2929,5.2929,5.2929,5.2929,5.2929,5.3281,5.4386,5.4561,5.6294,6.1316,6.2471,6.4982,7.0882,7.1585,7.2238,7.392,7.3569,7.3192,7.3092,7.3067,7.2841,7.2263,7.151,7.1083,7.1083,7.033,6.9928,6.9928,6.9928,6.9777,6.9361,6.9361,6.915,6.8597,6.8045,6.7493,6.6915,6.5785,6.4982,6.4429,6.3902,6.335,6.2822,6.2822,6.2822,6.2822,6.2822,6.2471,6.1918,0.0,0.0,0.0,0.0,0.0,5.0527,5.4042,5.494,5.6645,6.0685,6.1027,6.0048,5.7823,5.5764,5.2837,4.8496,4.7981,0.0,0.0,0.0,0.0,0.0,0.0,0.0,0.0,0.0,5.259,5.2101,5.2653,5.2929,0.0,0.0,5.2929,5.2929,0.0,0.0,0.0,0.0,0.0,0.0,0.0,0.0,0.0,0.0,0.0,0.0,0.0,0.0,0.0,0.0,0.0,5.3917,5.4505,5.6794,6.0951,6.925,7.4531,7.7605,7.7008,7.8038,7.7806,7.1395,6.6162,6.1994,5.9759,5.5842,5.2729,5.2904,5.2929,5.2929,5.2929,5.2929,5.2929,5.2929,5.2929,5.416,5.7725,5.8956,6.1692,6.7618,6.8597,6.9878,7.2665,7.3192,7.3167,7.2765,7.274,7.2414,7.1711,7.146,7.1184,7.0857,7.0455,7.0179,7.0029,7.0003,6.9752,6.92,6.92,6.8899,6.8371,6.7819,6.7342,6.6915,6.5609,6.4831,6.4404,6.3726,6.3199,6.2822,6.2822,6.2822,6.2822,6.2822,6.2571,6.2144,0.0,0.0,0.0,0.0,0.0,5.0198,5.2785,5.4341,5.6137,5.88,5.9697,5.977,5.8958,5.5757,5.3371,5.2524,4.8669,0.0,0.0,0.0,0.0,0.0,0.0,0.0,0.0,0.0,5.3751,5.2101,5.2653,5.2929,5.2929,5.2929,5.2929,5.2929,0.0,0.0,0.0,0.0,0.0,0.0,0.0,0.0,5.2929,0.0,0.0,0.0,0.0,0.0,0.0,0.0,0.0,0.0,0.0,5.4081,5.6452,6.1544,6.7679,7.2485,7.0813,7.3267,7.5014,6.9904,6.5308,6.1441,5.9182,5.5265,5.2277,5.2804,5.2929,5.2929,5.2929,5.2929,5.2929,5.2929,5.2929,5.3884,5.6671,5.8453,6.0563,6.3425,6.4705,6.6438,6.9225,7.146,7.274,7.274,7.274,7.2238,7.1158,7.161,7.141,7.0305,7.0255,7.0003,6.9451,6.9451,6.9175,6.8622,6.8622,6.8346,6.7794,6.7241,6.699,6.689,6.5208,6.4479,6.4379,6.3299,6.2847,6.2822,6.2822,6.2822,6.2822,6.2822,6.2822,6.2672,0.0,0.0,0.0,0.0,0.0,0.0,5.0282,5.1104,5.2558,5.5309,5.7345,5.8578,5.8433,5.688,5.4951,5.2766,4.9076,0.0,0.0,0.0,0.0,0.0,0.0,0.0,0.0,5.4834,5.4315,5.3817,5.3216,5.2929,5.2929,5.2929,5.2929,5.2929,5.2929,5.2929,0.0,0.0,0.0,0.0,0.0,5.2929,5.2929,0.0,0.0,0.0,0.0,0.0,0.0,0.0,0.0,0.0,0.0,0.0,0.0,5.5589,6.1474,6.7424,6.7476,6.8755,6.9162,6.5122,6.1617,5.8805,5.7323,5.4737,5.2703,5.2879,5.2929,5.2929,5.2929,5.2929,5.3055,5.3406,5.3457,5.3758,5.4637,5.7173,6.0261,6.3802,6.8874,7.2288,7.2791,7.3142,7.3142,7.2765,7.2389,7.2012,7.1661,7.146,7.1008,7.028,7.0631,7.038,6.9451,6.9361,6.8974,6.807,6.807,6.7769,6.7241,6.7066,6.6564,6.576,6.4856,6.4279,6.3877,6.3149,6.2822,6.2822,6.2822,6.2822,6.2822,6.2822,6.2822,6.2672,0.0,0.0,0.0,0.0,0.0,0.0,4.8758,4.9052,4.99,5.185,5.4211,5.6243,5.7541,5.6332,5.5083,5.432,5.0559,0.0,0.0,0.0,0.0,0.0,0.0,0.0,5.5602,5.6416,5.6412,5.5551,5.5064,5.4537,5.416,5.3959,5.3632,5.3206,5.3005,5.2929,0.0,0.0,0.0,0.0,5.313,5.3105,5.2929,0.0,0.0,0.0,0.0,0.0,0.0,0.0,0.0,0.0,0.0,0.0,0.0,0.0,5.647,6.0756,6.2545,6.4299,6.4918,6.2067,5.9633,5.7549,5.6219,5.4361,5.2929,5.2929,5.2929,5.2929,5.2929,5.2929,5.303,5.3356,5.3406,5.3406,5.3406,5.6294,5.991,6.3977,6.9551,7.2916,7.2565,7.2991,7.3117,7.2765,7.2414,7.2037,7.161,7.146,7.0958,6.9978,7.028,7.0029,6.915,6.8924,6.8371,6.7493,6.7493,6.7191,6.6639,6.6438,6.5961,6.5258,6.4505,6.4002,0.0,6.3073,6.2822,6.2822,6.2822,6.2822,6.2822,6.2822,6.2822,6.2697,0.0,0.0,0.0,0.0,0.0,0.0,0.0,4.7981,4.8071,4.8729,5.0671,5.3164,5.6299,5.4537,5.4104,5.6501,5.2822,0.0,0.0,0.0,0.0,0.0,0.0,0.0,5.6209,5.8912,5.9382,5.738,5.7663,5.7292,5.6286,5.5588,5.4712,5.3683,5.3155,5.2929,5.2955,5.3432,5.3356,5.298,5.3457,5.3356,0.0,0.0,0.0,0.0,0.0,0.0,0.0,0.0,0.0,0.0,0.0,0.0,0.0,0.0,0.0,0.0,0.0,5.9759,6.1743,6.0186,5.8654,5.7148,5.5566,5.4034,0.0,5.2929,5.2929,5.2929,5.2929,5.2929,5.2929,5.298,5.298,5.298,5.298,5.6068,5.9935,6.4354,6.7794,6.9752,6.9627,7.1535,7.2765,7.274,7.269,7.2238,7.1209,7.156,7.1058,6.9411,6.9376,6.9074,6.8572,6.802,6.7467,6.6915,6.6915,6.6614,6.6036,6.5534,6.5258,6.5132,6.4128,6.3676,6.3576,6.3048,6.2822,6.2822,6.2822,6.2822,6.2822,6.2822,6.2822,6.2747,0.0,0.0,0.0,0.0,0.0,0.0,0.0,0.0,0.0,0.0,4.9748,5.1783,5.3716,5.4368,5.4642,0.0,0.0,0.0,0.0,0.0,0.0,0.0,0.0,0.0,5.6215,5.7806,5.9186,6.0476,5.7902,5.6825,5.699,5.5013,5.3959,5.3683,5.3155,5.2929,5.2929,5.3055,5.303,5.2929,5.3055,5.303,0.0,0.0,0.0,0.0,5.2929,5.2929,0.0,0.0,0.0,0.0,0.0,0.0,0.0,0.0,5.2603,5.3005,5.3356,0.0,5.5164,5.4762,5.4386,5.3984,0.0,5.3206,5.2929,5.2929,5.2929,5.2929,5.2929,5.2929,5.3055,5.3457,5.3507,5.3507,5.3507,5.8604,6.3977,6.8371,7.1485,7.274,7.146,7.2565,7.3217,7.2765,7.2339,7.1987,7.1736,7.1033,7.028,6.9476,6.8622,6.812,6.7995,6.7442,6.689,6.6312,6.6312,6.6011,6.5484,6.5358,6.4831,6.4053,6.3802,6.345,6.3023,6.2873,6.2822,6.2822,6.2822,6.2822,6.2822,6.2822,6.2822,6.2747,0.0,0.0,0.0,0.0,0.0,0.0,0.0,0.0,0.0,0.0,4.8795,5.0077,5.2176,5.3482,5.4384,0.0,0.0,0.0,0.0,0.0,0.0,0.0,5.2426,5.432,5.551,5.7917,5.9758,6.1034,5.9429,5.852,5.8306,5.6173,5.4813,5.4059,5.3281,5.2929,5.2955,5.3457,5.3532,5.3306,5.3582,0.0,0.0,0.0,0.0,0.0,5.2929,5.2929,0.0,5.2929,5.2929,5.2879,0.0,0.0,0.0,0.0,5.195,5.2176,5.2126,5.2503,5.2929,5.2929,5.2929,5.2929,5.2929,5.2929,5.2929,5.2929,5.2929,5.2929,5.2929,5.2929,5.303,5.3306,5.3356,5.4059,5.6068,6.0588,6.5333,6.9727,7.2037,7.3117,7.2715,7.2991,7.3067,7.274,7.2213,7.1786,7.1535,7.0732,6.9903,6.91,6.8246,6.7668,6.7417,6.6865,6.6413,6.6112,6.6112,6.5835,6.5283,6.5032,6.4454,6.3676,6.34,6.3124,6.2822,6.2822,6.2822,6.2822,6.2822,6.2822,6.2822,6.2822,6.2822,6.2797,0.0,0.0,0.0,0.0,0.0,0.0,0.0,0.0,0.0,0.0,0.0,0.0,0.0,0.0,0.0,0.0,0.0,0.0,0.0,0.0,0.0,0.0,5.2324,5.3749,5.4481,5.8153,6.0353,6.0837,6.1464,6.1207,6.0119,5.832,5.6384,5.4386,5.3557,5.313,5.3105,5.4034,5.421,5.3884,5.4361,0.0,0.0,0.0,0.0,0.0,0.0,0.0,0.0,5.2929,5.2929,5.2829,5.2277,0.0,0.0,0.0,0.0,0.0,5.1875,5.2631,5.3247,5.2998,5.2929,5.2929,5.2929,5.2929,5.2929,5.2929,5.2929,5.2929,5.2929,5.2929,5.298,5.3155,5.3457,5.5214,5.9633,6.2521,6.571,6.9777,7.1384,7.2439,7.3142,7.2841,7.264,7.2715,7.2138,7.1585,7.1108,7.0556,6.9727,6.8547,6.8045,6.7493,6.684,6.6363,6.6112,6.6112,6.6036,6.571,6.5132,6.4605,6.4053,6.3525,6.3048,6.2822,6.2822,6.2822,6.2822,6.2822,6.2822,6.2822,6.2822,6.2822,6.2822,6.2822,0.0,0.0,0.0,0.0,0.0,0.0,0.0,0.0,0.0,0.0,0.0,0.0,0.0,0.0,0.0,0.0,0.0,0.0,0.0,0.0,0.0,4.978,5.0958,5.2411,5.39,5.6831,5.9654,6.2148,6.3322,6.3479,6.2683,6.058,5.7513,5.3858,5.416,5.4034,5.3582,5.3758,5.4059,5.4436,5.4536,0.0,0.0,0.0,0.0,0.0,0.0,0.0,0.0,5.2929,5.2929,5.2829,5.2277,0.0,0.0,0.0,0.0,0.0,5.1498,5.3192,5.4675,5.3222,5.2929,5.2929,5.2929,5.2929,5.2929,5.2929,5.2929,5.2929,5.2929,5.2929,5.3231,5.416,5.5892,5.8679,6.3073,6.5308,6.7417,6.9953,7.2087,7.2841,7.1585,7.1811,7.2238,7.269,7.1786,7.1184,7.1083,7.0556,6.9551,6.797,6.7844,6.7292,6.6262,6.6162,6.6112,6.6112,6.5634,6.5132,6.458,6.4053,6.35,6.2948,6.2873,6.2822,6.2822,6.2822,6.2822,6.2822,6.2822,6.2822,6.2822,6.2822,6.2822,6.2772,0.0,0.0,0.0,0.0,0.0,0.0,0.0,0.0,0.0,0.0,0.0,0.0,0.0,0.0,0.0,0.0,0.0,0.0,0.0,5.3984,5.3436,5.3751,5.2696,5.2246,5.2425,5.6493,5.9799,6.2171,6.5019,6.6452,6.6392,6.2166,5.8127,5.4587,5.3959,5.3532,5.3331,5.3909,5.4336,5.4658,0.0,0.0,0.0,0.0,0.0,0.0,0.0,0.0,0.0,0.0,5.2929,5.2779,5.1925,0.0,0.0,0.0,0.0,0.0,5.1197,5.2876,5.4524,5.4278,5.4942,5.5327,5.4071,5.4025,5.3987,5.311,5.2929,5.2929,5.2929,5.3658,5.4913,5.6897,5.9357,6.1843,6.4153,6.6162,6.812,7.0029,7.1435,7.2062,7.156,7.1761,7.1887,7.1836,7.1083,7.0631,7.0631,7.0129,6.92,6.7844,6.7794,6.7267,6.6112,6.6112,6.6112,6.6112,6.5559,6.5007,6.4454,6.3927,6.3375,6.2822,6.2822,6.2822,6.2822,6.2822,6.2822,6.2822,6.2822,6.2822,6.2822,6.2822,6.2822,6.2747,0.0,0.0,0.0,0.0,0.0,0.0,0.0,0.0,0.0,0.0,0.0,0.0,0.0,0.0,0.0,0.0,0.0,0.0,0.0,5.5353,5.5054,5.6559,5.4342,5.31,5.3097,5.7243,6.0248,6.2165,6.6923,6.9338,6.932,6.3482,5.8857,5.5516,5.3984,5.3231,5.3155,5.4009,5.4511,5.4787,0.0,0.0,0.0,0.0,0.0,0.0,0.0,0.0,0.0,0.0,0.0,0.0,0.0,0.0,0.0,4.9916,4.969,5.0017,5.0996,5.2593,5.4293,5.5519,5.6875,5.7633,5.6122,5.6156,5.6001,5.4441,5.4047,5.3782,5.3199,5.4687,5.6796,5.9282,6.227,6.463,6.5685,6.7518,6.9275,7.0681,7.1334,7.1736,7.1887,7.1786,7.1535,7.1108,7.033,7.0003,7.0255,6.9501,6.8673,6.7819,6.7668,6.7141,6.6112,6.5986,6.5911,6.5911,6.5358,6.4806,6.4279,6.3726,6.3249,6.2822,6.2822,6.2822,6.2822,6.2822,6.2822,6.2822,6.2822,6.2822,6.2822,6.2822,6.2822,6.2772,0.0,0.0,0.0,0.0,0.0,0.0,0.0,0.0,0.0,0.0,0.0,0.0,0.0,0.0,0.0,0.0,0.0,0.0,0.0,5.5578,5.4442,5.458,5.4189,5.5405,5.8454,5.9657,6.112,6.2914,6.9258,7.1585,6.9996,6.4769,6.0137,5.6093,5.4963,5.416,5.3658,5.3733,5.4361,5.534,5.5365,0.0,0.0,0.0,0.0,0.0,0.0,0.0,0.0,0.0,0.0,0.0,0.0,0.0,5.1071,4.9916,4.9967,5.0494,5.1122,5.2876,5.491,5.6494,5.7465,5.8281,5.9266,5.9607,5.9303,5.8085,5.7451,5.6379,5.4081,5.5867,5.8278,5.9985,6.345,6.684,6.9476,7.0857,7.1836,7.2464,7.3067,7.3016,7.2012,7.1435,7.1133,7.1083,6.9627,6.9175,7.0204,6.8773,6.7869,6.7794,6.7317,6.6739,6.6112,6.5609,6.5358,6.5333,6.4781,6.4254,6.3726,6.3149,6.2873,6.2822,6.2822,6.2822,6.2822,6.2822,6.2822,6.2822,6.2822,6.2822,6.2822,6.2822,6.2822,6.2822,0.0,0.0,0.0,0.0,0.0,0.0,0.0,0.0,0.0,0.0,0.0,0.0,0.0,0.0,0.0,0.0,0.0,0.0,5.7871,5.5338,5.4667,5.6504,5.4114,5.4572,5.8435,6.1259,6.4221,6.7262,7.2425,7.2423,6.7638,6.5154,6.0837,5.5139,5.4034,5.3432,5.3256,5.3959,5.4486,5.4938,5.5616,5.5491,0.0,0.0,0.0,0.0,0.0,0.0,0.0,0.0,5.2251,5.2251,5.1272,5.1096,5.1122,5.0343,5.0243,5.0544,5.1122,5.2902,5.5081,5.7122,5.8563,6.0052,6.1734,6.2509,6.2342,6.0854,6.0323,5.9365,5.6833,5.7725,5.9659,6.2044,6.5383,6.8396,7.048,7.1435,7.2113,7.2665,7.2916,7.2615,7.151,7.0907,7.043,7.0104,6.8848,6.8447,6.92,6.8321,6.7643,6.7292,6.7091,6.6538,6.5609,6.5383,6.4957,6.4304,6.4078,6.3877,6.3676,6.3099,6.2822,6.2822,6.2822,6.2822,6.2822,6.2822,6.2822,6.2822,6.2822,6.2822,6.2822,6.2822,6.2822,6.2822,0.0,0.0,0.0,0.0,0.0,0.0,0.0,0.0,0.0,0.0,0.0,0.0,0.0,0.0,0.0,0.0,0.0,0.0,5.8602,5.5424,5.465,5.7138,5.4123,5.4193,5.8147,6.1728,6.4896,6.7574,7.1871,7.1622,6.7007,6.49,6.1185,5.6326,5.3987,5.3306,5.3959,5.4034,5.4336,5.4888,5.5465,5.534,0.0,0.0,0.0,0.0,0.0,0.0,0.0,0.0,5.195,5.195,5.1046,5.087,5.0896,5.0318,5.0042,5.0067,5.0795,5.2516,5.4602,5.691,5.8946,6.1325,6.4493,6.5792,6.5799,6.4319,6.237,6.0357,5.8504,5.888,6.0412,6.3249,6.6463,6.92,7.0857,7.156,7.1987,7.2188,7.2364,7.1962,7.0681,7.0229,6.9702,6.8974,6.807,6.7769,6.8346,6.7668,6.7191,6.699,6.6639,6.6061,6.5308,6.4957,6.4429,6.3701,6.35,6.3425,6.34,6.2998,6.2822,6.2822,6.2822,6.2822,6.2822,6.2822,6.2822,6.2822,6.2822,6.2822,6.2822,6.2822,6.2822,6.2822,0.0,0.0,0.0,0.0,0.0,0.0,0.0,0.0,0.0,0.0,0.0,0.0,0.0,0.0,0.0,0.0,0.0,0.0,5.9917,5.5937,5.42,5.5785,5.4069,5.4701,5.8111,6.0783,6.2378,6.2847,6.7074,6.9027,6.8702,6.3922,6.1219,6.0171,5.5178,5.416,5.6043,5.3858,5.3884,5.534,5.4787,5.4888,5.534,0.0,0.0,0.0,0.0,0.0,0.0,0.0,5.1649,5.18,5.0117,4.9967,5.0318,4.9766,4.9213,4.9038,5.0142,5.1666,5.3521,5.5703,5.8353,6.2006,6.7701,6.9512,6.9781,6.8919,6.3422,5.873,5.8755,5.9182,6.0437,6.3249,6.6463,6.9175,7.0857,7.1535,7.1686,7.1158,7.156,7.1234,6.9602,6.9336,6.8974,6.7869,6.7292,6.7216,6.7769,6.6714,6.6363,6.694,6.586,6.5283,6.5283,6.4228,6.3701,6.3676,6.3099,6.2822,6.2822,6.2822,6.2822,6.2822,6.2822,6.2822,6.2822,6.2822,6.2822,6.2822,6.2822,6.2822,6.2822,6.2822,6.2822,6.2822,0.0,0.0,0.0,0.0,0.0,0.0,0.0,0.0,0.0,0.0,0.0,0.0,0.0,0.0,0.0,0.0,0.0,0.0,5.6924,5.3844,5.2375,5.3442,5.1654,5.1088,5.2154,5.5585,5.9414,6.3425,6.6866,6.6397,6.2343,6.2497,6.0738,5.7472,5.6919,5.582,5.4436,5.4185,5.4361,5.4787,5.4637,5.4888,5.529,0.0,0.0,0.0,0.0,0.0,0.0,0.0,0.0,0.0,5.0469,5.0293,5.0469,5.072,5.067,5.0695,5.1423,5.1975,5.328,5.7205,5.9205,6.199,6.8818,7.0141,7.0186,7.1018,6.6397,6.2094,6.1692,6.1416,6.1793,6.3425,6.581,6.817,7.0229,7.0656,7.0832,7.1058,7.0882,7.0405,6.9526,6.8748,6.8145,6.7819,6.6915,6.6614,6.7191,6.6162,6.5609,6.5785,6.5082,6.453,6.4178,6.3852,6.3475,6.3073,6.2923,6.2822,6.2822,6.2822,6.2822,6.2822,6.2822,6.2822,6.2822,6.2822,6.2822,6.2822,6.2822,6.2822,6.2822,6.2822,6.2822,6.2822,0.0,0.0,0.0,0.0,0.0,0.0,0.0,0.0,0.0,0.0,5.3225,5.1501,0.0,0.0,0.0,0.0,0.0,0.0,5.5109,5.2729,5.1416,5.1932,5.0256,4.9891,5.1197,5.4612,5.77,6.0387,6.3325,6.2764,5.8973,6.1329,6.0827,5.8016,5.9079,5.8141,5.5666,5.534,5.5089,5.4863,5.4662,5.4888,5.529,0.0,0.0,0.0,0.0,0.0,0.0,0.0,0.0,0.0,5.0343,5.0243,5.0393,5.0318,5.0444,5.0645,5.0745,5.2075,5.4103,5.685,6.0002,6.404,7.0319,7.2489,7.337,7.3725,6.9876,6.5901,6.4395,6.3324,6.3048,6.4153,6.581,6.7518,6.9074,6.9652,6.9903,6.9803,6.9878,6.9551,6.8547,6.7869,6.7367,6.7141,6.6488,6.6162,6.6312,6.566,6.5183,6.4982,6.4429,6.4002,6.3701,6.3475,6.3174,6.2822,6.2822,6.2822,6.2822,6.2822,6.2822,6.2822,6.2822,6.2822,6.2822,6.2822,6.2822,6.2822,6.2822,6.2822,6.2822,6.2822,6.2822,6.2822,0.0,0.0,4.7788,4.5238,0.0,0.0,0.0,0.0,0.0,0.0,5.4483,5.3189,0.0,0.0,0.0,0.0,0.0,0.0,0.0,5.2325,5.1154,5.1329,4.9834,5.0343,5.3406,5.6043,5.662,5.5089,5.7951,5.8748,5.7736,6.0294,6.1113,6.0375,6.1298,6.0531,5.8453,5.6821,5.5817,5.5265,5.4813,5.4963,5.539,5.4787,0.0,0.0,0.0,0.0,0.0,0.0,0.0,0.0,5.0067,5.0067,5.0243,4.9339,4.9364,4.959,4.9238,5.2128,5.5265,5.5577,6.1083,6.768,7.2259,7.5992,7.7979,7.615,7.3043,6.9674,6.6692,6.4931,6.4228,6.5208,6.6262,6.7166,6.7719,6.8673,6.8924,6.7919,6.8648,6.8622,6.7116,6.6915,6.6664,6.6086,6.6036,6.5785,6.5233,6.5183,6.4906,6.4404,6.3877,6.3626,6.3626,6.3099,6.2822,6.2822,6.2822,6.2822,6.2822,6.2822,6.2822,6.2822,6.2822,6.2822,6.2822,6.2822,6.2822,6.2822,6.2822,6.2822,6.2822,6.2822,6.2822,6.2822,0.0,0.0,4.7047,4.6412,0.0,0.0,0.0,0.0,0.0,0.0,0.0,0.0,0.0,5.078,0.0,0.0,0.0,0.0,0.0,5.1755,5.1152,5.2428,5.0896,5.0619,5.1774,5.2829,5.3181,5.2804,5.6445,5.7469,5.5986,5.8894,6.0064,5.9797,6.104,6.0016,5.7323,5.6093,5.5239,5.4762,5.5089,5.5541,5.5917,5.4938,5.4486,0.0,0.0,0.0,0.0,0.0,0.0,0.0,5.0996,5.0695,5.0544,5.1197,5.0845,5.0494,5.1699,5.2387,5.3664,5.7256,6.4055,7.1101,7.5687,7.8159,7.8423,7.4557,7.2254,7.0049,6.7298,6.6137,6.566,6.5886,6.6513,6.7166,6.7719,6.7995,6.807,6.7819,6.7618,6.7367,6.7015,6.6564,6.6061,6.5509,6.5459,6.5233,6.468,6.4254,6.3977,6.3877,6.3299,6.3023,6.3023,6.2898,6.2822,6.2822,6.2822,6.2822,6.2822,6.2822,6.2822,6.2822,6.2822,6.2822,6.2822,6.2822,6.2822,6.2822,6.2822,6.2822,6.2822,6.2822,6.2822,6.2822,0.0,0.0,0.0,0.0,0.0,0.0,0.0,0.0,0.0,0.0,0.0,0.0,0.0,5.096,0.0,0.0,0.0,0.0,0.0,5.1155,5.0659,5.1228,5.0699,5.0695,5.1272,5.1825,5.2226,5.2503,5.4511,5.5208,5.467,5.7992,5.9155,5.8465,6.0912,5.999,5.662,5.6319,5.5717,5.4988,5.5265,5.5566,5.5717,5.4888,5.4235,5.3708,5.313,0.0,0.0,0.0,0.0,0.0,0.0,0.0,5.0896,5.1197,5.087,5.0544,5.1172,5.2317,5.4593,6.0103,6.5949,7.1272,7.4648,7.6949,7.7443,7.4059,7.3179,7.1941,6.8248,6.6771,6.6036,6.576,6.5961,6.6262,6.6564,6.6815,6.689,6.6639,6.6589,6.6564,6.6564,6.6036,6.5609,6.5308,6.5032,6.4655,6.4128,6.3827,6.3576,6.3299,6.2973,6.2822,6.2822,6.2822,6.2822,6.2822,6.2822,6.2822,6.2822,6.2822,6.2822,6.2822,6.2822,6.2822,6.2822,6.2822,6.2822,6.2822,6.2822,6.2822,6.2822,6.2822,6.2672,6.2471,0.0,0.0,0.0,0.0,0.0,0.0,0.0,0.0,0.0,0.0,0.0,0.0,0.0,0.0,0.0,0.0,0.0,0.0,0.0,0.0,0.0,5.0042,5.0469,5.0971,5.1548,5.2026,5.2477,5.2929,5.3005,5.3432,5.423,5.7221,5.8114,5.7323,6.0357,5.9747,5.652,5.6771,5.6319,5.5415,5.5591,5.5616,5.5465,5.4913,5.4135,5.3306,5.303,5.298,5.298,5.2427,0.0,0.0,0.0,0.0,5.1348,5.0971,5.0645,5.0368,5.0218,5.2576,5.6449,6.2415,6.6468,6.9647,7.2339,7.4528,7.5727,7.4402,7.4289,7.3238,6.8941,6.6868,6.5685,6.5233,6.5157,6.5157,6.5157,6.5534,6.5685,6.5333,6.5609,6.586,6.5961,6.5484,6.5107,6.5032,6.458,6.4103,6.3576,6.355,6.3324,6.2847,6.2822,6.2822,6.2822,6.2822,6.2822,6.2822,6.2822,6.2822,6.2822,6.2822,6.2822,6.2822,6.2822,6.2822,6.2822,6.2822,6.2822,6.2822,6.2822,6.2822,6.2822,6.2822,6.2471,6.2094,0.0,0.0,0.0,0.0,0.0,0.0,0.0,0.0,0.0,0.0,5.4731,5.4296,0.0,0.0,0.0,0.0,0.0,0.0,5.2678,0.0,0.0,5.1774,5.185,5.2151,5.2703,5.2779,5.2854,5.2929,5.3381,5.4386,5.5892,5.6384,5.7041,5.7801,5.8302,5.8227,5.76,5.6721,5.5968,5.5465,5.642,5.652,5.6043,5.5491,5.5189,5.4863,5.3432,5.3231,5.3507,5.298,5.2503,0.0,0.0,0.0,5.2076,5.2477,5.1574,5.072,5.2101,5.4502,5.7677,6.17,6.4186,6.6914,7.1744,7.3111,7.3776,7.5246,7.3284,7.0556,6.8066,6.6027,6.4655,6.458,6.458,6.458,6.458,6.463,6.4831,6.5233,6.4931,6.4881,6.5358,6.4906,6.4379,6.3927,6.3827,6.355,6.2973,6.2948,6.2898,6.2822,6.2822,6.2822,6.2822,6.2822,6.2822,6.2822,6.2822,6.2822,6.2822,6.2822,6.2822,6.2822,6.2822,6.2822,6.2822,6.2822,6.2822,6.2822,6.2822,6.2822,6.2822,6.2822,6.2471,6.2094,0.0,0.0,0.0,0.0,0.0,0.0,0.0,0.0,0.0,0.0,0.0,5.3207,0.0,0.0,0.0,5.2076,5.2653,5.298,5.2929,5.2703,5.2302,5.1674,5.1649,5.19,5.2452,5.2477,5.2628,5.2929,5.3457,5.4561,5.6219,5.6872,5.76,5.8328,5.77,5.7424,5.7374,5.6872,5.6721,5.6846,5.7323,5.6821,5.5767,5.5817,5.5089,5.3959,5.3507,5.3507,5.3632,5.3105,5.2754,5.2603,5.2854,0.0,0.0,0.0,5.1975,5.1197,5.2553,5.426,5.6337,5.9225,6.1744,6.4417,6.738,6.9096,7.0408,7.1309,6.9623,6.7996,6.8229,6.599,6.4028,6.4028,6.4028,6.4028,6.4028,6.4028,6.4128,6.4379,6.4178,6.4228,6.4781,6.4354,6.3927,6.3701,6.34,6.3099,6.2847,6.2822,6.2822,6.2822,6.2822,6.2822,6.2822,6.2822,6.2822,6.2822,6.2822,6.2822,6.2822,6.2822,6.2822,6.2822,6.2822,6.2822,6.2797,6.2496,6.2546,6.2797,6.2496,6.2546,6.2797,6.2471,6.222,6.2044,0.0,0.0,0.0,0.0,0.0,0.0,0.0,0.0,0.0,0.0,0.0,0.0,0.0,0.0,0.0,0.0,5.3155,5.3532,5.3155,5.3005,5.2553,5.1724,5.1699,5.19,5.2302,5.2302,5.2528,5.2929,5.3457,5.4787,5.6846,5.77,5.878,5.9935,5.8504,5.7801,5.765,5.7524,5.7801,5.8252,5.77,5.6721,5.5591,5.5566,5.4637,5.3381,5.3607,5.3708,5.3632,5.3256,5.303,5.2929,5.2929,5.2653,0.0,0.0,0.0,5.185,5.2528,5.3632,5.4988,5.6821,5.9199,6.1551,6.3363,6.5253,6.6825,6.7645,6.6509,6.5861,6.7468,6.5344,6.3475,6.3475,6.3475,6.3475,6.3475,6.3475,6.3525,6.3676,6.355,6.3676,6.4228,6.3776,6.3475,6.3475,6.3073,6.2822,6.2822,6.2822,6.2822,6.2822,6.2822,6.2822,6.2822,6.2822,6.2822,6.2822,6.2822,6.2822,6.2822,6.2822,6.2822,6.2822,6.2672,6.2621,6.2571,6.2019,6.2044,6.2395,6.2119,6.2245,6.2596,6.232,6.2119,6.2019,0.0,0.0,0.0,0.0,0.0,0.0,0.0,0.0,0.0,0.0,0.0,5.2879,5.2879,5.2879,5.2879,5.2879,5.3381,5.3683,5.3658,5.3206,5.2904,5.2854,5.2854,0.0,5.2879,5.2879,5.2904,5.2929,5.3457,5.5365,5.8554,5.8629,6.0387,6.335,6.114,5.9859,5.9332,5.8855,5.893,5.9232,5.7148,5.6244,5.5993,5.4436,5.411,5.4411,5.3884,5.3708,5.3708,5.3658,5.3331,5.2929,5.2929,5.2904,5.2879,0.0,0.0,0.0,5.2277,5.3331,5.4712,5.5365,5.6417,5.822,6.1774,6.2688,6.36,6.6624,6.5667,6.4284,6.4436,6.3563,6.2873,6.2873,6.2873,6.2873,6.2873,6.2873,6.3073,6.3626,6.3199,6.3099,6.3676,6.3199,6.2873,6.2873,6.2847,6.2822,6.2822,6.2822,6.2822,6.2822,6.2822,6.2822,6.2822,6.2822,6.2822,6.2822,6.2822,6.2822,6.2822,6.2822,6.2822,6.2797,6.227,6.2044,6.1994,6.1441,6.124,6.1316,6.1818,6.2019,6.2094,6.2596,6.2446,6.2069,0.0,0.0,0.0,0.0,0.0,0.0,0.0,0.0,0.0,0.0,0.0,0.0,0.0,5.2929,5.2929,5.2929,5.3406,5.3708,5.3708,5.3532,5.3281,5.2955,5.2929,5.2929,5.2929,5.2929,5.2929,5.2929,5.3457,5.4687,5.6595,5.8052,5.9533,6.0989,6.0914,6.0763,6.0512,5.9608,5.9332,5.9357,5.7901,5.6646,5.5616,5.5013,5.426,5.3532,5.3658,5.3934,5.421,5.3833,5.3582,5.3432,5.3432,5.3206,5.2929,5.2929,5.2929,5.2879,5.2678,5.3055,5.3733,5.4637,5.5164,5.5984,5.798,5.8997,5.9964,6.1438,6.1735,6.1838,6.2222,6.2024,6.1768,6.1768,6.2069,6.2295,6.2295,6.2596,6.2898,6.3124,6.2948,6.2898,6.3124,6.2948,6.2822,6.2822,6.2822,6.2822,6.2822,6.2822,6.2822,6.2822,6.2822,6.2822,6.2822,6.2822,6.2822,6.2822,6.2822,6.2822,6.2822,6.2446,6.2295,6.227,6.1718,6.1667,6.1969,6.1416,6.119,6.124,6.1793,6.1994,6.2019,6.222,6.2395,6.2496,0.0,0.0,0.0,4.9866,0.0,5.1473,5.2026,5.2578,5.2929,5.2929,0.0,0.0,0.0,0.0,5.3005,5.3181,5.3331,5.3507,5.3683,5.3532,5.3281,5.2955,5.2929,5.2929,5.2929,5.2929,5.2929,5.2929,5.3281,5.421,5.5691,5.7173,5.8554,5.9784,6.0362,6.0939,6.1416,6.0663,6.0236,5.991,5.8077,5.6897,5.6168,5.5591,5.4813,5.4084,5.4411,5.4561,5.4511,5.4135,5.3758,5.3507,5.3884,5.3632,5.3181,5.3181,5.3055,5.2929,5.2929,5.2929,5.3181,5.4285,5.416,5.4135,5.5591,5.6219,5.6746,5.7675,5.8604,5.9408,5.9985,6.0085,6.0337,6.1065,6.1316,6.1517,6.1692,6.2044,6.227,6.227,6.2446,6.2546,6.2546,6.2722,6.2822,6.2822,6.2822,6.2822,6.2822,6.2822,6.2822,6.2822,6.2822,6.2822,6.2822,6.2822,6.2822,6.2822,6.2822,6.2822,6.2822,6.2446,6.2295,6.2245,6.1692,6.1567,6.1692,6.1341,6.119,6.124,6.1793,6.1994,6.2019,6.222,6.2521,6.2772,5.0343,5.0419,5.0419,5.0393,5.0896,5.1473,5.2,5.2578,5.2929,5.2929,0.0,0.0,0.0,0.0,0.0,5.3632,5.3231,5.313,5.3658,5.3206,5.2929,5.2929,5.2929,5.2929,5.2929,5.2929,5.2929,5.2929,5.2929,5.4034,5.6118,5.6143,5.76,6.0161,5.9684,6.0362,6.1893,6.1918,6.1642,6.0864,5.7575,5.6922,5.7725,5.6043,5.5717,5.6194,5.6194,5.5516,5.4637,5.4637,5.3934,5.3256,5.4285,5.421,5.3758,5.3733,5.3356,5.298,0.0,0.0,0.0,5.4285,5.3331,5.2703,5.4813,5.4461,5.416,5.5792,5.6595,5.7173,5.775,5.7826,5.8529,6.0688,6.0613,6.0462,6.1065,6.114,6.114,6.119,6.1642,6.1969,6.1969,6.2471,6.2797,6.2797,6.2797,6.2822,6.2822,6.2822,6.2822,6.2822,6.2822,6.2822,6.2822,6.2822,6.2822,6.2822,6.2822,6.2822,6.2822,6.2822,6.2797,6.2772,6.2245,6.1692,6.1215,6.1215,6.119,6.124,6.1818,6.2019,6.2069,6.2621,6.2822,6.2822,5.0921,5.0695,5.0293,4.9891,5.0619,5.1322,5.1498,5.2327,5.2929,0.0,0.0,0.0,5.2929,5.2929,5.298,5.313,5.3005,5.298,5.313,5.3005,5.2929,5.2929,5.2929,5.2929,5.2929,5.2929,5.2929,5.2929,5.2929,5.3231,5.3858,5.4662,5.5641,5.6821,5.8278,5.8981,5.9081,5.9859,6.0337,6.0387,5.8278,5.7625,5.7725,5.6043,5.5491,5.5616,5.5616,5.5942,5.6344,5.6344,5.642,5.6445,5.5917,5.5365,5.4838,5.4436,5.4235,5.411,5.411,0.0,0.0,0.0,0.0,0.0,5.3055,5.3356,5.3833,5.431,5.5164,5.6018,5.657,5.6344,5.642,5.7424,5.8453,5.9332,5.9885,5.996,6.0261,6.109,6.0939,6.0939,6.1366,6.1542,6.1793,6.2195,6.2245,6.2395,6.2797,6.2822,6.2822,6.2822,6.2822,6.2822,6.2822,6.2822,6.2822,6.2822,6.2822,6.2822,6.2822,6.2421,6.2245,6.222,6.2069,6.1918,6.1768,6.1768,6.1542,6.1266,6.222,6.2345,6.2069,6.2621,6.2822,6.2822,5.1222,5.1021,5.067,5.0343,5.0845,5.1348,5.1599,5.2377,5.2929,0.0,0.0,0.0,5.2929,5.3331,5.3432,5.298,5.2929,5.2929,5.2929,5.2929,5.2929,5.2929,5.2929,5.2929,5.2929,5.2929,5.2929,5.2929,5.2929,5.2929,5.2929,5.3582,5.416,5.4762,5.6545,5.7273,5.7273,5.8604,5.9357,5.9558,5.8604,5.8504,5.8805,5.7826,5.76,5.7775,5.7524,5.8273,5.9122,5.7823,5.7625,5.77,5.657,5.5993,5.5616,5.5064,5.4737,5.4612,5.4838,5.4737,5.4662,5.5013,0.0,0.0,5.2854,5.2729,5.2754,5.298,5.3733,5.4612,5.539,5.5265,5.5139,5.5465,5.6344,5.7323,5.8328,5.8478,5.8805,5.9709,5.991,6.0111,6.0437,6.0914,6.1316,6.1642,6.1868,6.2245,6.2797,6.2822,6.2822,6.2822,6.2822,6.2822,6.2822,6.2822,6.2822,6.2822,6.2822,6.2822,6.2822,6.2496,6.2345,6.2345,6.2345,6.2345,6.2345,6.2345,6.2169,6.1943,6.2571,6.2621,6.2395,6.2722,6.2822,6.2822,0.0,5.1297,5.1322,5.1197,5.1297,5.1548,5.2026,5.2578,5.2929,0.0,5.298,5.303,5.3105,5.3934,5.4084,5.3105,5.2955,5.2929,5.2929,5.2929,5.2929,5.2929,5.2929,5.2929,5.2929,5.2929,5.2929,5.2929,5.2929,5.2929,5.2929,5.2929,5.3181,5.3658,5.4737,5.5465,5.6043,5.7801,5.8478,5.8428,5.8755,5.9458,6.0311,6.0311,6.0638,6.1014,6.0512,6.1198,6.1992,5.9287,5.8278,5.8001,5.7072,5.6595,5.6319,5.5892,5.5315,5.4963,5.5516,5.5315,5.5265,5.6671,5.5139,0.0,5.3632,5.2578,5.1649,5.2026,5.2553,5.3231,5.421,5.4386,5.4386,5.4386,5.4386,5.4963,5.662,5.6796,5.6997,5.7625,5.8504,5.9106,5.9307,6.0236,6.0889,6.1065,6.1667,6.222,6.2722,6.2797,6.2822,6.2822,6.2822,6.2822,6.2822,6.2822,6.2822,6.2822,6.2822,6.2822,6.2822,6.2822,6.2822,6.2822,6.2822,6.2822,6.2822,6.2822,6.2822,6.2822,6.2822,6.2822,6.2822,6.2822,6.2822,6.2822,5.077,5.1322,5.1649,5.0745,5.1348,5.1975,5.2076,5.2578,5.2929,5.2929,5.3281,5.3733,5.4185,5.4009,5.3783,5.3557,5.3181,5.2929,5.2929,5.2929,5.2929,5.2929,5.2929,5.2929,5.2929,5.2929,5.2929,5.2929,5.2929,5.2929,5.2929,5.2929,5.298,5.3105,5.3758,5.4084,5.4336,5.647,5.7097,5.6897,5.9106,6.0136,6.0311,6.0311,6.0387,6.0462,6.0362,6.0773,6.1391,6.1274,6.0613,5.9885,6.0136,5.9006,5.7625,5.7976,5.7349,5.6671,5.7248,5.7323,5.7198,5.7072,5.6294,0.0,5.3984,5.3457,5.3005,5.2251,5.2553,5.3005,5.3206,5.3256,5.3256,5.3256,5.3256,5.3808,5.5465,5.534,5.5415,5.642,5.6344,5.6721,5.8077,5.8403,5.9081,6.0387,6.1441,6.2044,6.2169,6.2596,6.2822,6.2822,6.2822,6.2822,6.2822,6.2822,6.2822,6.2822,6.2822,6.2822,6.2822,6.2822,6.2822,6.2822,6.2822,6.2822,6.2822,6.2822,6.2822,6.2822,6.2822,6.2822,6.2822,6.2822,6.2822,6.2822,5.0896,5.1297,5.1699,5.1674,5.1925,5.2201,5.2477,5.2754,5.313,5.3658,5.4687,5.5265,5.5013,5.4712,5.431,5.3758,5.3457,5.3206,5.2955,5.3432,5.3507,5.2955,5.3181,5.3181,5.2929,5.2929,5.2929,5.2929,5.2929,5.2929,5.2929,5.2929,5.2779,5.2553,5.3356,5.3708,5.3833,5.5792,5.6796,5.7273,5.9759,6.0588,6.0412,6.124,6.1567,6.1567,6.1567,6.1592,6.1752,6.2787,6.2035,6.0663,6.0111,5.9382,5.8704,5.8704,5.8328,5.8052,5.888,5.8704,5.8353,5.8604,5.7625,0.0,0.0,5.431,5.3482,5.2678,5.2528,5.2603,5.2879,5.2929,5.2929,5.2929,5.2929,5.3206,5.4034,5.4135,5.4436,5.529,5.5641,5.6118,5.6972,5.7826,5.888,6.0211,6.0839,6.1416,6.1969,6.227,6.2546,6.2822,6.2822,6.2822,6.2822,6.2822,6.2822,6.2822,6.2822,6.2822,6.2822,6.2822,6.2822,6.2822,6.2822,6.2822,6.2822,6.2822,6.2822,6.2822,6.2822,6.2822,6.2822,6.2822,6.2822,6.2822,5.1021,5.1373,5.185,5.2628,5.2477,5.2427,5.2854,5.2929,5.3356,5.4561,5.5892,5.642,5.5641,5.5365,5.4938,5.4235,5.3808,5.3557,5.3557,5.4084,5.3959,5.298,5.3432,5.3406,5.2779,5.2879,5.2929,5.2929,5.2929,5.2929,5.2929,5.2929,5.2678,5.2302,5.3155,5.3607,5.3808,5.539,5.6646,5.7775,6.0085,6.0788,6.0638,6.2119,6.2747,6.2822,6.2822,6.2546,6.2311,6.3493,6.2764,6.114,5.991,5.9583,5.9608,5.9408,5.9207,5.9232,6.0211,5.9859,5.9408,6.0261,5.8981,5.7374,0.0,0.0,0.0,5.3532,5.2955,5.2678,5.303,5.308,5.308,5.308,5.308,5.308,5.308,5.3356,5.3733,5.4185,5.5039,5.5742,5.6168,5.7826,5.9232,6.0085,6.0261,6.0763,6.1793,6.1943,6.227,6.2822,6.2822,6.2822,6.2822,6.2822,6.2822,6.2822,6.2822,6.2822,6.2822,6.2822,6.2822,6.2822,6.2822,6.2822,6.2822,6.2822,6.2822,6.2822,6.2822,6.2822,6.2822,6.2822,6.2822,6.2847,5.0494,5.1724,5.2628,5.2251,5.2553,5.2854,5.2929,5.2929,5.3507,5.5089,5.5465,5.5717,5.6068,5.5239,5.4988,5.5842,5.4135,5.3833,5.5717,5.4561,5.3532,5.2955,5.3432,5.3231,5.2226,5.2678,5.2929,5.2929,5.2929,5.2929,5.2929,5.2929,5.2904,5.2829,5.2955,5.3281,5.3783,5.4963,5.5842,5.6646,5.9332,6.0688,6.1165,6.1843,6.2395,6.2822,6.2822,6.2797,6.2722,6.2891,6.2457,6.1969,6.227,6.1391,6.0412,6.1366,6.0914,6.0286,6.0914,6.0989,6.0939,6.1065,6.0136,5.9081,5.8554,0.0,5.6369,5.5315,0.0,5.4135,5.3708,0.0,0.0,5.3607,5.3607,5.3607,5.3607,5.3281,5.303,5.3105,5.3231,5.4059,5.6018,5.8152,5.9458,5.9583,6.0035,6.0613,6.124,6.1743,6.227,6.2822,6.2822,6.2822,6.2822,6.2822,6.2822,6.2822,6.2822,6.2822,6.2822,6.2822,6.2822,6.2822,6.2822,6.2822,6.2822,6.2822,6.2822,6.2822,6.2822,6.2822,6.2822,6.2822,6.2822,6.2898,5.0921,5.1749,5.2477,5.2578,5.2779,5.2929,5.2929,5.4285,5.534,5.539,5.652,5.7424,5.765,5.6671,5.6194,5.6646,5.5541,5.4963,5.5239,5.4888,5.4436,5.3909,5.4084,5.3833,5.3055,5.2955,5.2929,5.2929,5.2929,5.2929,5.2929,5.2929,5.2929,5.2929,5.2929,5.3231,5.3783,5.4913,5.5892,5.6872,5.8981,6.0387,6.1291,6.2144,6.2621,6.2822,6.2822,6.2822,6.2772,6.2446,6.2395,6.2395,6.1994,6.1617,6.1391,6.1868,6.1667,6.1416,6.1994,6.1893,6.1743,6.2044,6.1291,6.0337,5.9784,5.8805,5.77,5.657,0.0,0.0,0.0,0.0,0.0,0.0,5.3909,5.3708,5.3708,5.3256,5.2929,5.2929,5.3482,5.4762,5.6972,5.8027,5.883,5.9433,5.9709,6.0236,6.114,6.1391,6.1918,6.2797,6.2822,6.2822,6.2822,6.2822,6.2822,6.2822,6.2822,6.2822,6.2822,6.2822,6.2822,6.2822,6.2822,6.2822,6.2822,6.2822,6.2822,6.2822,6.2822,6.2822,6.2822,6.2822,6.2822,6.2923,5.1498,5.195,5.2452,5.2854,5.2929,5.2929,5.2929,5.4888,5.6168,5.5666,5.7022,5.8252,5.8855,5.8077,5.7675,5.8127,5.7524,5.6721,5.5767,5.5792,5.5315,5.416,5.4411,5.416,5.3281,5.303,5.2929,5.2929,5.2929,5.2929,5.2929,5.2929,5.3005,5.3155,5.3306,5.3758,5.4461,5.5591,5.6721,5.7851,5.9357,6.0638,6.1718,6.2521,6.2822,6.2822,6.2822,6.2822,6.2772,6.237,6.2496,6.2697,6.1893,6.1918,6.222,6.222,6.222,6.232,6.2722,6.2546,6.232,6.2722,6.2119,6.1291,6.0889,6.006,5.9081,5.7951,5.6972,0.0,0.0,0.0,5.5189,5.5039,0.0,5.411,5.3959,5.3356,5.2929,5.2929,5.4034,5.5541,5.7474,5.7951,5.8504,5.9433,5.9483,5.9985,6.1115,6.119,6.1692,6.2797,6.2822,6.2822,6.2822,6.2822,6.2822,6.2822,6.2822,6.2822,6.2822,6.2822,6.2822,6.2822,6.2822,6.2822,6.2822,6.2822,6.2822,6.2822,6.2822,6.2923,6.3073,6.3073,6.3073,6.3174,5.2076,5.2528,5.2904,5.2929,5.2929,5.2929,5.2929,5.3909,5.5013,5.6043,5.6244,5.7097,5.9232,5.8981,5.9307,6.0914,6.0035,5.9156,5.8629,5.7575,5.5792,5.3105,5.4009,5.3808,5.2201,5.2653,5.2929,5.2929,5.2929,5.2929,5.2929,5.2929,5.3206,5.3708,5.426,5.5114,5.6194,5.7349,5.8428,5.9508,6.0663,6.1793,6.2772,6.2822,6.2822,6.2822,6.2822,6.2822,6.2822,6.2822,6.2822,6.2822,6.2797,6.2797,6.2797,6.2797,6.2797,6.2797,6.2822,6.2822,6.2797,6.2822,6.2395,6.1969,6.1943,6.1517,6.0788,5.9633,5.8981,5.8278,5.7173,5.6972,5.6771,5.6244,5.5691,0.0,0.0,5.3607,5.2929,5.2929,5.4361,5.5817,5.6947,5.8052,5.8905,5.9458,5.9483,5.9985,6.1115,6.119,6.1692,6.2797,6.2822,6.2822,6.2822,6.2822,6.2822,6.2822,6.2822,6.2822,6.2822,6.2822,6.2822,6.2822,6.2822,6.2822,6.2822,6.2822,6.2822,6.2822,6.2822,6.3174,6.3676,6.3676,6.3676,6.3827,5.2101,5.2553,5.2929,5.2929,5.2929,5.2929,5.2929,5.4486,5.6194,5.7675,5.9131,6.1165,6.4128,6.3952,6.3852,6.4404,6.3124,6.1718,6.0437,5.9763,5.8602,5.6845,5.6836,5.6103,5.4285,5.3733,5.3281,5.2929,5.2929,5.3105,5.3432,5.308,5.3406,5.4235,5.3708,5.4285,5.5742,5.6846,5.7976,5.9156,6.0989,6.2395,6.335,6.2973,6.2822,6.2822,6.2822,6.2822,6.2822,6.2822,6.2822,6.2822,6.2822,6.2822,6.2822,6.2822,6.2822,6.2822,6.2822,6.3099,6.3299,6.2923,6.2973,6.2923,6.2169,6.1868,6.1517,6.0763,6.0161,5.9558,5.8805,5.8077,5.7424,0.0,0.0,5.5189,0.0,5.3909,5.3582,5.3959,5.4511,5.5415,5.6897,5.7374,5.7851,5.8403,5.878,5.9307,6.0035,6.0412,6.1115,6.2245,6.2295,6.2446,6.2822,6.2822,6.2822,6.2822,6.2822,6.2822,6.2822,6.2822,6.2822,6.2822,6.2822,6.3048,6.3375,6.2973,6.3048,6.3375,6.2973,6.3174,6.3701,6.3701,6.3902,6.4304,5.2402,5.2678,5.2929,5.2929,5.2929,5.2929,5.2929,5.5315,5.7625,5.9106,6.1567,6.4304,6.7241,6.7392,6.7216,6.7015,6.6237,6.453,6.1667,6.1607,6.0633,5.8177,5.8225,5.7421,5.5462,5.4662,5.3858,5.2929,5.3105,5.3281,5.3406,5.308,5.3406,5.4235,5.3733,5.431,5.5767,5.7273,5.8453,5.9458,6.1492,6.2722,6.335,6.2973,6.2948,6.3099,6.2898,6.2822,6.2822,6.2822,6.2822,6.2822,6.2822,6.2822,6.2822,6.2822,6.2822,6.2822,6.2822,6.3249,6.3601,6.3224,6.355,6.3726,6.2822,6.2596,6.2395,6.1642,6.119,6.0763,6.0186,5.9357,5.8504,0.0,0.0,0.0,0.0,5.3783,5.3632,5.4185,5.4436,5.5139,5.6595,5.6746,5.6972,5.7549,5.8102,5.873,5.9458,6.001,6.0839,6.1969,6.2195,6.2471,6.2822,6.2822,6.2822,6.2822,6.2822,6.2822,6.2822,6.2822,6.2948,6.3149,6.3149,6.345,6.3927,6.355,6.3525,6.3676,6.3475,6.3626,6.3977,6.3977,6.4429,6.5107,5.2929,5.2929,5.2929,5.2929,5.2929,5.2929,5.2929,5.6219,5.9156,6.0337,6.34,6.6388,6.8698,6.9401,6.9476,6.8924,6.9275,6.7493,6.2647,6.3306,6.1949,5.7575,5.8378,5.7951,5.5691,5.5491,5.4662,5.3055,5.3457,5.3432,5.2955,5.2929,5.3206,5.3733,5.4235,5.5089,5.6269,5.8453,5.9784,6.0537,6.2169,6.2847,6.2873,6.2847,6.3199,6.3626,6.3048,6.2822,6.2822,6.2822,6.2822,6.2822,6.2822,6.2822,6.2822,6.2822,6.2822,6.2822,6.2822,6.3274,6.3726,6.3701,6.4078,6.4329,6.3802,6.3676,6.335,6.227,6.2044,6.1868,6.1316,6.0738,6.001,0.0,0.0,0.0,5.4135,5.3406,5.3256,5.3733,5.4235,5.4988,5.6068,5.6143,5.6369,5.6947,5.7499,5.8278,5.9357,5.996,6.0788,6.1918,6.2496,6.2797,6.2822,6.2822,6.2822,6.2822,6.2822,6.2822,6.2822,6.2822,6.3149,6.3701,6.3701,6.4002,6.4505,6.4479,6.4203,6.3827,6.4279,6.4479,6.4505,6.453,6.5233,6.6162,5.2929,5.2929,5.2929,5.2929,5.2929,5.2929,5.2929,5.6219,5.9709,6.2471,6.6061,6.9702,7.3167,7.3293,7.2916,7.2364,7.1309,6.9602,6.7091,6.6913,6.5565,6.2703,6.2585,6.1454,5.9183,5.7047,5.5591,5.4762,5.3658,5.3256,5.3507,5.3105,5.3206,5.3683,5.3457,5.3959,5.5114,5.6897,5.9182,6.1642,6.2496,6.3099,6.3425,6.2998,6.3199,6.3626,6.3048,6.2822,6.2822,6.2822,6.2822,6.2822,6.2822,6.2822,6.2822,6.2822,6.2822,6.2822,6.2822,6.3525,6.4178,6.3776,6.4078,6.4329,6.3802,6.335,6.2973,6.2672,6.2621,6.2446,6.1893,6.1341,6.0588,5.9483,0.0,0.0,5.5717,5.5465,5.5265,5.4988,5.4737,5.4838,5.5541,5.5239,5.539,5.6344,5.657,5.7123,5.8252,5.9207,6.0236,6.1366,6.1943,6.2421,6.2822,6.2822,6.2822,6.2822,6.2822,6.2822,6.2822,6.2822,6.3149,6.3701,6.3701,6.4228,6.5032,6.463,6.463,6.4856,6.458,6.4705,6.5132,6.5534,6.6137,6.6764,5.2929,5.3306,5.3557,5.3306,5.4662,5.5641,5.5164,5.7173,6.001,6.3576,6.7392,7.0531,7.2489,7.3946,7.4347,7.3318,7.2339,7.0907,6.8773,6.8642,6.735,6.4614,6.4516,6.3319,6.0817,5.8453,5.6671,5.539,5.3959,5.3306,5.3356,5.3055,5.308,5.3356,5.3055,5.3406,5.4336,5.6495,5.9182,6.2044,6.2345,6.2797,0.0,6.2948,6.3023,6.3274,6.2948,6.2822,6.2822,6.2822,6.2822,6.2822,6.2822,6.2822,6.2822,6.2822,6.2822,6.2873,6.3149,6.3827,6.4454,6.4404,6.4781,6.4982,6.4203,6.3776,6.34,6.2923,6.2822,6.2722,6.2421,6.1918,6.1165,6.0035,5.8679,5.7575,5.7022,5.6721,5.6369,5.5817,5.5265,5.5239,5.6018,5.5164,5.5013,5.6118,5.6445,5.7072,5.8202,5.9282,6.0261,6.1165,6.2195,6.2772,6.2822,6.3073,6.3073,6.2822,6.2822,6.2822,6.2822,6.2822,6.3274,6.4028,6.3776,6.4429,6.5609,6.5057,6.5007,6.5258,6.4957,6.5308,6.6061,6.6388,6.6689,6.7015,5.2929,5.3758,5.4285,5.3783,5.6846,5.9232,5.873,5.9357,6.114,6.4555,6.8321,7.0556,7.0129,7.3117,7.4523,7.2966,7.2715,7.1585,6.91,6.925,6.812,6.5132,6.5333,6.4329,6.1768,5.9734,5.77,5.5717,5.431,5.3356,5.2929,5.2929,5.2929,5.2929,5.2929,5.3256,5.3984,5.657,5.9232,6.1692,6.1843,6.227,6.2822,6.2822,6.2822,6.2822,6.2822,6.2822,6.2822,6.2822,6.2822,6.2822,6.2822,6.2822,6.2822,6.2822,6.2822,6.2948,6.345,6.3977,6.4479,6.4957,6.5434,6.5534,6.458,6.4304,6.3977,6.3023,6.2822,6.2822,6.2822,6.237,6.1692,6.0688,5.9709,5.8855,5.8303,5.7775,5.7223,5.662,5.6043,0.0,5.7047,5.5641,5.5164,5.6344,5.6796,5.7524,5.8654,5.9734,6.0588,6.1165,6.2747,6.3375,6.2948,6.3375,6.3375,6.2948,6.2948,6.2948,6.2948,6.2998,6.355,6.4454,6.4078,6.4705,6.5961,6.5559,6.5383,6.5383,6.5383,6.6036,6.699,6.7066,6.7141,6.7267,5.2929,5.3432,5.3808,5.3708,5.657,5.9709,6.2295,6.468,6.6614,6.7744,7.0882,7.3142,7.3519,7.4146,7.4247,7.3519,7.259,7.1661,7.0706,6.9903,6.8974,6.7945,6.7116,6.6011,6.4605,6.0713,5.8303,5.7449,5.4511,5.3005,5.2929,5.2929,5.2929,5.2929,5.2929,5.3482,5.4511,5.5917,5.7826,6.001,6.0939,6.1943,6.2822,6.2822,6.2822,6.2822,6.2822,6.2822,6.2822,6.2822,6.2822,6.2822,6.2822,6.2822,6.2822,6.2822,6.2822,6.2847,6.2948,6.34,6.3852,6.3952,6.4053,6.4078,6.3877,6.345,6.3048,6.2873,6.2822,6.2822,6.2822,6.237,6.1943,6.1743,6.1165,6.0563,5.9985,5.9809,5.9382,5.8403,5.7801,5.7549,5.7725,5.6244,5.5892,5.7474,5.7248,5.7524,5.8654,5.9734,6.0588,6.1165,6.2345,6.3149,6.3525,6.3174,6.3174,6.3525,6.3525,6.3525,6.355,6.3977,6.4279,6.4479,6.4856,6.5183,6.5459,6.5835,6.5961,6.5961,6.5961,6.6388,6.7041,6.7493,6.7945,6.8346,5.2929,5.3808,5.4938,5.6093,5.9533,6.3048,6.5835,6.8346,6.9627,6.8748,7.0029,7.1108,7.1384,7.2941,7.3644,7.2791,7.2213,7.156,7.0706,7.0154,6.9376,6.8246,6.7693,6.6614,6.4906,6.1366,5.9006,5.7901,5.4838,5.3181,5.2929,5.2929,5.2929,5.2929,5.2929,5.3532,5.4637,5.5742,5.7323,5.9207,6.0613,6.1667,6.2446,6.2722,6.2822,6.2822,6.2822,6.2822,6.2822,6.2822,6.2822,6.2822,6.2822,6.2822,6.2822,6.2822,6.2822,6.2898,6.3199,6.3475,6.3751,6.4028,6.4103,6.4028,6.3751,6.3475,6.3199,6.2898,6.2822,6.2822,6.2822,6.2621,6.2421,6.2421,6.222,6.1843,6.1266,6.119,6.0889,6.0085,5.9257,5.883,5.9131,5.7926,5.7449,5.8252,5.8077,5.8278,5.9081,6.0161,6.0889,6.1165,6.2797,6.3676,6.3701,6.3977,6.4103,6.4103,6.4103,6.4103,6.4103,6.4354,6.463,6.4881,6.4881,6.5183,6.5735,6.6011,6.6112,6.6137,6.6438,6.6915,6.7467,6.802,6.8572,6.9049,5.3532,5.4863,5.6646,5.9006,6.2873,6.6287,6.817,7.0229,7.1033,6.9526,6.9225,6.92,6.93,7.1661,7.2866,7.1987,7.1686,7.1133,7.0154,6.9878,6.915,6.7869,6.7693,6.6689,6.468,6.1918,5.9659,5.7901,5.5189,5.3557,5.2929,5.2929,5.2929,5.2929,5.2929,5.3457,5.4461,5.5566,5.7072,5.8855,6.0387,6.1466,6.222,6.2672,6.2822,6.2822,6.2822,6.2822,6.2822,6.2822,6.2822,6.2822,6.2822,6.2822,6.2822,6.2822,6.2822,6.2923,6.3375,6.3601,6.3751,6.4053,6.4203,6.4178,6.3626,6.35,6.3375,6.2923,6.2822,6.2822,6.2822,6.2822,6.2822,6.2822,6.2822,6.2672,6.2245,6.2169,6.1969,6.1416,6.0462,5.9985,6.0286,5.9558,5.9006,5.8905,5.888,5.9056,5.9483,6.0563,6.119,6.119,6.3224,6.4153,6.3852,6.4705,6.4957,6.463,6.463,6.4705,6.4831,6.4931,6.5233,6.5634,6.5183,6.5484,6.6287,6.6287,6.6363,6.6513,6.6965,6.7493,6.802,6.8472,6.8974,6.9361,5.5516,5.6846,5.8529,6.1215,6.453,6.7066,6.7769,6.9325,7.0706,7.1485,7.1158,7.1033,7.1535,7.1887,7.2037,7.1912,7.0983,7.0154,6.9551,6.8597,6.797,6.7819,6.7317,6.6463,6.5233,6.2521,6.006,5.7901,5.5616,5.3959,5.2929,5.2929,5.2929,5.2929,5.2929,5.3256,5.3858,5.4988,5.6721,5.883,5.996,6.1341,6.2747,6.2822,6.2822,6.2822,6.2822,6.2822,6.2822,6.2822,6.2822,6.2822,6.2822,6.2822,6.2822,6.2822,6.2822,6.2847,6.2898,6.3299,6.3576,6.3099,6.3375,6.3626,6.3048,6.2898,6.2898,6.2847,6.2822,6.2822,6.2822,6.2822,6.2822,6.2822,6.2822,6.2822,6.2772,6.2747,6.2546,6.1994,6.1391,6.0839,6.0362,6.0236,5.996,5.9458,5.9433,5.9433,5.9483,6.0563,6.119,6.119,6.2873,6.3977,6.4379,6.4479,6.4781,6.5208,6.5208,6.5484,6.5986,6.6513,6.6764,6.6815,6.6764,6.6789,6.689,6.689,6.7191,6.7643,6.7693,6.807,6.8547,6.8597,6.8974,6.9361,5.7474,5.8328,5.9935,6.3375,6.5358,6.7091,6.8999,6.9551,6.9803,6.9928,7.0305,7.0932,7.1811,7.161,7.141,7.141,7.0405,6.9551,6.8999,6.8221,6.7643,6.7317,6.7091,6.6438,6.5308,6.3249,6.109,5.8855,5.6646,5.4813,5.3381,5.308,5.2929,5.2929,5.3256,5.3708,5.4336,5.6143,5.76,5.8855,6.0613,6.1743,6.237,6.2697,6.2822,6.2822,6.2822,6.2822,6.2822,6.2822,6.2822,6.2822,6.2822,6.2822,6.2822,6.2822,6.2822,6.2822,6.2822,6.3249,6.3626,6.34,6.3525,6.3626,6.34,6.3073,6.2822,6.2822,6.2822,6.2822,6.2822,6.2822,6.2822,6.2822,6.2822,6.2822,6.2822,6.2822,6.2621,6.2069,6.1517,6.0964,6.0387,6.0311,6.0236,6.001,6.0311,6.0362,6.001,6.1065,6.1667,6.1667,6.3299,6.4254,6.4454,6.5459,6.6086,6.6312,6.6639,6.6915,6.7141,6.7367,6.7467,6.7467,6.7467,6.7467,6.7467,6.7467,6.7593,6.7819,6.817,6.8422,6.8673,6.8999,6.925,6.9501,5.9232,6.001,6.1592,6.5157,6.6237,6.7317,6.9451,6.93,6.8823,6.8422,6.9049,6.9953,7.1058,7.0983,7.0832,7.0832,6.9828,6.8974,6.8422,6.7693,6.7141,6.6739,6.6714,6.6262,6.5308,6.3852,6.2069,5.9985,5.7951,5.6018,5.4185,5.3482,5.3256,5.3432,5.3959,5.4712,5.5666,5.7399,5.8629,5.9558,6.1316,6.2094,6.2295,6.2672,6.2822,6.2822,6.2822,6.2822,6.2822,6.2822,6.2822,6.2822,6.2822,6.2822,6.2822,6.2822,6.2822,6.2873,6.3048,6.35,6.3877,6.3726,6.3802,6.3827,6.35,6.3124,6.2822,6.2822,6.2822,6.2822,6.2822,6.2822,6.2822,6.2822,6.2822,6.2822,6.2822,6.2822,6.2672,6.2295,6.1768,6.1266,6.0864,6.0814,6.0738,6.0588,6.124,6.1341,6.0613,6.1492,6.2069,6.2245,6.3701,6.463,6.4957,6.6287,6.7066,6.7216,6.7618,6.7869,6.8045,6.8221,6.8196,6.8045,6.8045,6.8045,6.8045,6.8045,6.8145,6.8321,6.8723,6.8874,6.8899,6.93,6.9361,6.9501,6.0738,6.2044,6.3676,6.6463,6.7417,6.797,6.8547,6.817,6.7819,6.7819,6.7819,6.8246,6.9351,6.9953,7.028,7.028,6.9275,6.8396,6.7844,6.6764,6.6137,6.6112,6.6112,6.586,6.5308,6.4228,6.2847,6.1165,5.9508,5.7549,5.534,5.421,5.4009,5.4561,5.5114,5.6294,5.7901,5.8453,5.9659,6.119,6.1768,6.2345,6.2822,6.2822,6.2822,6.2822,6.2822,6.2822,6.2822,6.2822,6.2822,6.2822,6.2822,6.2822,6.2822,6.2822,6.2822,6.2948,6.3525,6.4053,6.4329,6.3827,6.4078,6.4178,6.3099,6.2847,6.2822,6.2822,6.2822,6.2822,6.2822,6.2822,6.2822,6.2822,6.2822,6.2822,6.2822,6.2822,6.2822,6.2822,6.2345,6.1994,6.1994,6.1994,6.1768,6.1215,6.2195,6.232,6.124,6.1692,6.2245,6.2797,6.3877,6.4982,6.6086,6.6689,6.7241,6.7794,6.7794,6.8095,6.8622,6.9175,6.9125,6.8622,6.8622,6.8622,6.8622,6.8622,6.8924,6.9336,6.9426,6.9336,6.9336,6.9361,6.9361,6.9361,6.2672,6.3174,6.4053,6.6036,6.6538,6.684,6.7417,6.7342,6.7091,6.6689,6.699,6.7367,6.7719,6.8597,6.915,6.915,6.8472,6.7819,6.7267,6.6538,6.6112,6.6112,6.6112,6.586,6.5308,6.458,6.34,6.1743,6.0437,5.8679,5.6495,5.6143,5.5867,5.5717,5.6671,5.76,5.8504,5.9834,6.0914,6.1793,6.2345,6.2672,6.2822,6.2822,6.2822,6.2822,6.2822,6.2822,6.2822,6.2822,6.2822,6.2822,6.2822,6.2822,6.2822,6.2822,6.2822,6.2873,6.3048,6.3776,6.4429,6.4254,6.463,6.4831,6.4103,6.3375,6.2822,6.2822,6.2822,6.2822,6.2822,6.2822,6.2822,6.2822,6.2822,6.2822,6.2822,6.2822,6.2697,6.232,6.2119,6.1868,6.1492,6.1793,6.1943,6.1768,6.2421,6.2496,6.1793,6.2647,6.3249,6.34,6.4454,6.5383,6.6112,6.7442,6.8371,6.8924,6.9677,6.9928,6.9727,6.9526,6.9551,6.9752,6.9752,6.9752,6.9752,6.9752,6.9627,6.9361,6.9361,6.9361,6.9361,6.9361,6.9361,6.9501,6.3299,6.355,6.4078,6.5283,6.566,6.5986,6.6564,6.6639,6.6513,6.6162,6.6438,6.6639,6.6639,6.7467,6.8095,6.8296,6.7819,6.7342,6.699,6.6438,6.6112,6.6112,6.6112,6.586,6.5308,6.4756,6.3877,6.2647,6.109,5.9508,5.7951,5.775,5.7575,5.7474,5.8403,5.9232,5.9985,6.104,6.1818,6.2345,6.2697,6.2822,6.2822,6.2822,6.2822,6.2822,6.2822,6.2822,6.2822,6.2822,6.2822,6.2822,6.2822,6.2822,6.2822,6.2822,6.2822,6.2923,6.3324,6.3952,6.4454,6.4454,6.4731,6.4781,6.4028,6.3324,6.2822,6.2822,6.2822,6.2822,6.2822,6.2822,6.2822,6.2822,6.2822,6.2822,6.2822,6.2822,6.2697,6.2345,6.2496,6.2496,6.2169,6.2621,6.2847,6.2647,6.2948,6.2998,6.2647,6.3299,6.3776,6.3977,6.5032,6.5961,6.6739,6.8196,6.92,6.9752,7.0656,7.0907,7.0556,7.0229,7.0255,7.0556,7.0355,7.0255,7.0255,7.0054,6.9752,6.9361,6.9361,6.9361,6.9361,6.9361,6.9577,6.9777,6.2822,6.3299,6.3852,6.4379,6.4931,6.5484,6.6036,6.6112,6.6112,6.6112,6.6112,6.6112,6.6112,6.6589,6.7116,6.7643,6.7241,6.694,6.6865,6.6388,6.6086,6.6061,6.6086,6.586,6.5308,6.4756,6.4203,6.3626,6.1517,6.0211,5.9659,5.9131,5.9156,5.9633,6.0186,6.1014,6.1994,6.2044,6.2345,6.2822,6.2822,6.2822,6.2822,6.2822,6.2822,6.2822,6.2822,6.2822,6.2822,6.2822,6.2822,6.2822,6.2822,6.2822,6.2822,6.2822,6.2822,6.3048,6.4078,6.4379,6.4404,6.4404,6.4404,6.4153,6.3124,6.2847,6.2822,6.2822,6.2822,6.2822,6.2822,6.2822,6.2822,6.2822,6.2822,6.2822,6.2822,6.2822,6.2847,6.2873,6.3375,6.3726,6.3802,6.4203,6.4279,6.3827,6.3776,6.3751,6.3751,6.3827,6.4078,6.4555,6.5609,6.6714,6.7844,6.8949,6.9803,7.043,7.0907,7.1133,7.1133,7.1108,7.1108,7.1108,7.0606,7.0355,7.028,6.9777,6.9501,6.9361,6.9361,6.9361,6.9361,6.9361,6.9777,7.0129,6.2822,6.3299,6.3852,6.4379,6.4931,6.5484,6.6036,6.6112,6.6112,6.6112,6.6112,6.6112,6.6112,6.6237,6.6363,6.6488,6.6789,6.6614,6.5735,6.5961,6.5936,6.5509,6.5886,6.586,6.5308,6.4756,6.4002,6.3023,6.2496,6.1943,6.1416,6.1291,6.1065,6.0814,6.1366,6.1743,6.2044,6.2446,6.2697,6.2822,6.2822,6.2822,6.2822,6.2822,6.2822,6.2822,6.2822,6.2822,6.2822,6.2822,6.2822,6.2822,6.2822,6.2822,6.2822,6.2822,6.2822,6.2898,6.3149,6.3525,6.3877,6.3877,6.3877,6.3802,6.355,6.3149,6.2822,6.2822,6.2822,6.2822,6.2822,6.2822,6.2822,6.2822,6.2822,6.2822,6.2822,6.2822,6.2998,6.3425,6.3601,6.4002,6.4831,6.4655,6.458,6.4881,6.453,6.4279,6.4279,6.5082,6.5584,6.571,6.6413,6.7317,6.8422,6.9526,7.0757,7.2138,7.1861,7.1711,7.1711,7.1284,7.1309,7.1711,7.1585,7.1284,7.0882,7.0757,7.0204,6.9361,6.9361,6.9361,6.9361,6.9361,6.9526,6.9677,6.2822,6.3299,6.3852,6.4379,6.4931,6.5484,6.6036,6.6112,6.6112,6.6112,6.6112,6.6112,6.6112,6.6112,6.6011,6.576,6.6036,6.5936,6.5333,6.5559,6.5609,6.5308,6.5584,6.5484,6.4931,6.4379,6.3701,6.2822,6.2822,6.2672,6.2395,6.2395,6.222,6.1943,6.2245,6.2395,6.2395,6.2697,6.2822,6.2822,6.2822,6.2822,6.2822,6.2822,6.2822,6.2822,6.2822,6.2822,6.2822,6.2822,6.2822,6.2822,6.2822,6.2822,6.2822,6.2822,6.2822,6.2898,6.3149,6.345,6.3701,6.3701,6.35,6.3375,6.3626,6.3249,6.2898,6.3174,6.2998,6.2822,6.2822,6.2822,6.2822,6.2822,6.2822,6.2822,6.2822,6.3048,6.335,6.3651,6.4354,6.5032,6.5609,6.586,6.5911,6.5685,6.5383,6.5107,6.4856,6.566,6.6112,6.6112,6.7166,6.8145,6.8999,7.033,7.1585,7.274,7.2414,7.2288,7.2263,7.1962,7.1987,7.2263,7.1761,7.1359,7.1033,7.0531,6.9978,6.9361,6.9361,6.9361,6.9361,6.9361,6.9602,6.9853,6.2822,6.3299,6.3852,6.4379,6.4931,6.5484,6.6036,6.6112,6.6112,6.6112,6.6112,6.6112,6.6112,6.6112,6.5936,6.5459,6.5258,6.5132,6.5057,6.5208,6.5258,6.5157,6.5258,6.5082,6.4605,6.4002,6.34,6.2822,6.2822,6.2822,6.2822,6.2822,6.2822,6.2822,6.2822,6.2822,6.2822,6.2822,6.2822,6.2822,6.2822,6.2822,6.2822,6.2822,6.2822,6.2822,6.2822,6.2822,6.2822,6.2822,6.2822,6.2822,6.2822,6.2822,6.2822,6.2822,6.2822,6.2923,6.3425,6.355,6.355,6.355,6.3249,6.3099,6.3576,6.3299,6.3099,6.3576,6.3224,6.2822,6.2822,6.2898,6.2948,6.2948,6.2948,6.2948,6.2948,6.3375,6.3726,6.3802,6.5183,6.6187,6.6338,6.7241,6.7442,6.6564,6.6413,6.6162,6.5685,6.6187,6.6488,6.6488,6.797,6.91,6.9803,7.1209,7.2188,7.274,7.274,7.274,7.274,7.274,7.274,7.269,7.1736,7.1234,7.1008,7.0079,6.9602,6.9361,6.9361,6.9501,6.9577,6.9577,6.9903,7.0405,6.2822,6.3299,6.3852,6.4379,6.4931,6.5484,6.6036,6.6112,6.6112,6.6112,6.6112,6.6112,6.6112,6.6112,6.6086,6.5986,6.5132,6.4404,6.3977,6.4781,6.5082,6.4605,6.5032,6.5258,6.5157,6.4203,6.34,6.2822,6.2822,6.2822,6.2822,6.2822,6.2822,6.2822,6.2822,6.2822,6.2822,6.2822,6.2822,6.2822,6.2822,6.2822,6.2822,6.2822,6.2822,6.2822,6.2822,6.2822,6.2822,6.2822,6.2822,6.2822,6.2822,6.2822,6.2822,6.2822,6.2822,6.2847,6.2948,6.2973,6.2973,6.2973,6.3249,6.3576,6.3676,6.3626,6.3576,6.3676,6.3224,6.2822,6.2822,6.3224,6.355,6.355,6.355,6.355,6.355,6.3626,6.3852,6.4304,6.5383,6.6488,6.7442,6.7693,6.7919,6.8221,6.7794,6.7493,6.7417,6.7945,6.8221,6.8221,6.8949,7.0029,7.151,7.1786,7.2188,7.274,7.274,7.274,7.274,7.274,7.274,7.2715,7.2539,7.1937,7.1058,7.0907,7.028,6.9361,6.9361,6.9727,7.0129,7.0129,7.048,7.1033,6.2822,6.3299,6.3776,6.4002,6.4731,6.5383,6.5634,6.5911,6.6112,6.6112,6.6112,6.6112,6.6112,6.6112,6.5986,6.5685,6.5208,6.4555,6.3751,6.4404,6.4605,6.4078,6.4555,6.458,6.3977,6.3475,6.3099,6.2822,6.2822,6.2822,6.2822,6.2822,6.2822,6.2822,6.2822,6.2822,6.2822,6.2822,6.2822,6.2822,6.2822,6.2822,6.2822,6.2822,6.2822,6.2822,6.2822,6.2822,6.2822,6.2822,6.2822,6.2822,6.2822,6.2822,6.2822,6.2822,6.2822,6.2822,6.2822,6.3048,6.3299,6.3299,6.3701,6.4178,6.4479,6.4103,6.3776,6.4053,6.3425,6.2923,6.3224,6.35,6.3701,6.3701,6.3701,6.3701,6.3701,6.4178,6.4756,6.5283,6.6614,6.7794,6.8597,6.8949,6.9225,6.9476,6.8999,6.8547,6.8271,6.8497,6.8748,6.9049,6.9878,7.0832,7.1887,7.2213,7.2489,7.274,7.274,7.274,7.274,7.274,7.2565,7.2263,7.1962,7.1384,7.0606,7.033,6.9903,6.9361,6.9361,6.9602,6.9853,7.0154,7.043,7.0757,6.2822,6.3174,6.3525,6.3676,6.4479,6.5132,6.5283,6.576,6.6112,6.6112,6.6112,6.6112,6.6112,6.6112,6.5936,6.5509,6.5358,6.4881,6.3927,6.4254,6.4279,6.3877,6.4379,6.4078,6.2847,6.2948,6.2973,6.2822,6.2822,6.2822,6.2822,6.2822,6.2822,6.2822,6.2822,6.2822,6.2822,6.2822,6.2822,6.2822,6.2822,6.2822,6.2822,6.2822,6.2822,6.2822,6.2822,6.2822,6.2822,6.2822,6.2822,6.2822,6.2822,6.2822,6.2847,6.2998,6.3023,6.2998,6.2873,6.3149,6.3525,6.3651,6.4078,6.4605,6.5157,6.4655,6.4128,6.4404,6.3802,6.3299,6.3626,6.3902,6.4053,6.4053,6.4053,6.4103,6.4228,6.4957,6.5685,6.6237,6.7794,6.8974,6.9401,7.0054,7.0455,7.0455,7.0054,6.9652,6.9225,6.92,6.9451,7.0003,7.0832,7.1535,7.2087,7.2514,7.274,7.274,7.274,7.274,7.274,7.274,7.2489,7.2062,7.1661,7.1083,7.043,7.0129,6.9853,6.9652,6.9777,6.9903,7.0079,7.048,7.0732,7.0958,6.2822,6.2873,6.3048,6.3601,6.4153,6.4705,6.5208,6.576,6.6112,6.6112,6.6112,6.6112,6.6112,6.6112,6.6086,6.6061,6.5584,6.5032,6.4454,6.4454,6.4454,6.4404,6.4931,6.4479,6.2873,6.335,6.3375,6.2822,6.2822,6.2822,6.2822,6.2822,6.2822,6.2822,6.2822,6.2822,6.2822,6.2822,6.2822,6.2822,6.2822,6.2822,6.2822,6.2822,6.2822,6.2822,6.2822,6.2822,6.2822,6.2822,6.2822,6.2822,6.2822,6.2822,6.2923,6.3475,6.3626,6.35,6.2973,6.2873,6.3023,6.355,6.4078,6.4605,6.5157,6.5233,6.5032,6.4555,6.4404,6.4203,6.3776,6.4505,6.5183,6.5183,6.5183,6.5358,6.586,6.6011,6.6262,6.684,6.8371,6.9401,6.9361,7.0405,7.1033,7.1033,7.0983,7.0958,7.0907,7.0907,7.1158,7.1711,7.1811,7.2113,7.2665,7.2715,7.274,7.274,7.274,7.274,7.274,7.274,7.2715,7.2665,7.2615,7.2012,7.1058,7.1535,7.1108,7.0255,7.0757,7.1284,7.1736,7.1786,7.2113,7.2565,6.2822,6.2822,6.2898,6.3124,6.3626,6.4053,6.4279,6.5032,6.5609,6.5609,6.5886,6.6112,6.6112,6.6112,6.6112,6.6112,6.5911,6.5434,6.453,6.4781,6.4831,6.4479,6.4354,6.4002,6.3375,6.3224,6.3048,6.2822,6.2822,6.2822,6.2822,6.2822,6.2822,6.2822,6.2822,6.2822,6.2822,6.2822,6.2822,6.2822,6.2822,6.2822,6.2822,6.2822,6.2822,6.2822,6.2822,6.2822,6.2822,6.2822,6.2822,6.2822,6.2822,6.2822,6.2873,6.3099,6.3626,6.4053,6.35,6.3375,6.3576,6.4454,6.4831,6.5132,6.5685,6.5534,6.5233,6.5032,6.4705,6.4505,6.4655,6.5007,6.5283,6.5283,6.5283,6.5484,6.6036,6.6413,6.699,6.7894,6.915,7.0079,7.043,7.1158,7.1736,7.2087,7.1786,7.1585,7.1585,7.1585,7.1686,7.1887,7.2238,7.2514,7.274,7.274,7.274,7.274,7.274,7.274,7.274,7.274,7.2364,7.1736,7.2062,7.1585,7.0606,7.1158,7.1158,7.0807,7.1008,7.1209,7.1435,7.1786,7.2037,7.2263,6.2822,6.2822,6.2822,6.2822,6.3299,6.3701,6.3701,6.4454,6.5082,6.5258,6.5609,6.5911,6.6086,6.6112,6.6112,6.6112,6.5961,6.5459,6.453,6.4831,6.4856,6.4479,6.4304,6.4028,6.3701,6.3299,6.2998,6.2822,6.2822,6.2822,6.2822,6.2822,6.2822,6.2822,6.2822,6.2822,6.2822,6.2822,6.2822,6.2822,6.2822,6.2822,6.2822,6.2822,6.2822,6.2822,6.2822,6.2822,6.2822,6.2822,6.2822,6.2822,6.2822,6.2948,6.3073,6.2873,6.3601,6.4379,6.4028,6.3927,6.4153,6.5057,6.5283,6.5434,6.5986,6.581,6.5484,6.5333,6.5132,6.5032,6.5258,6.5584,6.581,6.581,6.5961,6.6262,6.6815,6.7241,6.7844,6.8773,6.9853,7.0656,7.1058,7.1736,7.2313,7.269,7.2389,7.2163,7.2163,7.2163,7.2163,7.2163,7.2715,7.2916,7.274,7.274,7.274,7.274,7.274,7.274,7.274,7.274,7.2313,7.161,7.1987,7.1636,7.0807,7.1359,7.1485,7.1359,7.1535,7.161,7.1636,7.2037,7.2163,7.2213,6.2822,6.2822,6.2822,6.2822,6.3299,6.3676,6.3676,6.4128,6.4655,6.5208,6.5283,6.5484,6.6036,6.6112,6.6112,6.6112,6.5609,6.5057,6.4505,6.4454,6.4454,6.4454,6.4982,6.4781,6.3726,6.3701,6.3425,6.2847,6.2847,6.2847,6.2847,6.2822,6.2822,6.2822,6.2822,6.2822,6.2822,6.2822,6.2822,6.2822,6.2822,6.2822,6.2822,6.2822,6.2822,6.2822,6.2822,6.2822,6.2822,6.2822,6.2822,6.2822,6.2822,6.3224,6.3576,6.2998,6.3601,6.4479,6.4479,6.4479,6.4605,6.5157,6.5308,6.5434,6.5986,6.6112,6.5961,6.5409,6.5735,6.5961,6.5409,6.6212,6.699,6.699,6.7442,6.7995,6.8547,6.8622,6.8848,6.9311,7.043,7.1083,7.1083,7.2087,7.274,7.274,7.274,7.274,7.274,7.274,7.274,7.274,7.3293,7.3318,7.274,7.274,7.274,7.274,7.274,7.274,7.274,7.274,7.274,7.2715,7.274,7.2414,7.1937,7.2489,7.2414,7.1962,7.2514,7.274,7.274,7.274,7.274,7.274,6.2822,6.2822,6.2822,6.2822,6.2973,6.3099,6.3099,6.355,6.3977,6.4153,6.4831,6.5358,6.5509,6.5886,6.5961,6.5559,6.5383,6.5057,6.4505,6.4128,6.4078,6.4454,6.4982,6.4781,6.3726,6.4053,6.3977,6.3425,6.3425,6.3425,6.3425,6.3023,6.2822,6.2822,6.2822,6.2822,6.2822,6.2822,6.2822,6.2822,6.2822,6.2822,6.2822,6.2822,6.2822,6.2822,6.2822,6.2822,6.2822,6.2822,6.2822,6.2822,6.2822,6.3224,6.3651,6.3475,6.4203,6.5032,6.5032,6.5333,6.566,6.5835,6.586,6.6011,6.6589,6.7015,6.7141,6.6589,6.6915,6.7141,6.6564,6.7066,6.7693,6.807,6.8271,6.8698,6.9652,6.9777,6.9978,7.0531,7.1234,7.1661,7.1661,7.2313,7.274,7.274,7.274,7.274,7.274,7.3117,7.3343,7.3343,7.387,7.3895,7.3343,7.3343,7.3142,7.274,7.274,7.274,7.274,7.274,7.2514,7.2163,7.2565,7.2414,7.1937,7.2489,7.264,7.2489,7.2665,7.274,7.274,7.274,7.274,7.274,6.2822,6.2822,6.2822,6.2822,6.2822,6.2822,6.2822,6.3124,6.3425,6.3676,6.4429,6.5057,6.5258,6.5785,6.5986,6.5634,6.5208,6.4731,6.4203,6.3877,6.3726,6.3802,6.4555,6.4555,6.3701,6.3776,6.3676,6.335,6.335,6.335,6.335,6.2998,6.2822,6.2822,6.2822,6.2822,6.2822,6.2822,6.2822,6.2822,6.2822,6.2822,6.2822,6.2822,6.2822,6.2822,6.2822,6.2822,6.2822,6.2822,6.2822,6.2822,6.2822,6.3073,6.34,6.3626,6.4304,6.5007,6.5233,6.5685,6.6112,6.6112,6.6287,6.6538,6.689,6.7392,6.7719,6.7367,6.7568,6.7693,6.7367,6.7919,6.8547,6.8899,6.93,6.9828,7.0506,7.0581,7.0706,7.1033,7.156,7.1912,7.1912,7.2414,7.274,7.274,7.274,7.2841,7.3067,7.3393,7.3694,7.392,7.4448,7.4473,7.392,7.4146,7.3845,7.3067,7.2841,7.2841,7.3067,7.2841,7.2539,7.2238,7.259,7.2539,7.2263,7.259,7.274,7.274,7.274,7.274,7.274,7.274,7.274,7.274,6.2822,6.2822,6.2822,6.2822,6.2822,6.2822,6.2822,6.2822,6.3023,6.355,6.4103,6.4655,6.5157,6.576,6.6061,6.5986,6.4957,6.4128,6.3726,6.3701,6.3475,6.2998,6.3927,6.4254,6.3776,6.3249,6.2973,6.2973,6.2923,6.2923,6.2973,6.2873,6.2822,6.2822,6.2822,6.2822,6.2822,6.2822,6.2822,6.2822,6.2822,6.2822,6.2822,6.2822,6.2822,6.2822,6.2822,6.2822,6.2822,6.2822,6.2822,6.2822,6.2822,6.2822,6.2948,6.3576,6.4103,6.4605,6.5208,6.5735,6.6112,6.6112,6.6589,6.7041,6.7041,6.7467,6.7869,6.7869,6.7919,6.7945,6.7945,6.8798,6.9551,6.9652,7.0506,7.1184,7.1234,7.1234,7.1234,7.1234,7.1686,7.1987,7.2062,7.2565,7.2891,7.2891,7.2891,7.3117,7.3644,7.372,7.3971,7.4473,7.5025,7.505,7.4498,7.4975,7.4724,7.3669,7.3142,7.3167,7.3644,7.3117,7.2891,7.2891,7.2891,7.2891,7.2866,7.2816,7.2816,7.2791,7.274,7.274,7.274,7.274,7.274,7.274,6.2822,6.2822,6.2822,6.2822,6.2822,6.2822,6.2822,6.2822,6.2873,6.2998,6.3852,6.4505,6.463,6.5534,6.576,6.4906,6.3827,6.3324,6.3676,6.3701,6.3827,6.4103,6.4329,6.4404,6.4304,6.4178,6.4103,6.4103,6.3701,6.3726,6.4103,6.3224,6.2822,6.2822,6.2822,6.2822,6.2822,6.2822,6.2822,6.2822,6.2822,6.2822,6.2822,6.2822,6.2822,6.2822,6.2822,6.2822,6.2822,6.2822,6.2822,6.2822,6.2822,6.2822,6.3023,6.4002,6.4379,6.468,6.566,6.6011,6.6112,6.6112,6.6865,6.7618,6.7618,6.8045,6.8447,6.8447,6.8798,6.91,6.91,6.9627,7.0355,7.1234,7.1585,7.1887,7.2313,7.2364,7.2364,7.2364,7.2489,7.274,7.3192,7.372,7.4046,7.4046,7.4046,7.4096,7.4222,7.4649,7.4925,7.505,7.5603,7.5603,7.5075,7.5176,7.49,7.4247,7.4121,7.4121,7.4222,7.4096,7.4046,7.4046,7.4046,7.4046,7.4021,7.3594,7.3393,7.3368,7.2916,7.274,7.274,7.274,7.274,7.274,6.1159,6.1159,6.1159,6.1159,6.2035,6.2822,6.2822,6.2822,6.2822,6.2822,6.3776,6.4454,6.4454,6.5459,6.5886,6.5308,6.4479,6.4028,6.4053,6.4053,6.4078,6.4103,6.4329,6.4454,6.4454,6.4454,6.4354,6.4103,6.3827,6.3701,6.3676,6.3099,6.2822,6.2822,6.2822,6.2822,6.2822,6.2822,6.2822,6.2822,6.2822,6.2822,6.2822,6.2822,6.2822,6.2822,6.2822,6.2822,6.2822,6.2822,6.2822,6.2873,6.3149,6.3048,6.3099,6.4454,6.468,6.4705,6.581,6.6112,6.6112,6.6112,6.6764,6.7467,6.7744,6.8422,6.9024,6.9024,6.925,6.9526,6.9777,7.028,7.0932,7.1761,7.2138,7.2389,7.269,7.274,7.274,7.274,7.2966,7.3368,7.392,7.4247,7.4423,7.4423,7.4423,7.4523,7.4799,7.5075,7.5352,7.5628,7.5904,7.5929,7.5628,7.5628,7.5477,7.5201,7.4674,7.4548,7.4799,7.4548,7.4423,7.4423,7.4423,7.4423,7.4372,7.382,7.3594,7.3544,7.2966,7.274,7.274,7.274,7.274,7.274,5.9307,5.9307,5.9307,5.9307,6.1242,6.2822,6.2822,6.2822,6.2873,6.2973,6.3494,6.401,6.4454,6.5283,6.586,6.5961,6.5459,6.4982,6.463,6.4605,6.4454,6.4128,6.453,6.4756,6.4756,6.4756,6.4454,6.3827,6.3726,6.345,6.2973,6.2873,6.2822,6.2822,6.2822,6.2822,6.2822,6.2822,6.2822,6.2822,6.2822,6.2822,6.2822,6.2822,6.2822,6.2822,6.2822,6.2822,6.2822,6.2822,6.2898,6.3048,6.3425,6.335,6.3375,6.4756,6.4881,6.4831,6.5835,6.6112,6.6112,6.6112,6.6614,6.7241,6.7693,6.8572,6.9325,6.9336,6.9526,6.9752,7.0305,7.0857,7.141,7.1962,7.2439,7.2765,7.2866,7.2866,7.2916,7.3016,7.3519,7.4046,7.4523,7.4649,7.4699,7.4699,7.4699,7.49,7.5352,7.5377,7.5578,7.603,7.6055,7.6055,7.6055,7.6055,7.6055,7.6055,7.5126,7.4925,7.5352,7.49,7.4699,7.4699,7.4699,7.4699,7.4649,7.4096,7.387,7.382,7.3142,7.2866,7.2866,7.2765,7.274,7.274,5.9307,5.9307,5.9307,5.9307,6.1242,6.2822,6.2822,6.2822,6.2998,6.35,6.2214,6.2129,6.4287,6.4605,6.4881,6.5358,6.4906,6.4756,6.5157,6.5183,6.5358,6.576,6.586,6.5886,6.5886,6.5886,6.5383,6.4354,6.3927,6.3651,6.3576,6.3048,6.2822,6.2822,6.2822,6.2822,6.2822,6.2822,6.2822,6.2822,6.2822,6.2822,6.2822,6.2822,6.2822,6.2822,6.2822,6.2822,6.2822,6.2822,6.3174,6.35,6.3073,6.355,6.4279,6.4505,6.4856,6.5308,6.5936,6.6112,6.6112,6.6112,6.6915,6.7719,6.7769,6.8296,6.8874,6.9351,6.9828,7.0305,7.0857,7.141,7.1987,7.2539,7.269,7.2891,7.3393,7.3468,7.3644,7.4121,7.4674,7.505,7.5126,7.5552,7.5829,7.5829,7.5829,7.5854,7.5929,7.5954,7.5979,7.6055,7.6055,7.6055,7.6055,7.6055,7.6055,7.6055,7.5904,7.5879,7.5954,7.5854,7.5829,7.5829,7.5829,7.5829,7.5778,7.5251,7.5025,7.4925,7.387,7.3468,7.3418,7.2916,7.274,7.274,5.7692,5.7435,5.7435,5.7435,5.933,6.0803,6.0803,6.107,6.0833,5.9835,5.9412,6.0165,6.259,6.4392,6.4947,6.3826,6.4442,6.5032,6.5283,6.5283,6.5409,6.5634,6.5936,6.6112,6.6112,6.6112,6.5735,6.4931,6.4379,6.3802,6.3199,6.2948,6.2822,6.2822,6.2822,6.2822,6.2822,6.2822,6.2822,6.2822,6.2822,6.2822,6.2822,6.2822,6.2822,6.2822,6.2822,6.3048,6.3299,6.3299,6.3475,6.3751,6.4103,6.4128,6.4203,6.5132,6.5333,6.5409,6.5961,6.6112,6.6187,6.6513,6.7216,6.7869,6.8196,6.8698,6.915,6.9311,6.9627,7.0079,7.0932,7.1284,7.1736,7.259,7.2991,7.3192,7.3117,7.3669,7.4272,7.4799,7.5101,7.5352,7.5653,7.5904,7.6055,7.6055,7.6055,7.6055,7.6055,7.6055,7.6055,7.6055,7.6055,7.6055,7.6055,7.6055,7.6055,7.6055,7.6055,7.6055,7.6055,7.6055,7.6055,7.6055,7.6055,7.6055,7.6004,7.5477,7.5251,7.5151,7.4372,7.387,7.3519,7.2941,7.274,7.274]}]]